<?xml version="1.0" encoding="UTF-8" standalone="no" ?>
<gpx xmlns="http://www.topografix.com/GPX/1/1" xmlns:xsi="http://www.w3.org/2001/XMLSchema-instance" xsi:schemaLocation="http://www.topografix.com/GPX/1/1 http://www.topografix.com/GPX/1/1/gpx.xsd" version="1.1" creator="VisuGPX - https://www.visugpx.com">
  <metadata>
    <name>Cyclo : Tour de Chabre</name>
    <desc><![CDATA[Les célèbres gorges de la Meouge depuis Laragne par le col St jean: un air de Provence Alpine et Dromoise]]></desc>
  </metadata>
  <trk>
    <name><![CDATA[Tour Montagne de Chabre]]></name>
    <trkseg>
      <trkpt lat="44.31547" lon="5.82368">
        <ele>552.8952637</ele>
        <time>2014-07-27T07:29:56Z</time>
      </trkpt>
      <trkpt lat="44.31544" lon="5.82406">
        <ele>554.8178711</ele>
        <time>2014-07-27T07:30:00Z</time>
      </trkpt>
      <trkpt lat="44.31547" lon="5.82379">
        <ele>553.3759766</ele>
        <time>2014-07-27T07:30:09Z</time>
      </trkpt>
      <trkpt lat="44.3155" lon="5.82366">
        <ele>556.7407227</ele>
        <time>2014-07-27T07:30:38Z</time>
      </trkpt>
      <trkpt lat="44.3155" lon="5.82366">
        <ele>560.5859375</ele>
        <time>2014-07-27T07:30:42Z</time>
      </trkpt>
      <trkpt lat="44.3155" lon="5.82363">
        <ele>563.4699707</ele>
        <time>2014-07-27T07:30:51Z</time>
      </trkpt>
      <trkpt lat="44.3155" lon="5.8236">
        <ele>566.8344727</ele>
        <time>2014-07-27T07:30:58Z</time>
      </trkpt>
      <trkpt lat="44.3155" lon="5.8236">
        <ele>570.1989746</ele>
        <time>2014-07-27T07:31:09Z</time>
      </trkpt>
      <trkpt lat="44.3155" lon="5.8236">
        <ele>570.1989746</ele>
        <time>2014-07-27T07:31:10Z</time>
      </trkpt>
      <trkpt lat="44.3155" lon="5.8236">
        <ele>570.1989746</ele>
        <time>2014-07-27T07:31:14Z</time>
      </trkpt>
      <trkpt lat="44.31549" lon="5.8236">
        <ele>573.5639648</ele>
        <time>2014-07-27T07:31:34Z</time>
      </trkpt>
      <trkpt lat="44.31549" lon="5.8236">
        <ele>575.0058594</ele>
        <time>2014-07-27T07:31:41Z</time>
      </trkpt>
      <trkpt lat="44.31549" lon="5.82357">
        <ele>578.3703613</ele>
        <time>2014-07-27T07:32:16Z</time>
      </trkpt>
      <trkpt lat="44.31547" lon="5.82355">
        <ele>575.967041</ele>
        <time>2014-07-27T07:32:19Z</time>
      </trkpt>
      <trkpt lat="44.31547" lon="5.82356">
        <ele>575.967041</ele>
        <time>2014-07-27T07:32:22Z</time>
      </trkpt>
      <trkpt lat="44.31542" lon="5.82357">
        <ele>575.967041</ele>
        <time>2014-07-27T07:32:24Z</time>
      </trkpt>
      <trkpt lat="44.31535" lon="5.82349">
        <ele>575.4863281</ele>
        <time>2014-07-27T07:32:29Z</time>
      </trkpt>
      <trkpt lat="44.31525" lon="5.82345">
        <ele>575.0058594</ele>
        <time>2014-07-27T07:32:33Z</time>
      </trkpt>
      <trkpt lat="44.31519" lon="5.8233">
        <ele>575.967041</ele>
        <time>2014-07-27T07:32:37Z</time>
      </trkpt>
      <trkpt lat="44.31517" lon="5.8232">
        <ele>575.4863281</ele>
        <time>2014-07-27T07:32:40Z</time>
      </trkpt>
      <trkpt lat="44.31505" lon="5.82278">
        <ele>575.967041</ele>
        <time>2014-07-27T07:32:51Z</time>
      </trkpt>
      <trkpt lat="44.31486" lon="5.82238">
        <ele>575.4863281</ele>
        <time>2014-07-27T07:33:01Z</time>
      </trkpt>
      <trkpt lat="44.31484" lon="5.82235">
        <ele>575.4863281</ele>
        <time>2014-07-27T07:33:02Z</time>
      </trkpt>
      <trkpt lat="44.31482" lon="5.8223">
        <ele>575.0058594</ele>
        <time>2014-07-27T07:33:04Z</time>
      </trkpt>
      <trkpt lat="44.3148" lon="5.82223">
        <ele>574.5251465</ele>
        <time>2014-07-27T07:33:06Z</time>
      </trkpt>
      <trkpt lat="44.31473" lon="5.82214">
        <ele>575.967041</ele>
        <time>2014-07-27T07:33:10Z</time>
      </trkpt>
      <trkpt lat="44.31468" lon="5.82182">
        <ele>575.967041</ele>
        <time>2014-07-27T07:33:21Z</time>
      </trkpt>
      <trkpt lat="44.31467" lon="5.82177">
        <ele>575.967041</ele>
        <time>2014-07-27T07:33:33Z</time>
      </trkpt>
      <trkpt lat="44.31464" lon="5.82176">
        <ele>575.967041</ele>
        <time>2014-07-27T07:33:47Z</time>
      </trkpt>
      <trkpt lat="44.31473" lon="5.82155">
        <ele>575.967041</ele>
        <time>2014-07-27T07:33:59Z</time>
      </trkpt>
      <trkpt lat="44.31481" lon="5.82153">
        <ele>575.967041</ele>
        <time>2014-07-27T07:34:02Z</time>
      </trkpt>
      <trkpt lat="44.31522" lon="5.82142">
        <ele>576.9284668</ele>
        <time>2014-07-27T07:34:15Z</time>
      </trkpt>
      <trkpt lat="44.31536" lon="5.82138">
        <ele>577.4091797</ele>
        <time>2014-07-27T07:34:19Z</time>
      </trkpt>
      <trkpt lat="44.31535" lon="5.82106">
        <ele>576.9284668</ele>
        <time>2014-07-27T07:34:27Z</time>
      </trkpt>
      <trkpt lat="44.31514" lon="5.82115">
        <ele>575.967041</ele>
        <time>2014-07-27T07:34:36Z</time>
      </trkpt>
      <trkpt lat="44.31466" lon="5.82135">
        <ele>575.4863281</ele>
        <time>2014-07-27T07:34:49Z</time>
      </trkpt>
      <trkpt lat="44.31455" lon="5.82138">
        <ele>575.4863281</ele>
        <time>2014-07-27T07:34:56Z</time>
      </trkpt>
      <trkpt lat="44.31454" lon="5.82136">
        <ele>575.4863281</ele>
        <time>2014-07-27T07:34:58Z</time>
      </trkpt>
      <trkpt lat="44.31449" lon="5.82098">
        <ele>575.0058594</ele>
        <time>2014-07-27T07:35:09Z</time>
      </trkpt>
      <trkpt lat="44.3145" lon="5.82072">
        <ele>575.0058594</ele>
        <time>2014-07-27T07:35:15Z</time>
      </trkpt>
      <trkpt lat="44.31446" lon="5.82068">
        <ele>574.5251465</ele>
        <time>2014-07-27T07:35:22Z</time>
      </trkpt>
      <trkpt lat="44.31438" lon="5.82076">
        <ele>574.5251465</ele>
        <time>2014-07-27T07:35:27Z</time>
      </trkpt>
      <trkpt lat="44.31427" lon="5.82127">
        <ele>573.5639648</ele>
        <time>2014-07-27T07:35:37Z</time>
      </trkpt>
      <trkpt lat="44.31423" lon="5.8216">
        <ele>573.083252</ele>
        <time>2014-07-27T07:35:43Z</time>
      </trkpt>
      <trkpt lat="44.31409" lon="5.82235">
        <ele>573.5639648</ele>
        <time>2014-07-27T07:35:56Z</time>
      </trkpt>
      <trkpt lat="44.31406" lon="5.82243">
        <ele>573.083252</ele>
        <time>2014-07-27T07:36:00Z</time>
      </trkpt>
      <trkpt lat="44.31394" lon="5.8225">
        <ele>572.6025391</ele>
        <time>2014-07-27T07:36:04Z</time>
      </trkpt>
      <trkpt lat="44.31365" lon="5.82269">
        <ele>572.6025391</ele>
        <time>2014-07-27T07:36:16Z</time>
      </trkpt>
      <trkpt lat="44.31365" lon="5.8227">
        <ele>572.1218262</ele>
        <time>2014-07-27T07:36:47Z</time>
      </trkpt>
      <trkpt lat="44.31365" lon="5.8227">
        <ele>571.6408691</ele>
        <time>2014-07-27T07:36:53Z</time>
      </trkpt>
      <trkpt lat="44.31359" lon="5.8228">
        <ele>572.6025391</ele>
        <time>2014-07-27T07:38:18Z</time>
      </trkpt>
      <trkpt lat="44.31357" lon="5.82277">
        <ele>570.1989746</ele>
        <time>2014-07-27T07:38:23Z</time>
      </trkpt>
      <trkpt lat="44.31329" lon="5.82259">
        <ele>569.237793</ele>
        <time>2014-07-27T07:38:27Z</time>
      </trkpt>
      <trkpt lat="44.31306" lon="5.82261">
        <ele>567.7956543</ele>
        <time>2014-07-27T07:38:29Z</time>
      </trkpt>
      <trkpt lat="44.31253" lon="5.82266">
        <ele>563.9504395</ele>
        <time>2014-07-27T07:38:35Z</time>
      </trkpt>
      <trkpt lat="44.31245" lon="5.82269">
        <ele>563.9504395</ele>
        <time>2014-07-27T07:38:36Z</time>
      </trkpt>
      <trkpt lat="44.31182" lon="5.82285">
        <ele>563.9504395</ele>
        <time>2014-07-27T07:38:46Z</time>
      </trkpt>
      <trkpt lat="44.31173" lon="5.82286">
        <ele>563.4699707</ele>
        <time>2014-07-27T07:38:48Z</time>
      </trkpt>
      <trkpt lat="44.31149" lon="5.82271">
        <ele>562.5085449</ele>
        <time>2014-07-27T07:38:53Z</time>
      </trkpt>
      <trkpt lat="44.31127" lon="5.82248">
        <ele>561.5473633</ele>
        <time>2014-07-27T07:38:58Z</time>
      </trkpt>
      <trkpt lat="44.31058" lon="5.82157">
        <ele>561.0666504</ele>
        <time>2014-07-27T07:39:14Z</time>
      </trkpt>
      <trkpt lat="44.31003" lon="5.8208">
        <ele>561.0666504</ele>
        <time>2014-07-27T07:39:28Z</time>
      </trkpt>
      <trkpt lat="44.30948" lon="5.82041">
        <ele>561.0666504</ele>
        <time>2014-07-27T07:39:40Z</time>
      </trkpt>
      <trkpt lat="44.30932" lon="5.82037">
        <ele>561.5473633</ele>
        <time>2014-07-27T07:39:43Z</time>
      </trkpt>
      <trkpt lat="44.30923" lon="5.82036">
        <ele>561.5473633</ele>
        <time>2014-07-27T07:39:45Z</time>
      </trkpt>
      <trkpt lat="44.30865" lon="5.8205">
        <ele>563.4699707</ele>
        <time>2014-07-27T07:40:01Z</time>
      </trkpt>
      <trkpt lat="44.30806" lon="5.8207">
        <ele>565.3925781</ele>
        <time>2014-07-27T07:40:18Z</time>
      </trkpt>
      <trkpt lat="44.30757" lon="5.82095">
        <ele>565.3925781</ele>
        <time>2014-07-27T07:40:31Z</time>
      </trkpt>
      <trkpt lat="44.30726" lon="5.82161">
        <ele>566.3537598</ele>
        <time>2014-07-27T07:40:47Z</time>
      </trkpt>
      <trkpt lat="44.30694" lon="5.82222">
        <ele>566.8344727</ele>
        <time>2014-07-27T07:41:02Z</time>
      </trkpt>
      <trkpt lat="44.30688" lon="5.82212">
        <ele>567.3151855</ele>
        <time>2014-07-27T07:41:08Z</time>
      </trkpt>
      <trkpt lat="44.30699" lon="5.82197">
        <ele>568.7570801</ele>
        <time>2014-07-27T07:41:15Z</time>
      </trkpt>
      <trkpt lat="44.30713" lon="5.82149">
        <ele>570.6796875</ele>
        <time>2014-07-27T07:41:32Z</time>
      </trkpt>
      <trkpt lat="44.30714" lon="5.82147">
        <ele>570.6796875</ele>
        <time>2014-07-27T07:41:33Z</time>
      </trkpt>
      <trkpt lat="44.30718" lon="5.82108">
        <ele>572.1218262</ele>
        <time>2014-07-27T07:41:47Z</time>
      </trkpt>
      <trkpt lat="44.30712" lon="5.82087">
        <ele>574.0444336</ele>
        <time>2014-07-27T07:41:54Z</time>
      </trkpt>
      <trkpt lat="44.30707" lon="5.82051">
        <ele>575.967041</ele>
        <time>2014-07-27T07:42:06Z</time>
      </trkpt>
      <trkpt lat="44.30707" lon="5.82042">
        <ele>576.4477539</ele>
        <time>2014-07-27T07:42:09Z</time>
      </trkpt>
      <trkpt lat="44.3071" lon="5.82013">
        <ele>577.4091797</ele>
        <time>2014-07-27T07:42:20Z</time>
      </trkpt>
      <trkpt lat="44.30714" lon="5.81963">
        <ele>580.7736816</ele>
        <time>2014-07-27T07:42:38Z</time>
      </trkpt>
      <trkpt lat="44.30717" lon="5.81947">
        <ele>581.2543945</ele>
        <time>2014-07-27T07:42:44Z</time>
      </trkpt>
      <trkpt lat="44.30724" lon="5.81917">
        <ele>583.6574707</ele>
        <time>2014-07-27T07:42:55Z</time>
      </trkpt>
      <trkpt lat="44.30732" lon="5.81871">
        <ele>585.0996094</ele>
        <time>2014-07-27T07:43:10Z</time>
      </trkpt>
      <trkpt lat="44.30736" lon="5.8186">
        <ele>587.0219727</ele>
        <time>2014-07-27T07:43:14Z</time>
      </trkpt>
      <trkpt lat="44.30739" lon="5.81844">
        <ele>587.9833984</ele>
        <time>2014-07-27T07:43:20Z</time>
      </trkpt>
      <trkpt lat="44.30742" lon="5.81833">
        <ele>587.9833984</ele>
        <time>2014-07-27T07:43:24Z</time>
      </trkpt>
      <trkpt lat="44.30743" lon="5.81829">
        <ele>587.5026855</ele>
        <time>2014-07-27T07:43:26Z</time>
      </trkpt>
      <trkpt lat="44.30748" lon="5.81814">
        <ele>588.9450684</ele>
        <time>2014-07-27T07:43:32Z</time>
      </trkpt>
      <trkpt lat="44.30752" lon="5.81793">
        <ele>589.90625</ele>
        <time>2014-07-27T07:43:39Z</time>
      </trkpt>
      <trkpt lat="44.30764" lon="5.81758">
        <ele>591.8288574</ele>
        <time>2014-07-27T07:43:53Z</time>
      </trkpt>
      <trkpt lat="44.30774" lon="5.81726">
        <ele>593.7514648</ele>
        <time>2014-07-27T07:44:06Z</time>
      </trkpt>
      <trkpt lat="44.30779" lon="5.81717">
        <ele>594.2321777</ele>
        <time>2014-07-27T07:44:10Z</time>
      </trkpt>
      <trkpt lat="44.30786" lon="5.817">
        <ele>595.1933594</ele>
        <time>2014-07-27T07:44:17Z</time>
      </trkpt>
      <trkpt lat="44.30792" lon="5.81667">
        <ele>597.1159668</ele>
        <time>2014-07-27T07:44:28Z</time>
      </trkpt>
      <trkpt lat="44.308" lon="5.81625">
        <ele>599.5192871</ele>
        <time>2014-07-27T07:44:43Z</time>
      </trkpt>
      <trkpt lat="44.30803" lon="5.81598">
        <ele>600.9611816</ele>
        <time>2014-07-27T07:44:53Z</time>
      </trkpt>
      <trkpt lat="44.30803" lon="5.81591">
        <ele>601.4418945</ele>
        <time>2014-07-27T07:44:55Z</time>
      </trkpt>
      <trkpt lat="44.30804" lon="5.81586">
        <ele>601.4418945</ele>
        <time>2014-07-27T07:44:57Z</time>
      </trkpt>
      <trkpt lat="44.30806" lon="5.81565">
        <ele>603.364502</ele>
        <time>2014-07-27T07:45:04Z</time>
      </trkpt>
      <trkpt lat="44.30811" lon="5.81531">
        <ele>604.8066406</ele>
        <time>2014-07-27T07:45:17Z</time>
      </trkpt>
      <trkpt lat="44.30816" lon="5.81496">
        <ele>606.729248</ele>
        <time>2014-07-27T07:45:29Z</time>
      </trkpt>
      <trkpt lat="44.3082" lon="5.81488">
        <ele>607.2099609</ele>
        <time>2014-07-27T07:45:33Z</time>
      </trkpt>
      <trkpt lat="44.30826" lon="5.81458">
        <ele>609.1325684</ele>
        <time>2014-07-27T07:45:44Z</time>
      </trkpt>
      <trkpt lat="44.30832" lon="5.81431">
        <ele>611.0551758</ele>
        <time>2014-07-27T07:45:54Z</time>
      </trkpt>
      <trkpt lat="44.30838" lon="5.81397">
        <ele>612.9777832</ele>
        <time>2014-07-27T07:46:07Z</time>
      </trkpt>
      <trkpt lat="44.30843" lon="5.81364">
        <ele>614.9003906</ele>
        <time>2014-07-27T07:46:19Z</time>
      </trkpt>
      <trkpt lat="44.30852" lon="5.81334">
        <ele>616.3422852</ele>
        <time>2014-07-27T07:46:29Z</time>
      </trkpt>
      <trkpt lat="44.30857" lon="5.81325">
        <ele>616.822998</ele>
        <time>2014-07-27T07:46:34Z</time>
      </trkpt>
      <trkpt lat="44.30867" lon="5.81281">
        <ele>618.7456055</ele>
        <time>2014-07-27T07:46:50Z</time>
      </trkpt>
      <trkpt lat="44.30883" lon="5.81228">
        <ele>618.7456055</ele>
        <time>2014-07-27T07:47:07Z</time>
      </trkpt>
      <trkpt lat="44.30895" lon="5.81199">
        <ele>618.7456055</ele>
        <time>2014-07-27T07:47:17Z</time>
      </trkpt>
      <trkpt lat="44.30897" lon="5.81187">
        <ele>619.2263184</ele>
        <time>2014-07-27T07:47:20Z</time>
      </trkpt>
      <trkpt lat="44.3091" lon="5.8114">
        <ele>620.1877441</ele>
        <time>2014-07-27T07:47:32Z</time>
      </trkpt>
      <trkpt lat="44.30924" lon="5.81076">
        <ele>618.7456055</ele>
        <time>2014-07-27T07:47:45Z</time>
      </trkpt>
      <trkpt lat="44.30948" lon="5.81009">
        <ele>620.1877441</ele>
        <time>2014-07-27T07:48:01Z</time>
      </trkpt>
      <trkpt lat="44.30971" lon="5.80968">
        <ele>620.1877441</ele>
        <time>2014-07-27T07:48:16Z</time>
      </trkpt>
      <trkpt lat="44.30976" lon="5.80959">
        <ele>620.1877441</ele>
        <time>2014-07-27T07:48:20Z</time>
      </trkpt>
      <trkpt lat="44.3098" lon="5.80952">
        <ele>622.1103516</ele>
        <time>2014-07-27T07:48:23Z</time>
      </trkpt>
      <trkpt lat="44.30987" lon="5.80933">
        <ele>623.5524902</ele>
        <time>2014-07-27T07:48:30Z</time>
      </trkpt>
      <trkpt lat="44.30994" lon="5.80912">
        <ele>623.5524902</ele>
        <time>2014-07-27T07:48:38Z</time>
      </trkpt>
      <trkpt lat="44.31001" lon="5.80861">
        <ele>624.032959</ele>
        <time>2014-07-27T07:48:53Z</time>
      </trkpt>
      <trkpt lat="44.31016" lon="5.8083">
        <ele>625.9555664</ele>
        <time>2014-07-27T07:49:02Z</time>
      </trkpt>
      <trkpt lat="44.31037" lon="5.80778">
        <ele>627.8781738</ele>
        <time>2014-07-27T07:49:18Z</time>
      </trkpt>
      <trkpt lat="44.31047" lon="5.8074">
        <ele>628.8395996</ele>
        <time>2014-07-27T07:49:31Z</time>
      </trkpt>
      <trkpt lat="44.31058" lon="5.80704">
        <ele>630.2814941</ele>
        <time>2014-07-27T07:49:44Z</time>
      </trkpt>
      <trkpt lat="44.31072" lon="5.80652">
        <ele>631.7233887</ele>
        <time>2014-07-27T07:50:00Z</time>
      </trkpt>
      <trkpt lat="44.31088" lon="5.80602">
        <ele>630.762207</ele>
        <time>2014-07-27T07:50:11Z</time>
      </trkpt>
      <trkpt lat="44.31113" lon="5.80495">
        <ele>629.3200684</ele>
        <time>2014-07-27T07:50:27Z</time>
      </trkpt>
      <trkpt lat="44.31113" lon="5.8042">
        <ele>630.2814941</ele>
        <time>2014-07-27T07:50:43Z</time>
      </trkpt>
      <trkpt lat="44.3111" lon="5.80348">
        <ele>629.3200684</ele>
        <time>2014-07-27T07:50:56Z</time>
      </trkpt>
      <trkpt lat="44.31109" lon="5.80341">
        <ele>629.3200684</ele>
        <time>2014-07-27T07:50:57Z</time>
      </trkpt>
      <trkpt lat="44.31118" lon="5.80297">
        <ele>628.8395996</ele>
        <time>2014-07-27T07:51:04Z</time>
      </trkpt>
      <trkpt lat="44.31137" lon="5.80262">
        <ele>627.8781738</ele>
        <time>2014-07-27T07:51:10Z</time>
      </trkpt>
      <trkpt lat="44.31168" lon="5.80177">
        <ele>624.9943848</ele>
        <time>2014-07-27T07:51:21Z</time>
      </trkpt>
      <trkpt lat="44.31186" lon="5.80116">
        <ele>623.0717773</ele>
        <time>2014-07-27T07:51:27Z</time>
      </trkpt>
      <trkpt lat="44.3121" lon="5.80077">
        <ele>622.5910645</ele>
        <time>2014-07-27T07:51:32Z</time>
      </trkpt>
      <trkpt lat="44.31221" lon="5.80024">
        <ele>622.5910645</ele>
        <time>2014-07-27T07:51:39Z</time>
      </trkpt>
      <trkpt lat="44.31223" lon="5.79991">
        <ele>622.1103516</ele>
        <time>2014-07-27T07:51:43Z</time>
      </trkpt>
      <trkpt lat="44.31231" lon="5.7996">
        <ele>621.1491699</ele>
        <time>2014-07-27T07:51:47Z</time>
      </trkpt>
      <trkpt lat="44.31237" lon="5.7995">
        <ele>622.1103516</ele>
        <time>2014-07-27T07:51:49Z</time>
      </trkpt>
      <trkpt lat="44.31268" lon="5.79913">
        <ele>621.1491699</ele>
        <time>2014-07-27T07:51:57Z</time>
      </trkpt>
      <trkpt lat="44.31308" lon="5.79857">
        <ele>620.668457</ele>
        <time>2014-07-27T07:52:06Z</time>
      </trkpt>
      <trkpt lat="44.31353" lon="5.79791">
        <ele>620.1877441</ele>
        <time>2014-07-27T07:52:17Z</time>
      </trkpt>
      <trkpt lat="44.31364" lon="5.79774">
        <ele>619.7070313</ele>
        <time>2014-07-27T07:52:20Z</time>
      </trkpt>
      <trkpt lat="44.31401" lon="5.79707">
        <ele>621.1491699</ele>
        <time>2014-07-27T07:52:35Z</time>
      </trkpt>
      <trkpt lat="44.31404" lon="5.79696">
        <ele>621.1491699</ele>
        <time>2014-07-27T07:52:37Z</time>
      </trkpt>
      <trkpt lat="44.31411" lon="5.79671">
        <ele>619.7070313</ele>
        <time>2014-07-27T07:52:41Z</time>
      </trkpt>
      <trkpt lat="44.31427" lon="5.79603">
        <ele>616.3422852</ele>
        <time>2014-07-27T07:52:49Z</time>
      </trkpt>
      <trkpt lat="44.31437" lon="5.79568">
        <ele>614.4196777</ele>
        <time>2014-07-27T07:52:53Z</time>
      </trkpt>
      <trkpt lat="44.31442" lon="5.79553">
        <ele>612.9777832</ele>
        <time>2014-07-27T07:52:55Z</time>
      </trkpt>
      <trkpt lat="44.31443" lon="5.79544">
        <ele>612.0166016</ele>
        <time>2014-07-27T07:52:56Z</time>
      </trkpt>
      <trkpt lat="44.31458" lon="5.79491">
        <ele>609.6132813</ele>
        <time>2014-07-27T07:53:03Z</time>
      </trkpt>
      <trkpt lat="44.31464" lon="5.79441">
        <ele>607.6906738</ele>
        <time>2014-07-27T07:53:09Z</time>
      </trkpt>
      <trkpt lat="44.31461" lon="5.79362">
        <ele>603.364502</ele>
        <time>2014-07-27T07:53:17Z</time>
      </trkpt>
      <trkpt lat="44.31468" lon="5.79287">
        <ele>599.5192871</ele>
        <time>2014-07-27T07:53:26Z</time>
      </trkpt>
      <trkpt lat="44.31479" lon="5.79234">
        <ele>597.5966797</ele>
        <time>2014-07-27T07:53:32Z</time>
      </trkpt>
      <trkpt lat="44.31485" lon="5.79219">
        <ele>597.5966797</ele>
        <time>2014-07-27T07:53:34Z</time>
      </trkpt>
      <trkpt lat="44.31504" lon="5.79184">
        <ele>595.6740723</ele>
        <time>2014-07-27T07:53:39Z</time>
      </trkpt>
      <trkpt lat="44.31525" lon="5.79122">
        <ele>593.7514648</ele>
        <time>2014-07-27T07:53:46Z</time>
      </trkpt>
      <trkpt lat="44.31555" lon="5.79031">
        <ele>594.2321777</ele>
        <time>2014-07-27T07:53:57Z</time>
      </trkpt>
      <trkpt lat="44.3157" lon="5.7899">
        <ele>594.2321777</ele>
        <time>2014-07-27T07:54:04Z</time>
      </trkpt>
      <trkpt lat="44.3158" lon="5.78924">
        <ele>595.6740723</ele>
        <time>2014-07-27T07:54:19Z</time>
      </trkpt>
      <trkpt lat="44.31583" lon="5.78862">
        <ele>597.1159668</ele>
        <time>2014-07-27T07:54:34Z</time>
      </trkpt>
      <trkpt lat="44.31588" lon="5.78816">
        <ele>600.4807129</ele>
        <time>2014-07-27T07:54:47Z</time>
      </trkpt>
      <trkpt lat="44.31592" lon="5.78778">
        <ele>602.8837891</ele>
        <time>2014-07-27T07:54:59Z</time>
      </trkpt>
      <trkpt lat="44.31594" lon="5.78765">
        <ele>603.8452148</ele>
        <time>2014-07-27T07:55:03Z</time>
      </trkpt>
      <trkpt lat="44.31595" lon="5.78752">
        <ele>603.8452148</ele>
        <time>2014-07-27T07:55:07Z</time>
      </trkpt>
      <trkpt lat="44.316" lon="5.78725">
        <ele>605.7680664</ele>
        <time>2014-07-27T07:55:17Z</time>
      </trkpt>
      <trkpt lat="44.31601" lon="5.78701">
        <ele>607.2099609</ele>
        <time>2014-07-27T07:55:24Z</time>
      </trkpt>
      <trkpt lat="44.31599" lon="5.78653">
        <ele>608.6518555</ele>
        <time>2014-07-27T07:55:39Z</time>
      </trkpt>
      <trkpt lat="44.316" lon="5.786">
        <ele>610.5744629</ele>
        <time>2014-07-27T07:55:54Z</time>
      </trkpt>
      <trkpt lat="44.31611" lon="5.7856">
        <ele>610.09375</ele>
        <time>2014-07-27T07:56:04Z</time>
      </trkpt>
      <trkpt lat="44.31631" lon="5.78544">
        <ele>608.6518555</ele>
        <time>2014-07-27T07:56:08Z</time>
      </trkpt>
      <trkpt lat="44.3171" lon="5.78509">
        <ele>604.8066406</ele>
        <time>2014-07-27T07:56:19Z</time>
      </trkpt>
      <trkpt lat="44.31725" lon="5.78501">
        <ele>604.3261719</ele>
        <time>2014-07-27T07:56:21Z</time>
      </trkpt>
      <trkpt lat="44.31758" lon="5.78466">
        <ele>604.3261719</ele>
        <time>2014-07-27T07:56:27Z</time>
      </trkpt>
      <trkpt lat="44.31784" lon="5.78413">
        <ele>605.7680664</ele>
        <time>2014-07-27T07:56:38Z</time>
      </trkpt>
      <trkpt lat="44.31786" lon="5.78409">
        <ele>605.7680664</ele>
        <time>2014-07-27T07:56:39Z</time>
      </trkpt>
      <trkpt lat="44.31794" lon="5.78398">
        <ele>605.2873535</ele>
        <time>2014-07-27T07:56:42Z</time>
      </trkpt>
      <trkpt lat="44.31814" lon="5.78363">
        <ele>604.3261719</ele>
        <time>2014-07-27T07:56:48Z</time>
      </trkpt>
      <trkpt lat="44.3182" lon="5.78313">
        <ele>602.4030762</ele>
        <time>2014-07-27T07:56:53Z</time>
      </trkpt>
      <trkpt lat="44.31818" lon="5.78294">
        <ele>600.9611816</ele>
        <time>2014-07-27T07:56:55Z</time>
      </trkpt>
      <trkpt lat="44.31819" lon="5.78285">
        <ele>600</ele>
        <time>2014-07-27T07:56:56Z</time>
      </trkpt>
      <trkpt lat="44.31824" lon="5.78272">
        <ele>599.0385742</ele>
        <time>2014-07-27T07:56:58Z</time>
      </trkpt>
      <trkpt lat="44.31839" lon="5.78265">
        <ele>598.0773926</ele>
        <time>2014-07-27T07:57:02Z</time>
      </trkpt>
      <trkpt lat="44.31858" lon="5.7829">
        <ele>601.4418945</ele>
        <time>2014-07-27T07:57:14Z</time>
      </trkpt>
      <trkpt lat="44.31889" lon="5.78305">
        <ele>603.8452148</ele>
        <time>2014-07-27T07:57:27Z</time>
      </trkpt>
      <trkpt lat="44.31919" lon="5.78315">
        <ele>606.2485352</ele>
        <time>2014-07-27T07:57:39Z</time>
      </trkpt>
      <trkpt lat="44.31926" lon="5.78315">
        <ele>606.2485352</ele>
        <time>2014-07-27T07:57:42Z</time>
      </trkpt>
      <trkpt lat="44.31966" lon="5.78297">
        <ele>608.1713867</ele>
        <time>2014-07-27T07:57:57Z</time>
      </trkpt>
      <trkpt lat="44.32008" lon="5.78263">
        <ele>607.6906738</ele>
        <time>2014-07-27T07:58:14Z</time>
      </trkpt>
      <trkpt lat="44.32039" lon="5.78234">
        <ele>607.6906738</ele>
        <time>2014-07-27T07:58:26Z</time>
      </trkpt>
      <trkpt lat="44.32073" lon="5.78198">
        <ele>608.1713867</ele>
        <time>2014-07-27T07:58:40Z</time>
      </trkpt>
      <trkpt lat="44.32112" lon="5.78161">
        <ele>609.1325684</ele>
        <time>2014-07-27T07:58:55Z</time>
      </trkpt>
      <trkpt lat="44.32174" lon="5.78097">
        <ele>610.09375</ele>
        <time>2014-07-27T07:59:20Z</time>
      </trkpt>
      <trkpt lat="44.32214" lon="5.78068">
        <ele>610.09375</ele>
        <time>2014-07-27T07:59:32Z</time>
      </trkpt>
      <trkpt lat="44.32288" lon="5.78023">
        <ele>608.6518555</ele>
        <time>2014-07-27T07:59:50Z</time>
      </trkpt>
      <trkpt lat="44.32406" lon="5.77951">
        <ele>607.2099609</ele>
        <time>2014-07-27T08:00:16Z</time>
      </trkpt>
      <trkpt lat="44.32494" lon="5.77887">
        <ele>606.729248</ele>
        <time>2014-07-27T08:00:37Z</time>
      </trkpt>
      <trkpt lat="44.32585" lon="5.77807">
        <ele>605.2873535</ele>
        <time>2014-07-27T08:00:58Z</time>
      </trkpt>
      <trkpt lat="44.32651" lon="5.77728">
        <ele>604.8066406</ele>
        <time>2014-07-27T08:01:16Z</time>
      </trkpt>
      <trkpt lat="44.32663" lon="5.77703">
        <ele>604.3261719</ele>
        <time>2014-07-27T08:01:21Z</time>
      </trkpt>
      <trkpt lat="44.32679" lon="5.7764">
        <ele>604.3261719</ele>
        <time>2014-07-27T08:01:32Z</time>
      </trkpt>
      <trkpt lat="44.32687" lon="5.77618">
        <ele>604.3261719</ele>
        <time>2014-07-27T08:01:36Z</time>
      </trkpt>
      <trkpt lat="44.32705" lon="5.77602">
        <ele>603.8452148</ele>
        <time>2014-07-27T08:01:41Z</time>
      </trkpt>
      <trkpt lat="44.32778" lon="5.7758">
        <ele>604.8066406</ele>
        <time>2014-07-27T08:01:59Z</time>
      </trkpt>
      <trkpt lat="44.32793" lon="5.7758">
        <ele>604.3261719</ele>
        <time>2014-07-27T08:02:02Z</time>
      </trkpt>
      <trkpt lat="44.3282" lon="5.7759">
        <ele>603.364502</ele>
        <time>2014-07-27T08:02:07Z</time>
      </trkpt>
      <trkpt lat="44.32907" lon="5.77597">
        <ele>602.4030762</ele>
        <time>2014-07-27T08:02:23Z</time>
      </trkpt>
      <trkpt lat="44.33009" lon="5.77596">
        <ele>601.4418945</ele>
        <time>2014-07-27T08:02:43Z</time>
      </trkpt>
      <trkpt lat="44.33021" lon="5.77595">
        <ele>601.4418945</ele>
        <time>2014-07-27T08:02:45Z</time>
      </trkpt>
      <trkpt lat="44.3304" lon="5.77594">
        <ele>600</ele>
        <time>2014-07-27T08:02:48Z</time>
      </trkpt>
      <trkpt lat="44.33116" lon="5.77593">
        <ele>598.5578613</ele>
        <time>2014-07-27T08:03:00Z</time>
      </trkpt>
      <trkpt lat="44.33122" lon="5.77592">
        <ele>599.0385742</ele>
        <time>2014-07-27T08:03:01Z</time>
      </trkpt>
      <trkpt lat="44.3314" lon="5.77583">
        <ele>599.5192871</ele>
        <time>2014-07-27T08:03:05Z</time>
      </trkpt>
      <trkpt lat="44.33182" lon="5.77555">
        <ele>599.5192871</ele>
        <time>2014-07-27T08:03:16Z</time>
      </trkpt>
      <trkpt lat="44.3319" lon="5.77548">
        <ele>599.0385742</ele>
        <time>2014-07-27T08:03:18Z</time>
      </trkpt>
      <trkpt lat="44.33214" lon="5.77521">
        <ele>599.0385742</ele>
        <time>2014-07-27T08:03:25Z</time>
      </trkpt>
      <trkpt lat="44.33225" lon="5.77512">
        <ele>599.0385742</ele>
        <time>2014-07-27T08:03:28Z</time>
      </trkpt>
      <trkpt lat="44.33253" lon="5.77502">
        <ele>599.0385742</ele>
        <time>2014-07-27T08:03:35Z</time>
      </trkpt>
      <trkpt lat="44.33319" lon="5.77499">
        <ele>600</ele>
        <time>2014-07-27T08:03:52Z</time>
      </trkpt>
      <trkpt lat="44.3336" lon="5.77502">
        <ele>600</ele>
        <time>2014-07-27T08:04:05Z</time>
      </trkpt>
      <trkpt lat="44.33387" lon="5.77508">
        <ele>601.9226074</ele>
        <time>2014-07-27T08:04:15Z</time>
      </trkpt>
      <trkpt lat="44.33389" lon="5.77508">
        <ele>601.9226074</ele>
        <time>2014-07-27T08:04:16Z</time>
      </trkpt>
      <trkpt lat="44.33446" lon="5.77514">
        <ele>602.4030762</ele>
        <time>2014-07-27T08:04:31Z</time>
      </trkpt>
      <trkpt lat="44.33507" lon="5.77526">
        <ele>602.8837891</ele>
        <time>2014-07-27T08:04:46Z</time>
      </trkpt>
      <trkpt lat="44.33546" lon="5.77536">
        <ele>603.8452148</ele>
        <time>2014-07-27T08:04:59Z</time>
      </trkpt>
      <trkpt lat="44.33566" lon="5.7754">
        <ele>606.2485352</ele>
        <time>2014-07-27T08:05:07Z</time>
      </trkpt>
      <trkpt lat="44.33591" lon="5.77537">
        <ele>607.2099609</ele>
        <time>2014-07-27T08:05:19Z</time>
      </trkpt>
      <trkpt lat="44.33613" lon="5.77513">
        <ele>608.6518555</ele>
        <time>2014-07-27T08:05:32Z</time>
      </trkpt>
      <trkpt lat="44.33632" lon="5.77512">
        <ele>611.0551758</ele>
        <time>2014-07-27T08:05:43Z</time>
      </trkpt>
      <trkpt lat="44.33655" lon="5.77516">
        <ele>612.4970703</ele>
        <time>2014-07-27T08:05:53Z</time>
      </trkpt>
      <trkpt lat="44.33659" lon="5.77517">
        <ele>612.9777832</ele>
        <time>2014-07-27T08:05:55Z</time>
      </trkpt>
      <trkpt lat="44.33663" lon="5.77519">
        <ele>613.9389648</ele>
        <time>2014-07-27T08:05:57Z</time>
      </trkpt>
      <trkpt lat="44.33673" lon="5.7752">
        <ele>613.9389648</ele>
        <time>2014-07-27T08:06:01Z</time>
      </trkpt>
      <trkpt lat="44.33695" lon="5.7753">
        <ele>616.3422852</ele>
        <time>2014-07-27T08:06:12Z</time>
      </trkpt>
      <trkpt lat="44.33704" lon="5.77533">
        <ele>616.822998</ele>
        <time>2014-07-27T08:06:17Z</time>
      </trkpt>
      <trkpt lat="44.33722" lon="5.77537">
        <ele>618.7456055</ele>
        <time>2014-07-27T08:06:25Z</time>
      </trkpt>
      <trkpt lat="44.3373" lon="5.77541">
        <ele>619.2263184</ele>
        <time>2014-07-27T08:06:29Z</time>
      </trkpt>
      <trkpt lat="44.33751" lon="5.77554">
        <ele>621.6296387</ele>
        <time>2014-07-27T08:06:42Z</time>
      </trkpt>
      <trkpt lat="44.33774" lon="5.77569">
        <ele>624.032959</ele>
        <time>2014-07-27T08:06:56Z</time>
      </trkpt>
      <trkpt lat="44.338" lon="5.77589">
        <ele>625.4748535</ele>
        <time>2014-07-27T08:07:11Z</time>
      </trkpt>
      <trkpt lat="44.33812" lon="5.77597">
        <ele>626.4362793</ele>
        <time>2014-07-27T08:07:17Z</time>
      </trkpt>
      <trkpt lat="44.33842" lon="5.77635">
        <ele>627.3977051</ele>
        <time>2014-07-27T08:07:34Z</time>
      </trkpt>
      <trkpt lat="44.3387" lon="5.7766">
        <ele>628.3588867</ele>
        <time>2014-07-27T08:07:49Z</time>
      </trkpt>
      <trkpt lat="44.33877" lon="5.77662">
        <ele>627.8781738</ele>
        <time>2014-07-27T08:07:52Z</time>
      </trkpt>
      <trkpt lat="44.33897" lon="5.7767">
        <ele>628.8395996</ele>
        <time>2014-07-27T08:08:03Z</time>
      </trkpt>
      <trkpt lat="44.33943" lon="5.77645">
        <ele>630.2814941</ele>
        <time>2014-07-27T08:08:19Z</time>
      </trkpt>
      <trkpt lat="44.33953" lon="5.77637">
        <ele>630.762207</ele>
        <time>2014-07-27T08:08:24Z</time>
      </trkpt>
      <trkpt lat="44.3397" lon="5.77615">
        <ele>631.7233887</ele>
        <time>2014-07-27T08:08:34Z</time>
      </trkpt>
      <trkpt lat="44.33976" lon="5.77609">
        <ele>632.2041016</ele>
        <time>2014-07-27T08:08:37Z</time>
      </trkpt>
      <trkpt lat="44.33986" lon="5.7759">
        <ele>633.1652832</ele>
        <time>2014-07-27T08:08:44Z</time>
      </trkpt>
      <trkpt lat="44.34002" lon="5.77541">
        <ele>634.126709</ele>
        <time>2014-07-27T08:09:00Z</time>
      </trkpt>
      <trkpt lat="44.34014" lon="5.77501">
        <ele>634.6074219</ele>
        <time>2014-07-27T08:09:13Z</time>
      </trkpt>
      <trkpt lat="44.33996" lon="5.77447">
        <ele>632.2041016</ele>
        <time>2014-07-27T08:09:24Z</time>
      </trkpt>
      <trkpt lat="44.33989" lon="5.7743">
        <ele>631.7233887</ele>
        <time>2014-07-27T08:09:26Z</time>
      </trkpt>
      <trkpt lat="44.33984" lon="5.77413">
        <ele>630.762207</ele>
        <time>2014-07-27T08:09:28Z</time>
      </trkpt>
      <trkpt lat="44.33985" lon="5.77377">
        <ele>629.3200684</ele>
        <time>2014-07-27T08:09:32Z</time>
      </trkpt>
      <trkpt lat="44.3399" lon="5.7736">
        <ele>628.3588867</ele>
        <time>2014-07-27T08:09:34Z</time>
      </trkpt>
      <trkpt lat="44.33988" lon="5.77302">
        <ele>627.3977051</ele>
        <time>2014-07-27T08:09:39Z</time>
      </trkpt>
      <trkpt lat="44.33983" lon="5.77279">
        <ele>624.9943848</ele>
        <time>2014-07-27T08:09:41Z</time>
      </trkpt>
      <trkpt lat="44.33982" lon="5.77217">
        <ele>622.1103516</ele>
        <time>2014-07-27T08:09:46Z</time>
      </trkpt>
      <trkpt lat="44.33981" lon="5.77164">
        <ele>618.7456055</ele>
        <time>2014-07-27T08:09:50Z</time>
      </trkpt>
      <trkpt lat="44.33981" lon="5.7715">
        <ele>618.7456055</ele>
        <time>2014-07-27T08:09:51Z</time>
      </trkpt>
      <trkpt lat="44.33982" lon="5.77081">
        <ele>614.4196777</ele>
        <time>2014-07-27T08:09:56Z</time>
      </trkpt>
      <trkpt lat="44.33986" lon="5.77053">
        <ele>612.4970703</ele>
        <time>2014-07-27T08:09:58Z</time>
      </trkpt>
      <trkpt lat="44.3399" lon="5.77025">
        <ele>611.0551758</ele>
        <time>2014-07-27T08:10:00Z</time>
      </trkpt>
      <trkpt lat="44.34001" lon="5.7695">
        <ele>608.6518555</ele>
        <time>2014-07-27T08:10:05Z</time>
      </trkpt>
      <trkpt lat="44.34006" lon="5.76921">
        <ele>606.2485352</ele>
        <time>2014-07-27T08:10:07Z</time>
      </trkpt>
      <trkpt lat="44.34024" lon="5.76807">
        <ele>605.2873535</ele>
        <time>2014-07-27T08:10:16Z</time>
      </trkpt>
      <trkpt lat="44.34017" lon="5.76727">
        <ele>602.8837891</ele>
        <time>2014-07-27T08:10:23Z</time>
      </trkpt>
      <trkpt lat="44.34039" lon="5.7668">
        <ele>600.4807129</ele>
        <time>2014-07-27T08:10:30Z</time>
      </trkpt>
      <trkpt lat="44.34049" lon="5.76673">
        <ele>600.4807129</ele>
        <time>2014-07-27T08:10:32Z</time>
      </trkpt>
      <trkpt lat="44.34061" lon="5.76638">
        <ele>600.4807129</ele>
        <time>2014-07-27T08:10:39Z</time>
      </trkpt>
      <trkpt lat="44.3406" lon="5.76634">
        <ele>600.4807129</ele>
        <time>2014-07-27T08:10:40Z</time>
      </trkpt>
      <trkpt lat="44.34037" lon="5.76573">
        <ele>602.4030762</ele>
        <time>2014-07-27T08:10:55Z</time>
      </trkpt>
      <trkpt lat="44.34048" lon="5.76542">
        <ele>602.8837891</ele>
        <time>2014-07-27T08:11:02Z</time>
      </trkpt>
      <trkpt lat="44.34083" lon="5.76478">
        <ele>602.8837891</ele>
        <time>2014-07-27T08:11:17Z</time>
      </trkpt>
      <trkpt lat="44.34119" lon="5.764">
        <ele>603.364502</ele>
        <time>2014-07-27T08:11:36Z</time>
      </trkpt>
      <trkpt lat="44.34124" lon="5.76388">
        <ele>603.364502</ele>
        <time>2014-07-27T08:11:39Z</time>
      </trkpt>
      <trkpt lat="44.34138" lon="5.76382">
        <ele>603.364502</ele>
        <time>2014-07-27T08:11:43Z</time>
      </trkpt>
      <trkpt lat="44.34141" lon="5.76366">
        <ele>604.3261719</ele>
        <time>2014-07-27T08:11:47Z</time>
      </trkpt>
      <trkpt lat="44.34106" lon="5.76314">
        <ele>604.3261719</ele>
        <time>2014-07-27T08:12:01Z</time>
      </trkpt>
      <trkpt lat="44.34074" lon="5.76245">
        <ele>606.2485352</ele>
        <time>2014-07-27T08:12:18Z</time>
      </trkpt>
      <trkpt lat="44.34043" lon="5.76184">
        <ele>607.2099609</ele>
        <time>2014-07-27T08:12:33Z</time>
      </trkpt>
      <trkpt lat="44.3399" lon="5.7608">
        <ele>608.1713867</ele>
        <time>2014-07-27T08:12:56Z</time>
      </trkpt>
      <trkpt lat="44.33945" lon="5.75987">
        <ele>609.1325684</ele>
        <time>2014-07-27T08:13:16Z</time>
      </trkpt>
      <trkpt lat="44.33886" lon="5.75863">
        <ele>612.0166016</ele>
        <time>2014-07-27T08:13:45Z</time>
      </trkpt>
      <trkpt lat="44.33835" lon="5.75785">
        <ele>613.9389648</ele>
        <time>2014-07-27T08:14:06Z</time>
      </trkpt>
      <trkpt lat="44.33819" lon="5.75767">
        <ele>613.4584961</ele>
        <time>2014-07-27T08:14:11Z</time>
      </trkpt>
      <trkpt lat="44.33765" lon="5.75712">
        <ele>614.4196777</ele>
        <time>2014-07-27T08:14:27Z</time>
      </trkpt>
      <trkpt lat="44.3371" lon="5.75636">
        <ele>614.4196777</ele>
        <time>2014-07-27T08:14:45Z</time>
      </trkpt>
      <trkpt lat="44.33665" lon="5.75523">
        <ele>614.4196777</ele>
        <time>2014-07-27T08:15:04Z</time>
      </trkpt>
      <trkpt lat="44.33658" lon="5.75508">
        <ele>614.4196777</ele>
        <time>2014-07-27T08:15:07Z</time>
      </trkpt>
      <trkpt lat="44.33645" lon="5.75489">
        <ele>614.4196777</ele>
        <time>2014-07-27T08:15:11Z</time>
      </trkpt>
      <trkpt lat="44.33582" lon="5.7544">
        <ele>615.8618164</ele>
        <time>2014-07-27T08:15:27Z</time>
      </trkpt>
      <trkpt lat="44.33557" lon="5.75409">
        <ele>617.7841797</ele>
        <time>2014-07-27T08:15:36Z</time>
      </trkpt>
      <trkpt lat="44.33509" lon="5.75353">
        <ele>620.1877441</ele>
        <time>2014-07-27T08:15:54Z</time>
      </trkpt>
      <trkpt lat="44.33461" lon="5.75298">
        <ele>623.0717773</ele>
        <time>2014-07-27T08:16:13Z</time>
      </trkpt>
      <trkpt lat="44.3339" lon="5.75232">
        <ele>624.5136719</ele>
        <time>2014-07-27T08:16:36Z</time>
      </trkpt>
      <trkpt lat="44.33297" lon="5.75167">
        <ele>623.5524902</ele>
        <time>2014-07-27T08:16:59Z</time>
      </trkpt>
      <trkpt lat="44.33212" lon="5.75107">
        <ele>624.5136719</ele>
        <time>2014-07-27T08:17:20Z</time>
      </trkpt>
      <trkpt lat="44.33158" lon="5.75068">
        <ele>626.9169922</ele>
        <time>2014-07-27T08:17:37Z</time>
      </trkpt>
      <trkpt lat="44.33123" lon="5.75026">
        <ele>628.8395996</ele>
        <time>2014-07-27T08:17:50Z</time>
      </trkpt>
      <trkpt lat="44.3309" lon="5.74946">
        <ele>629.3200684</ele>
        <time>2014-07-27T08:18:07Z</time>
      </trkpt>
      <trkpt lat="44.33064" lon="5.74883">
        <ele>629.8007813</ele>
        <time>2014-07-27T08:18:20Z</time>
      </trkpt>
      <trkpt lat="44.33051" lon="5.7486">
        <ele>629.8007813</ele>
        <time>2014-07-27T08:18:25Z</time>
      </trkpt>
      <trkpt lat="44.32968" lon="5.74769">
        <ele>630.762207</ele>
        <time>2014-07-27T08:18:49Z</time>
      </trkpt>
      <trkpt lat="44.32935" lon="5.74735">
        <ele>630.762207</ele>
        <time>2014-07-27T08:18:58Z</time>
      </trkpt>
      <trkpt lat="44.32866" lon="5.74661">
        <ele>632.2041016</ele>
        <time>2014-07-27T08:19:19Z</time>
      </trkpt>
      <trkpt lat="44.32786" lon="5.74582">
        <ele>632.6848145</ele>
        <time>2014-07-27T08:19:42Z</time>
      </trkpt>
      <trkpt lat="44.32755" lon="5.74564">
        <ele>633.1652832</ele>
        <time>2014-07-27T08:19:49Z</time>
      </trkpt>
      <trkpt lat="44.32682" lon="5.7451">
        <ele>635.5686035</ele>
        <time>2014-07-27T08:20:09Z</time>
      </trkpt>
      <trkpt lat="44.32631" lon="5.74435">
        <ele>637.4914551</ele>
        <time>2014-07-27T08:20:29Z</time>
      </trkpt>
      <trkpt lat="44.32591" lon="5.7438">
        <ele>638.4528809</ele>
        <time>2014-07-27T08:20:44Z</time>
      </trkpt>
      <trkpt lat="44.32531" lon="5.74303">
        <ele>638.9335938</ele>
        <time>2014-07-27T08:21:03Z</time>
      </trkpt>
      <trkpt lat="44.32517" lon="5.74283">
        <ele>638.9335938</ele>
        <time>2014-07-27T08:21:08Z</time>
      </trkpt>
      <trkpt lat="44.32457" lon="5.74202">
        <ele>638.9335938</ele>
        <time>2014-07-27T08:21:28Z</time>
      </trkpt>
      <trkpt lat="44.32403" lon="5.74101">
        <ele>637.0107422</ele>
        <time>2014-07-27T08:21:43Z</time>
      </trkpt>
      <trkpt lat="44.3238" lon="5.7406">
        <ele>636.5302734</ele>
        <time>2014-07-27T08:21:49Z</time>
      </trkpt>
      <trkpt lat="44.32345" lon="5.73987">
        <ele>639.4140625</ele>
        <time>2014-07-27T08:22:03Z</time>
      </trkpt>
      <trkpt lat="44.32323" lon="5.73942">
        <ele>640.855957</ele>
        <time>2014-07-27T08:22:17Z</time>
      </trkpt>
      <trkpt lat="44.32295" lon="5.73877">
        <ele>642.2980957</ele>
        <time>2014-07-27T08:22:35Z</time>
      </trkpt>
      <trkpt lat="44.32267" lon="5.73804">
        <ele>643.2592773</ele>
        <time>2014-07-27T08:22:53Z</time>
      </trkpt>
      <trkpt lat="44.3225" lon="5.73749">
        <ele>644.2207031</ele>
        <time>2014-07-27T08:23:06Z</time>
      </trkpt>
      <trkpt lat="44.32224" lon="5.73675">
        <ele>644.7011719</ele>
        <time>2014-07-27T08:23:23Z</time>
      </trkpt>
      <trkpt lat="44.32191" lon="5.7358">
        <ele>645.1818848</ele>
        <time>2014-07-27T08:23:44Z</time>
      </trkpt>
      <trkpt lat="44.32159" lon="5.73483">
        <ele>647.1044922</ele>
        <time>2014-07-27T08:24:06Z</time>
      </trkpt>
      <trkpt lat="44.32126" lon="5.73394">
        <ele>647.5852051</ele>
        <time>2014-07-27T08:24:25Z</time>
      </trkpt>
      <trkpt lat="44.32099" lon="5.73315">
        <ele>647.5852051</ele>
        <time>2014-07-27T08:24:40Z</time>
      </trkpt>
      <trkpt lat="44.32092" lon="5.73297">
        <ele>646.6240234</ele>
        <time>2014-07-27T08:24:43Z</time>
      </trkpt>
      <trkpt lat="44.32082" lon="5.73268">
        <ele>647.1044922</ele>
        <time>2014-07-27T08:24:48Z</time>
      </trkpt>
      <trkpt lat="44.32071" lon="5.73186">
        <ele>648.065918</ele>
        <time>2014-07-27T08:25:03Z</time>
      </trkpt>
      <trkpt lat="44.32055" lon="5.73075">
        <ele>649.0270996</ele>
        <time>2014-07-27T08:25:25Z</time>
      </trkpt>
      <trkpt lat="44.3204" lon="5.72956">
        <ele>649.5078125</ele>
        <time>2014-07-27T08:25:48Z</time>
      </trkpt>
      <trkpt lat="44.32024" lon="5.72833">
        <ele>650.4692383</ele>
        <time>2014-07-27T08:26:12Z</time>
      </trkpt>
      <trkpt lat="44.32012" lon="5.72748">
        <ele>652.3918457</ele>
        <time>2014-07-27T08:26:30Z</time>
      </trkpt>
      <trkpt lat="44.32" lon="5.72651">
        <ele>654.3146973</ele>
        <time>2014-07-27T08:26:51Z</time>
      </trkpt>
      <trkpt lat="44.31987" lon="5.72562">
        <ele>655.2758789</ele>
        <time>2014-07-27T08:27:09Z</time>
      </trkpt>
      <trkpt lat="44.31964" lon="5.72493">
        <ele>656.2370605</ele>
        <time>2014-07-27T08:27:24Z</time>
      </trkpt>
      <trkpt lat="44.31921" lon="5.72403">
        <ele>656.7177734</ele>
        <time>2014-07-27T08:27:43Z</time>
      </trkpt>
      <trkpt lat="44.31889" lon="5.72324">
        <ele>658.6403809</ele>
        <time>2014-07-27T08:28:01Z</time>
      </trkpt>
      <trkpt lat="44.3187" lon="5.72241">
        <ele>659.6018066</ele>
        <time>2014-07-27T08:28:17Z</time>
      </trkpt>
      <trkpt lat="44.31864" lon="5.72205">
        <ele>659.6018066</ele>
        <time>2014-07-27T08:28:24Z</time>
      </trkpt>
      <trkpt lat="44.31839" lon="5.72115">
        <ele>660.0822754</ele>
        <time>2014-07-27T08:28:41Z</time>
      </trkpt>
      <trkpt lat="44.31815" lon="5.72033">
        <ele>661.0437012</ele>
        <time>2014-07-27T08:28:58Z</time>
      </trkpt>
      <trkpt lat="44.31785" lon="5.71951">
        <ele>661.5244141</ele>
        <time>2014-07-27T08:29:15Z</time>
      </trkpt>
      <trkpt lat="44.31775" lon="5.71917">
        <ele>661.0437012</ele>
        <time>2014-07-27T08:29:21Z</time>
      </trkpt>
      <trkpt lat="44.31771" lon="5.719">
        <ele>661.5244141</ele>
        <time>2014-07-27T08:29:24Z</time>
      </trkpt>
      <trkpt lat="44.31762" lon="5.71809">
        <ele>662.4855957</ele>
        <time>2014-07-27T08:29:41Z</time>
      </trkpt>
      <trkpt lat="44.31759" lon="5.71772">
        <ele>662.9663086</ele>
        <time>2014-07-27T08:29:49Z</time>
      </trkpt>
      <trkpt lat="44.31726" lon="5.71653">
        <ele>663.4470215</ele>
        <time>2014-07-27T08:30:14Z</time>
      </trkpt>
      <trkpt lat="44.3169" lon="5.71582">
        <ele>662.4855957</ele>
        <time>2014-07-27T08:30:28Z</time>
      </trkpt>
      <trkpt lat="44.31647" lon="5.71475">
        <ele>662.4855957</ele>
        <time>2014-07-27T08:30:48Z</time>
      </trkpt>
      <trkpt lat="44.31615" lon="5.71376">
        <ele>663.4470215</ele>
        <time>2014-07-27T08:31:08Z</time>
      </trkpt>
      <trkpt lat="44.31596" lon="5.71307">
        <ele>665.8503418</ele>
        <time>2014-07-27T08:31:24Z</time>
      </trkpt>
      <trkpt lat="44.31595" lon="5.71294">
        <ele>665.8503418</ele>
        <time>2014-07-27T08:31:27Z</time>
      </trkpt>
      <trkpt lat="44.31584" lon="5.71234">
        <ele>667.2922363</ele>
        <time>2014-07-27T08:31:40Z</time>
      </trkpt>
      <trkpt lat="44.31569" lon="5.7116">
        <ele>667.2922363</ele>
        <time>2014-07-27T08:31:54Z</time>
      </trkpt>
      <trkpt lat="44.31551" lon="5.71093">
        <ele>669.6958008</ele>
        <time>2014-07-27T08:32:09Z</time>
      </trkpt>
      <trkpt lat="44.31536" lon="5.71026">
        <ele>671.1376953</ele>
        <time>2014-07-27T08:32:24Z</time>
      </trkpt>
      <trkpt lat="44.31543" lon="5.70936">
        <ele>671.6181641</ele>
        <time>2014-07-27T08:32:40Z</time>
      </trkpt>
      <trkpt lat="44.31557" lon="5.70866">
        <ele>672.5795898</ele>
        <time>2014-07-27T08:32:54Z</time>
      </trkpt>
      <trkpt lat="44.31566" lon="5.70795">
        <ele>674.0214844</ele>
        <time>2014-07-27T08:33:08Z</time>
      </trkpt>
      <trkpt lat="44.31565" lon="5.70742">
        <ele>675.4633789</ele>
        <time>2014-07-27T08:33:19Z</time>
      </trkpt>
      <trkpt lat="44.31559" lon="5.70689">
        <ele>677.8666992</ele>
        <time>2014-07-27T08:33:32Z</time>
      </trkpt>
      <trkpt lat="44.31543" lon="5.7063">
        <ele>679.3085938</ele>
        <time>2014-07-27T08:33:47Z</time>
      </trkpt>
      <trkpt lat="44.31522" lon="5.70588">
        <ele>681.2314453</ele>
        <time>2014-07-27T08:33:59Z</time>
      </trkpt>
      <trkpt lat="44.31499" lon="5.70526">
        <ele>682.6733398</ele>
        <time>2014-07-27T08:34:14Z</time>
      </trkpt>
      <trkpt lat="44.31487" lon="5.70456">
        <ele>683.1538086</ele>
        <time>2014-07-27T08:34:29Z</time>
      </trkpt>
      <trkpt lat="44.3146" lon="5.70388">
        <ele>684.1154785</ele>
        <time>2014-07-27T08:34:44Z</time>
      </trkpt>
      <trkpt lat="44.31436" lon="5.7033">
        <ele>685.557373</ele>
        <time>2014-07-27T08:34:58Z</time>
      </trkpt>
      <trkpt lat="44.3143" lon="5.70279">
        <ele>686.9992676</ele>
        <time>2014-07-27T08:35:09Z</time>
      </trkpt>
      <trkpt lat="44.31423" lon="5.70212">
        <ele>688.9221191</ele>
        <time>2014-07-27T08:35:24Z</time>
      </trkpt>
      <trkpt lat="44.31413" lon="5.70164">
        <ele>690.3640137</ele>
        <time>2014-07-27T08:35:36Z</time>
      </trkpt>
      <trkpt lat="44.31395" lon="5.70112">
        <ele>691.8059082</ele>
        <time>2014-07-27T08:35:50Z</time>
      </trkpt>
      <trkpt lat="44.31375" lon="5.70045">
        <ele>693.2478027</ele>
        <time>2014-07-27T08:36:06Z</time>
      </trkpt>
      <trkpt lat="44.31364" lon="5.69973">
        <ele>691.8059082</ele>
        <time>2014-07-27T08:36:19Z</time>
      </trkpt>
      <trkpt lat="44.31355" lon="5.69933">
        <ele>691.8059082</ele>
        <time>2014-07-27T08:36:25Z</time>
      </trkpt>
      <trkpt lat="44.31327" lon="5.69816">
        <ele>690.8444824</ele>
        <time>2014-07-27T08:36:42Z</time>
      </trkpt>
      <trkpt lat="44.31326" lon="5.69794">
        <ele>690.8444824</ele>
        <time>2014-07-27T08:36:45Z</time>
      </trkpt>
      <trkpt lat="44.31328" lon="5.69765">
        <ele>690.8444824</ele>
        <time>2014-07-27T08:36:49Z</time>
      </trkpt>
      <trkpt lat="44.31329" lon="5.69642">
        <ele>690.8444824</ele>
        <time>2014-07-27T08:37:07Z</time>
      </trkpt>
      <trkpt lat="44.31332" lon="5.69617">
        <ele>691.3251953</ele>
        <time>2014-07-27T08:37:11Z</time>
      </trkpt>
      <trkpt lat="44.31333" lon="5.69588">
        <ele>691.8059082</ele>
        <time>2014-07-27T08:37:16Z</time>
      </trkpt>
      <trkpt lat="44.3134" lon="5.69525">
        <ele>691.3251953</ele>
        <time>2014-07-27T08:37:26Z</time>
      </trkpt>
      <trkpt lat="44.31353" lon="5.69472">
        <ele>690.3640137</ele>
        <time>2014-07-27T08:37:36Z</time>
      </trkpt>
      <trkpt lat="44.31355" lon="5.6942">
        <ele>689.8833008</ele>
        <time>2014-07-27T08:37:45Z</time>
      </trkpt>
      <trkpt lat="44.31356" lon="5.69401">
        <ele>689.4025879</ele>
        <time>2014-07-27T08:37:48Z</time>
      </trkpt>
      <trkpt lat="44.31351" lon="5.69322">
        <ele>688.9221191</ele>
        <time>2014-07-27T08:38:02Z</time>
      </trkpt>
      <trkpt lat="44.31353" lon="5.69279">
        <ele>688.4414063</ele>
        <time>2014-07-27T08:38:12Z</time>
      </trkpt>
      <trkpt lat="44.31357" lon="5.69278">
        <ele>688.4414063</ele>
        <time>2014-07-27T08:38:15Z</time>
      </trkpt>
      <trkpt lat="44.31363" lon="5.69278">
        <ele>689.4025879</ele>
        <time>2014-07-27T08:38:31Z</time>
      </trkpt>
      <trkpt lat="44.31358" lon="5.69284">
        <ele>690.3640137</ele>
        <time>2014-07-27T08:38:59Z</time>
      </trkpt>
      <trkpt lat="44.31349" lon="5.69283">
        <ele>689.8833008</ele>
        <time>2014-07-27T08:39:33Z</time>
      </trkpt>
      <trkpt lat="44.31358" lon="5.6927">
        <ele>689.8833008</ele>
        <time>2014-07-27T08:40:09Z</time>
      </trkpt>
      <trkpt lat="44.31357" lon="5.69275">
        <ele>689.8833008</ele>
        <time>2014-07-27T08:40:47Z</time>
      </trkpt>
      <trkpt lat="44.31351" lon="5.69276">
        <ele>689.8833008</ele>
        <time>2014-07-27T08:41:26Z</time>
      </trkpt>
      <trkpt lat="44.31344" lon="5.69268">
        <ele>688.9221191</ele>
        <time>2014-07-27T08:41:32Z</time>
      </trkpt>
      <trkpt lat="44.31335" lon="5.69252">
        <ele>688.4414063</ele>
        <time>2014-07-27T08:41:36Z</time>
      </trkpt>
      <trkpt lat="44.31302" lon="5.69216">
        <ele>686.9992676</ele>
        <time>2014-07-27T08:41:44Z</time>
      </trkpt>
      <trkpt lat="44.31296" lon="5.69181">
        <ele>686.9992676</ele>
        <time>2014-07-27T08:41:48Z</time>
      </trkpt>
      <trkpt lat="44.31286" lon="5.69163">
        <ele>686.9992676</ele>
        <time>2014-07-27T08:41:51Z</time>
      </trkpt>
      <trkpt lat="44.31278" lon="5.69083">
        <ele>687.4799805</ele>
        <time>2014-07-27T08:42:06Z</time>
      </trkpt>
      <trkpt lat="44.31284" lon="5.69019">
        <ele>688.9221191</ele>
        <time>2014-07-27T08:42:19Z</time>
      </trkpt>
      <trkpt lat="44.313" lon="5.68985">
        <ele>688.9221191</ele>
        <time>2014-07-27T08:42:31Z</time>
      </trkpt>
      <trkpt lat="44.31331" lon="5.68934">
        <ele>689.8833008</ele>
        <time>2014-07-27T08:42:41Z</time>
      </trkpt>
      <trkpt lat="44.31351" lon="5.68882">
        <ele>689.8833008</ele>
        <time>2014-07-27T08:42:51Z</time>
      </trkpt>
      <trkpt lat="44.31406" lon="5.68843">
        <ele>691.3251953</ele>
        <time>2014-07-27T08:43:04Z</time>
      </trkpt>
      <trkpt lat="44.31426" lon="5.68825">
        <ele>691.8059082</ele>
        <time>2014-07-27T08:43:10Z</time>
      </trkpt>
      <trkpt lat="44.3146" lon="5.68802">
        <ele>693.2478027</ele>
        <time>2014-07-27T08:43:25Z</time>
      </trkpt>
      <trkpt lat="44.3148" lon="5.68731">
        <ele>694.6896973</ele>
        <time>2014-07-27T08:43:40Z</time>
      </trkpt>
      <trkpt lat="44.31483" lon="5.68639">
        <ele>696.1318359</ele>
        <time>2014-07-27T08:43:57Z</time>
      </trkpt>
      <trkpt lat="44.31483" lon="5.6858">
        <ele>696.6125488</ele>
        <time>2014-07-27T08:44:09Z</time>
      </trkpt>
      <trkpt lat="44.31483" lon="5.68574">
        <ele>696.6125488</ele>
        <time>2014-07-27T08:44:10Z</time>
      </trkpt>
      <trkpt lat="44.31489" lon="5.68513">
        <ele>697.0930176</ele>
        <time>2014-07-27T08:44:21Z</time>
      </trkpt>
      <trkpt lat="44.31472" lon="5.68437">
        <ele>698.0544434</ele>
        <time>2014-07-27T08:44:36Z</time>
      </trkpt>
      <trkpt lat="44.31436" lon="5.68363">
        <ele>699.4963379</ele>
        <time>2014-07-27T08:44:55Z</time>
      </trkpt>
      <trkpt lat="44.31411" lon="5.68309">
        <ele>699.9770508</ele>
        <time>2014-07-27T08:45:06Z</time>
      </trkpt>
      <trkpt lat="44.31403" lon="5.68272">
        <ele>700.4580078</ele>
        <time>2014-07-27T08:45:13Z</time>
      </trkpt>
      <trkpt lat="44.31399" lon="5.68256">
        <ele>700.4580078</ele>
        <time>2014-07-27T08:45:16Z</time>
      </trkpt>
      <trkpt lat="44.31403" lon="5.68142">
        <ele>702.3803711</ele>
        <time>2014-07-27T08:45:36Z</time>
      </trkpt>
      <trkpt lat="44.31408" lon="5.6805">
        <ele>700.9384766</ele>
        <time>2014-07-27T08:45:50Z</time>
      </trkpt>
      <trkpt lat="44.31409" lon="5.67915">
        <ele>700.9384766</ele>
        <time>2014-07-27T08:46:10Z</time>
      </trkpt>
      <trkpt lat="44.31406" lon="5.67802">
        <ele>701.4191895</ele>
        <time>2014-07-27T08:46:29Z</time>
      </trkpt>
      <trkpt lat="44.31404" lon="5.67742">
        <ele>702.861084</ele>
        <time>2014-07-27T08:46:40Z</time>
      </trkpt>
      <trkpt lat="44.3139" lon="5.67597">
        <ele>702.861084</ele>
        <time>2014-07-27T08:47:02Z</time>
      </trkpt>
      <trkpt lat="44.31368" lon="5.67496">
        <ele>704.7836914</ele>
        <time>2014-07-27T08:47:20Z</time>
      </trkpt>
      <trkpt lat="44.31335" lon="5.67422">
        <ele>706.7062988</ele>
        <time>2014-07-27T08:47:37Z</time>
      </trkpt>
      <trkpt lat="44.3129" lon="5.67348">
        <ele>708.1484375</ele>
        <time>2014-07-27T08:47:54Z</time>
      </trkpt>
      <trkpt lat="44.31223" lon="5.67254">
        <ele>710.0708008</ele>
        <time>2014-07-27T08:48:16Z</time>
      </trkpt>
      <trkpt lat="44.3116" lon="5.67191">
        <ele>711.9936523</ele>
        <time>2014-07-27T08:48:35Z</time>
      </trkpt>
      <trkpt lat="44.31114" lon="5.67163">
        <ele>712.4741211</ele>
        <time>2014-07-27T08:48:46Z</time>
      </trkpt>
      <trkpt lat="44.31067" lon="5.67129">
        <ele>712.4741211</ele>
        <time>2014-07-27T08:48:58Z</time>
      </trkpt>
      <trkpt lat="44.31034" lon="5.67098">
        <ele>712.4741211</ele>
        <time>2014-07-27T08:49:07Z</time>
      </trkpt>
      <trkpt lat="44.31003" lon="5.67061">
        <ele>712.954834</ele>
        <time>2014-07-27T08:49:16Z</time>
      </trkpt>
      <trkpt lat="44.30984" lon="5.67034">
        <ele>713.4355469</ele>
        <time>2014-07-27T08:49:22Z</time>
      </trkpt>
      <trkpt lat="44.30934" lon="5.66936">
        <ele>715.3581543</ele>
        <time>2014-07-27T08:49:42Z</time>
      </trkpt>
      <trkpt lat="44.30881" lon="5.66859">
        <ele>717.7614746</ele>
        <time>2014-07-27T08:50:02Z</time>
      </trkpt>
      <trkpt lat="44.30825" lon="5.66799">
        <ele>719.2036133</ele>
        <time>2014-07-27T08:50:20Z</time>
      </trkpt>
      <trkpt lat="44.30812" lon="5.66784">
        <ele>719.2036133</ele>
        <time>2014-07-27T08:50:24Z</time>
      </trkpt>
      <trkpt lat="44.30773" lon="5.66744">
        <ele>719.2036133</ele>
        <time>2014-07-27T08:50:35Z</time>
      </trkpt>
      <trkpt lat="44.30764" lon="5.66737">
        <ele>719.2036133</ele>
        <time>2014-07-27T08:50:37Z</time>
      </trkpt>
      <trkpt lat="44.30691" lon="5.66703">
        <ele>718.7229004</ele>
        <time>2014-07-27T08:50:53Z</time>
      </trkpt>
      <trkpt lat="44.30676" lon="5.66689">
        <ele>718.7229004</ele>
        <time>2014-07-27T08:50:57Z</time>
      </trkpt>
      <trkpt lat="44.30617" lon="5.66612">
        <ele>718.7229004</ele>
        <time>2014-07-27T08:51:15Z</time>
      </trkpt>
      <trkpt lat="44.30564" lon="5.6656">
        <ele>720.6455078</ele>
        <time>2014-07-27T08:51:31Z</time>
      </trkpt>
      <trkpt lat="44.30552" lon="5.66551">
        <ele>720.1647949</ele>
        <time>2014-07-27T08:51:34Z</time>
      </trkpt>
      <trkpt lat="44.30529" lon="5.66544">
        <ele>720.1647949</ele>
        <time>2014-07-27T08:51:39Z</time>
      </trkpt>
      <trkpt lat="44.30458" lon="5.66555">
        <ele>720.1647949</ele>
        <time>2014-07-27T08:51:55Z</time>
      </trkpt>
      <trkpt lat="44.30454" lon="5.66556">
        <ele>720.1647949</ele>
        <time>2014-07-27T08:51:56Z</time>
      </trkpt>
      <trkpt lat="44.30394" lon="5.66539">
        <ele>721.1262207</ele>
        <time>2014-07-27T08:52:12Z</time>
      </trkpt>
      <trkpt lat="44.30336" lon="5.66501">
        <ele>723.529541</ele>
        <time>2014-07-27T08:52:31Z</time>
      </trkpt>
      <trkpt lat="44.30309" lon="5.66439">
        <ele>724.9714355</ele>
        <time>2014-07-27T08:52:45Z</time>
      </trkpt>
      <trkpt lat="44.30289" lon="5.66354">
        <ele>727.3747559</ele>
        <time>2014-07-27T08:53:04Z</time>
      </trkpt>
      <trkpt lat="44.30278" lon="5.66289">
        <ele>729.777832</ele>
        <time>2014-07-27T08:53:19Z</time>
      </trkpt>
      <trkpt lat="44.3027" lon="5.66265">
        <ele>730.7392578</ele>
        <time>2014-07-27T08:53:26Z</time>
      </trkpt>
      <trkpt lat="44.30268" lon="5.66259">
        <ele>731.2199707</ele>
        <time>2014-07-27T08:53:28Z</time>
      </trkpt>
      <trkpt lat="44.30242" lon="5.6621">
        <ele>732.6621094</ele>
        <time>2014-07-27T08:53:42Z</time>
      </trkpt>
      <trkpt lat="44.30212" lon="5.66157">
        <ele>734.1040039</ele>
        <time>2014-07-27T08:53:58Z</time>
      </trkpt>
      <trkpt lat="44.30191" lon="5.66117">
        <ele>735.0654297</ele>
        <time>2014-07-27T08:54:09Z</time>
      </trkpt>
      <trkpt lat="44.30169" lon="5.66046">
        <ele>736.0266113</ele>
        <time>2014-07-27T08:54:25Z</time>
      </trkpt>
      <trkpt lat="44.30153" lon="5.6597">
        <ele>737.4685059</ele>
        <time>2014-07-27T08:54:41Z</time>
      </trkpt>
      <trkpt lat="44.30124" lon="5.65915">
        <ele>738.9106445</ele>
        <time>2014-07-27T08:54:55Z</time>
      </trkpt>
      <trkpt lat="44.3009" lon="5.65833">
        <ele>740.8330078</ele>
        <time>2014-07-27T08:55:15Z</time>
      </trkpt>
      <trkpt lat="44.30069" lon="5.6577">
        <ele>741.7944336</ele>
        <time>2014-07-27T08:55:27Z</time>
      </trkpt>
      <trkpt lat="44.30053" lon="5.65711">
        <ele>743.2363281</ele>
        <time>2014-07-27T08:55:38Z</time>
      </trkpt>
      <trkpt lat="44.30045" lon="5.6568">
        <ele>744.1977539</ele>
        <time>2014-07-27T08:55:44Z</time>
      </trkpt>
      <trkpt lat="44.30021" lon="5.65608">
        <ele>745.1589355</ele>
        <time>2014-07-27T08:55:58Z</time>
      </trkpt>
      <trkpt lat="44.3002" lon="5.65603">
        <ele>745.6396484</ele>
        <time>2014-07-27T08:55:59Z</time>
      </trkpt>
      <trkpt lat="44.29991" lon="5.65537">
        <ele>747.081543</ele>
        <time>2014-07-27T08:56:13Z</time>
      </trkpt>
      <trkpt lat="44.2996" lon="5.65459">
        <ele>749.0043945</ele>
        <time>2014-07-27T08:56:30Z</time>
      </trkpt>
      <trkpt lat="44.29936" lon="5.65389">
        <ele>749.4851074</ele>
        <time>2014-07-27T08:56:44Z</time>
      </trkpt>
      <trkpt lat="44.29912" lon="5.65337">
        <ele>750.927002</ele>
        <time>2014-07-27T08:56:56Z</time>
      </trkpt>
      <trkpt lat="44.29903" lon="5.65314">
        <ele>750.927002</ele>
        <time>2014-07-27T08:57:01Z</time>
      </trkpt>
      <trkpt lat="44.29882" lon="5.65263">
        <ele>752.3688965</ele>
        <time>2014-07-27T08:57:13Z</time>
      </trkpt>
      <trkpt lat="44.2985" lon="5.65194">
        <ele>753.8110352</ele>
        <time>2014-07-27T08:57:30Z</time>
      </trkpt>
      <trkpt lat="44.29819" lon="5.65124">
        <ele>755.2529297</ele>
        <time>2014-07-27T08:57:47Z</time>
      </trkpt>
      <trkpt lat="44.29789" lon="5.65052">
        <ele>755.2529297</ele>
        <time>2014-07-27T08:58:03Z</time>
      </trkpt>
      <trkpt lat="44.29743" lon="5.64952">
        <ele>756.2141113</ele>
        <time>2014-07-27T08:58:25Z</time>
      </trkpt>
      <trkpt lat="44.29707" lon="5.64862">
        <ele>757.1755371</ele>
        <time>2014-07-27T08:58:45Z</time>
      </trkpt>
      <trkpt lat="44.29686" lon="5.64794">
        <ele>757.65625</ele>
        <time>2014-07-27T08:59:00Z</time>
      </trkpt>
      <trkpt lat="44.29681" lon="5.64736">
        <ele>757.65625</ele>
        <time>2014-07-27T08:59:12Z</time>
      </trkpt>
      <trkpt lat="44.29681" lon="5.64724">
        <ele>757.65625</ele>
        <time>2014-07-27T08:59:14Z</time>
      </trkpt>
      <trkpt lat="44.29682" lon="5.64698">
        <ele>756.6948242</ele>
        <time>2014-07-27T08:59:18Z</time>
      </trkpt>
      <trkpt lat="44.29674" lon="5.64674">
        <ele>756.6948242</ele>
        <time>2014-07-27T08:59:22Z</time>
      </trkpt>
      <trkpt lat="44.29641" lon="5.64637">
        <ele>757.1755371</ele>
        <time>2014-07-27T08:59:33Z</time>
      </trkpt>
      <trkpt lat="44.29625" lon="5.64604">
        <ele>758.1369629</ele>
        <time>2014-07-27T08:59:41Z</time>
      </trkpt>
      <trkpt lat="44.29605" lon="5.64509">
        <ele>759.0981445</ele>
        <time>2014-07-27T08:59:59Z</time>
      </trkpt>
      <trkpt lat="44.29596" lon="5.64469">
        <ele>759.5788574</ele>
        <time>2014-07-27T09:00:07Z</time>
      </trkpt>
      <trkpt lat="44.29591" lon="5.64452">
        <ele>759.5788574</ele>
        <time>2014-07-27T09:00:10Z</time>
      </trkpt>
      <trkpt lat="44.29562" lon="5.64372">
        <ele>760.5400391</ele>
        <time>2014-07-27T09:00:25Z</time>
      </trkpt>
      <trkpt lat="44.29552" lon="5.6435">
        <ele>760.0593262</ele>
        <time>2014-07-27T09:00:29Z</time>
      </trkpt>
      <trkpt lat="44.2951" lon="5.64261">
        <ele>759.5788574</ele>
        <time>2014-07-27T09:00:45Z</time>
      </trkpt>
      <trkpt lat="44.29485" lon="5.6422">
        <ele>758.6174316</ele>
        <time>2014-07-27T09:00:52Z</time>
      </trkpt>
      <trkpt lat="44.29474" lon="5.64202">
        <ele>758.6174316</ele>
        <time>2014-07-27T09:00:55Z</time>
      </trkpt>
      <trkpt lat="44.29464" lon="5.64182">
        <ele>758.1369629</ele>
        <time>2014-07-27T09:00:58Z</time>
      </trkpt>
      <trkpt lat="44.29458" lon="5.64152">
        <ele>758.1369629</ele>
        <time>2014-07-27T09:01:02Z</time>
      </trkpt>
      <trkpt lat="44.29449" lon="5.64071">
        <ele>757.1755371</ele>
        <time>2014-07-27T09:01:12Z</time>
      </trkpt>
      <trkpt lat="44.2944" lon="5.64038">
        <ele>757.1755371</ele>
        <time>2014-07-27T09:01:16Z</time>
      </trkpt>
      <trkpt lat="44.29413" lon="5.63975">
        <ele>757.1755371</ele>
        <time>2014-07-27T09:01:25Z</time>
      </trkpt>
      <trkpt lat="44.29359" lon="5.63911">
        <ele>757.65625</ele>
        <time>2014-07-27T09:01:37Z</time>
      </trkpt>
      <trkpt lat="44.29348" lon="5.63896">
        <ele>758.1369629</ele>
        <time>2014-07-27T09:01:40Z</time>
      </trkpt>
      <trkpt lat="44.29312" lon="5.63836">
        <ele>758.1369629</ele>
        <time>2014-07-27T09:01:51Z</time>
      </trkpt>
      <trkpt lat="44.29296" lon="5.63812">
        <ele>757.65625</ele>
        <time>2014-07-27T09:01:56Z</time>
      </trkpt>
      <trkpt lat="44.29281" lon="5.63782">
        <ele>758.1369629</ele>
        <time>2014-07-27T09:02:02Z</time>
      </trkpt>
      <trkpt lat="44.29278" lon="5.63717">
        <ele>757.65625</ele>
        <time>2014-07-27T09:02:13Z</time>
      </trkpt>
      <trkpt lat="44.29278" lon="5.63676">
        <ele>758.1369629</ele>
        <time>2014-07-27T09:02:20Z</time>
      </trkpt>
      <trkpt lat="44.29269" lon="5.63621">
        <ele>758.6174316</ele>
        <time>2014-07-27T09:02:30Z</time>
      </trkpt>
      <trkpt lat="44.29252" lon="5.63595">
        <ele>758.6174316</ele>
        <time>2014-07-27T09:02:36Z</time>
      </trkpt>
      <trkpt lat="44.29224" lon="5.6356">
        <ele>759.5788574</ele>
        <time>2014-07-27T09:02:45Z</time>
      </trkpt>
      <trkpt lat="44.2918" lon="5.63471">
        <ele>760.5400391</ele>
        <time>2014-07-27T09:03:04Z</time>
      </trkpt>
      <trkpt lat="44.29161" lon="5.63405">
        <ele>761.5014648</ele>
        <time>2014-07-27T09:03:17Z</time>
      </trkpt>
      <trkpt lat="44.29147" lon="5.63323">
        <ele>762.4626465</ele>
        <time>2014-07-27T09:03:33Z</time>
      </trkpt>
      <trkpt lat="44.29144" lon="5.63264">
        <ele>763.4240723</ele>
        <time>2014-07-27T09:03:44Z</time>
      </trkpt>
      <trkpt lat="44.29157" lon="5.63174">
        <ele>764.385498</ele>
        <time>2014-07-27T09:04:00Z</time>
      </trkpt>
      <trkpt lat="44.2916" lon="5.63149">
        <ele>764.8662109</ele>
        <time>2014-07-27T09:04:05Z</time>
      </trkpt>
      <trkpt lat="44.29156" lon="5.63072">
        <ele>766.7888184</ele>
        <time>2014-07-27T09:04:19Z</time>
      </trkpt>
      <trkpt lat="44.29149" lon="5.62978">
        <ele>769.1921387</ele>
        <time>2014-07-27T09:04:38Z</time>
      </trkpt>
      <trkpt lat="44.2915" lon="5.6296">
        <ele>770.1533203</ele>
        <time>2014-07-27T09:04:49Z</time>
      </trkpt>
      <trkpt lat="44.29149" lon="5.62957">
        <ele>770.6340332</ele>
        <time>2014-07-27T09:05:07Z</time>
      </trkpt>
      <trkpt lat="44.29149" lon="5.62956">
        <ele>770.6340332</ele>
        <time>2014-07-27T09:05:45Z</time>
      </trkpt>
      <trkpt lat="44.29143" lon="5.62918">
        <ele>770.6340332</ele>
        <time>2014-07-27T09:05:56Z</time>
      </trkpt>
      <trkpt lat="44.29126" lon="5.6285">
        <ele>772.0759277</ele>
        <time>2014-07-27T09:06:10Z</time>
      </trkpt>
      <trkpt lat="44.29102" lon="5.62806">
        <ele>774.479248</ele>
        <time>2014-07-27T09:06:22Z</time>
      </trkpt>
      <trkpt lat="44.29066" lon="5.62749">
        <ele>774.479248</ele>
        <time>2014-07-27T09:06:38Z</time>
      </trkpt>
      <trkpt lat="44.29025" lon="5.62653">
        <ele>775.4404297</ele>
        <time>2014-07-27T09:06:58Z</time>
      </trkpt>
      <trkpt lat="44.28987" lon="5.62562">
        <ele>775.9211426</ele>
        <time>2014-07-27T09:07:17Z</time>
      </trkpt>
      <trkpt lat="44.28964" lon="5.62453">
        <ele>777.3632813</ele>
        <time>2014-07-27T09:07:38Z</time>
      </trkpt>
      <trkpt lat="44.28941" lon="5.62352">
        <ele>778.3244629</ele>
        <time>2014-07-27T09:07:57Z</time>
      </trkpt>
      <trkpt lat="44.28911" lon="5.62231">
        <ele>780.2473145</ele>
        <time>2014-07-27T09:08:21Z</time>
      </trkpt>
      <trkpt lat="44.28895" lon="5.62125">
        <ele>782.1699219</ele>
        <time>2014-07-27T09:08:41Z</time>
      </trkpt>
      <trkpt lat="44.28902" lon="5.62039">
        <ele>784.5732422</ele>
        <time>2014-07-27T09:08:59Z</time>
      </trkpt>
      <trkpt lat="44.28926" lon="5.6198">
        <ele>785.5344238</ele>
        <time>2014-07-27T09:09:13Z</time>
      </trkpt>
      <trkpt lat="44.28967" lon="5.61926">
        <ele>786.0151367</ele>
        <time>2014-07-27T09:09:28Z</time>
      </trkpt>
      <trkpt lat="44.29025" lon="5.61881">
        <ele>787.4570313</ele>
        <time>2014-07-27T09:09:45Z</time>
      </trkpt>
      <trkpt lat="44.29079" lon="5.61846">
        <ele>788.418457</ele>
        <time>2014-07-27T09:10:01Z</time>
      </trkpt>
      <trkpt lat="44.29128" lon="5.61809">
        <ele>789.8603516</ele>
        <time>2014-07-27T09:10:17Z</time>
      </trkpt>
      <trkpt lat="44.29131" lon="5.61807">
        <ele>789.8603516</ele>
        <time>2014-07-27T09:10:18Z</time>
      </trkpt>
      <trkpt lat="44.29194" lon="5.6176">
        <ele>791.3022461</ele>
        <time>2014-07-27T09:10:38Z</time>
      </trkpt>
      <trkpt lat="44.29222" lon="5.61704">
        <ele>792.7443848</ele>
        <time>2014-07-27T09:10:52Z</time>
      </trkpt>
      <trkpt lat="44.29248" lon="5.61608">
        <ele>793.2248535</ele>
        <time>2014-07-27T09:11:11Z</time>
      </trkpt>
      <trkpt lat="44.29269" lon="5.61499">
        <ele>795.1474609</ele>
        <time>2014-07-27T09:11:30Z</time>
      </trkpt>
      <trkpt lat="44.29271" lon="5.61457">
        <ele>795.1474609</ele>
        <time>2014-07-27T09:11:37Z</time>
      </trkpt>
      <trkpt lat="44.29271" lon="5.61349">
        <ele>797.0703125</ele>
        <time>2014-07-27T09:11:57Z</time>
      </trkpt>
      <trkpt lat="44.29271" lon="5.61267">
        <ele>797.5510254</ele>
        <time>2014-07-27T09:12:12Z</time>
      </trkpt>
      <trkpt lat="44.29265" lon="5.61133">
        <ele>798.512207</ele>
        <time>2014-07-27T09:12:35Z</time>
      </trkpt>
      <trkpt lat="44.29247" lon="5.61004">
        <ele>798.9929199</ele>
        <time>2014-07-27T09:12:57Z</time>
      </trkpt>
      <trkpt lat="44.29239" lon="5.60922">
        <ele>799.9543457</ele>
        <time>2014-07-27T09:13:12Z</time>
      </trkpt>
      <trkpt lat="44.2922" lon="5.60794">
        <ele>802.3574219</ele>
        <time>2014-07-27T09:13:36Z</time>
      </trkpt>
      <trkpt lat="44.29216" lon="5.60708">
        <ele>804.7607422</ele>
        <time>2014-07-27T09:13:54Z</time>
      </trkpt>
      <trkpt lat="44.29225" lon="5.6064">
        <ele>807.6447754</ele>
        <time>2014-07-27T09:14:11Z</time>
      </trkpt>
      <trkpt lat="44.29236" lon="5.60577">
        <ele>809.5673828</ele>
        <time>2014-07-27T09:14:27Z</time>
      </trkpt>
      <trkpt lat="44.29251" lon="5.60512">
        <ele>810.0478516</ele>
        <time>2014-07-27T09:14:43Z</time>
      </trkpt>
      <trkpt lat="44.2925" lon="5.60436">
        <ele>811.0092773</ele>
        <time>2014-07-27T09:14:58Z</time>
      </trkpt>
      <trkpt lat="44.29235" lon="5.60375">
        <ele>812.451416</ele>
        <time>2014-07-27T09:15:12Z</time>
      </trkpt>
      <trkpt lat="44.29222" lon="5.60323">
        <ele>813.8933105</ele>
        <time>2014-07-27T09:15:24Z</time>
      </trkpt>
      <trkpt lat="44.29202" lon="5.60246">
        <ele>814.8547363</ele>
        <time>2014-07-27T09:15:41Z</time>
      </trkpt>
      <trkpt lat="44.29173" lon="5.60183">
        <ele>815.8161621</ele>
        <time>2014-07-27T09:15:56Z</time>
      </trkpt>
      <trkpt lat="44.29135" lon="5.60113">
        <ele>817.2580566</ele>
        <time>2014-07-27T09:16:14Z</time>
      </trkpt>
      <trkpt lat="44.29115" lon="5.60052">
        <ele>818.6999512</ele>
        <time>2014-07-27T09:16:29Z</time>
      </trkpt>
      <trkpt lat="44.29124" lon="5.59983">
        <ele>821.1032715</ele>
        <time>2014-07-27T09:16:45Z</time>
      </trkpt>
      <trkpt lat="44.29127" lon="5.59914">
        <ele>823.0258789</ele>
        <time>2014-07-27T09:17:00Z</time>
      </trkpt>
      <trkpt lat="44.29137" lon="5.59853">
        <ele>825.909668</ele>
        <time>2014-07-27T09:17:16Z</time>
      </trkpt>
      <trkpt lat="44.29155" lon="5.59813">
        <ele>827.3518066</ele>
        <time>2014-07-27T09:17:29Z</time>
      </trkpt>
      <trkpt lat="44.29167" lon="5.59801">
        <ele>827.8322754</ele>
        <time>2014-07-27T09:17:35Z</time>
      </trkpt>
      <trkpt lat="44.29192" lon="5.59779">
        <ele>829.755127</ele>
        <time>2014-07-27T09:17:47Z</time>
      </trkpt>
      <trkpt lat="44.2922" lon="5.59736">
        <ele>830.2358398</ele>
        <time>2014-07-27T09:18:00Z</time>
      </trkpt>
      <trkpt lat="44.29222" lon="5.59731">
        <ele>830.2358398</ele>
        <time>2014-07-27T09:18:01Z</time>
      </trkpt>
      <trkpt lat="44.29239" lon="5.59704">
        <ele>830.7165527</ele>
        <time>2014-07-27T09:18:07Z</time>
      </trkpt>
      <trkpt lat="44.29251" lon="5.59686">
        <ele>829.755127</ele>
        <time>2014-07-27T09:18:11Z</time>
      </trkpt>
      <trkpt lat="44.29266" lon="5.59655">
        <ele>829.2744141</ele>
        <time>2014-07-27T09:18:17Z</time>
      </trkpt>
      <trkpt lat="44.2927" lon="5.59601">
        <ele>830.7165527</ele>
        <time>2014-07-27T09:18:30Z</time>
      </trkpt>
      <trkpt lat="44.29242" lon="5.59586">
        <ele>831.6777344</ele>
        <time>2014-07-27T09:18:41Z</time>
      </trkpt>
      <trkpt lat="44.29231" lon="5.59588">
        <ele>831.1972656</ele>
        <time>2014-07-27T09:18:45Z</time>
      </trkpt>
      <trkpt lat="44.29201" lon="5.59568">
        <ele>830.2358398</ele>
        <time>2014-07-27T09:18:52Z</time>
      </trkpt>
      <trkpt lat="44.29182" lon="5.59565">
        <ele>829.755127</ele>
        <time>2014-07-27T09:18:56Z</time>
      </trkpt>
      <trkpt lat="44.29158" lon="5.59567">
        <ele>828.3132324</ele>
        <time>2014-07-27T09:19:06Z</time>
      </trkpt>
      <trkpt lat="44.29158" lon="5.59567">
        <ele>827.3518066</ele>
        <time>2014-07-27T09:19:15Z</time>
      </trkpt>
      <trkpt lat="44.29163" lon="5.59568">
        <ele>828.7939453</ele>
        <time>2014-07-27T09:19:45Z</time>
      </trkpt>
      <trkpt lat="44.29158" lon="5.59574">
        <ele>827.3518066</ele>
        <time>2014-07-27T09:20:12Z</time>
      </trkpt>
      <trkpt lat="44.29158" lon="5.59574">
        <ele>828.3132324</ele>
        <time>2014-07-27T09:20:23Z</time>
      </trkpt>
      <trkpt lat="44.29158" lon="5.59573">
        <ele>827.3518066</ele>
        <time>2014-07-27T09:20:38Z</time>
      </trkpt>
      <trkpt lat="44.29158" lon="5.59573">
        <ele>826.3903809</ele>
        <time>2014-07-27T09:20:40Z</time>
      </trkpt>
      <trkpt lat="44.29158" lon="5.59573">
        <ele>827.3518066</ele>
        <time>2014-07-27T09:20:42Z</time>
      </trkpt>
      <trkpt lat="44.29157" lon="5.59571">
        <ele>826.8710938</ele>
        <time>2014-07-27T09:22:50Z</time>
      </trkpt>
      <trkpt lat="44.2917" lon="5.59575">
        <ele>826.8710938</ele>
        <time>2014-07-27T09:29:36Z</time>
      </trkpt>
      <trkpt lat="44.29139" lon="5.59591">
        <ele>825.4289551</ele>
        <time>2014-07-27T09:30:59Z</time>
      </trkpt>
      <trkpt lat="44.29122" lon="5.59616">
        <ele>825.4289551</ele>
        <time>2014-07-27T09:31:04Z</time>
      </trkpt>
      <trkpt lat="44.29097" lon="5.59651">
        <ele>824.9484863</ele>
        <time>2014-07-27T09:31:09Z</time>
      </trkpt>
      <trkpt lat="44.29087" lon="5.59672">
        <ele>825.4289551</ele>
        <time>2014-07-27T09:31:12Z</time>
      </trkpt>
      <trkpt lat="44.29071" lon="5.59695">
        <ele>825.4289551</ele>
        <time>2014-07-27T09:31:16Z</time>
      </trkpt>
      <trkpt lat="44.29061" lon="5.5971">
        <ele>825.4289551</ele>
        <time>2014-07-27T09:31:19Z</time>
      </trkpt>
      <trkpt lat="44.29034" lon="5.59716">
        <ele>825.4289551</ele>
        <time>2014-07-27T09:31:26Z</time>
      </trkpt>
      <trkpt lat="44.28996" lon="5.59696">
        <ele>826.3903809</ele>
        <time>2014-07-27T09:31:41Z</time>
      </trkpt>
      <trkpt lat="44.28964" lon="5.59679">
        <ele>827.3518066</ele>
        <time>2014-07-27T09:31:53Z</time>
      </trkpt>
      <trkpt lat="44.28938" lon="5.59661">
        <ele>829.2744141</ele>
        <time>2014-07-27T09:32:06Z</time>
      </trkpt>
      <trkpt lat="44.28914" lon="5.59653">
        <ele>830.7165527</ele>
        <time>2014-07-27T09:32:16Z</time>
      </trkpt>
      <trkpt lat="44.28901" lon="5.59651">
        <ele>831.1972656</ele>
        <time>2014-07-27T09:32:21Z</time>
      </trkpt>
      <trkpt lat="44.28866" lon="5.59675">
        <ele>833.1196289</ele>
        <time>2014-07-27T09:32:34Z</time>
      </trkpt>
      <trkpt lat="44.28848" lon="5.59689">
        <ele>834.0810547</ele>
        <time>2014-07-27T09:32:44Z</time>
      </trkpt>
      <trkpt lat="44.28834" lon="5.59691">
        <ele>835.5229492</ele>
        <time>2014-07-27T09:32:51Z</time>
      </trkpt>
      <trkpt lat="44.28828" lon="5.59683">
        <ele>836.9648438</ele>
        <time>2014-07-27T09:32:55Z</time>
      </trkpt>
      <trkpt lat="44.28812" lon="5.59663">
        <ele>838.8876953</ele>
        <time>2014-07-27T09:33:06Z</time>
      </trkpt>
      <trkpt lat="44.28801" lon="5.59645">
        <ele>840.3295898</ele>
        <time>2014-07-27T09:33:17Z</time>
      </trkpt>
      <trkpt lat="44.28778" lon="5.59621">
        <ele>842.2521973</ele>
        <time>2014-07-27T09:33:30Z</time>
      </trkpt>
      <trkpt lat="44.28766" lon="5.59606">
        <ele>842.7329102</ele>
        <time>2014-07-27T09:33:38Z</time>
      </trkpt>
      <trkpt lat="44.28764" lon="5.59597">
        <ele>843.6940918</ele>
        <time>2014-07-27T09:33:42Z</time>
      </trkpt>
      <trkpt lat="44.28755" lon="5.59566">
        <ele>844.6555176</ele>
        <time>2014-07-27T09:33:54Z</time>
      </trkpt>
      <trkpt lat="44.28744" lon="5.59534">
        <ele>846.5783691</ele>
        <time>2014-07-27T09:34:07Z</time>
      </trkpt>
      <trkpt lat="44.28739" lon="5.5952">
        <ele>847.5395508</ele>
        <time>2014-07-27T09:34:13Z</time>
      </trkpt>
      <trkpt lat="44.28716" lon="5.59496">
        <ele>848.5007324</ele>
        <time>2014-07-27T09:34:28Z</time>
      </trkpt>
      <trkpt lat="44.28691" lon="5.59489">
        <ele>850.423584</ele>
        <time>2014-07-27T09:34:41Z</time>
      </trkpt>
      <trkpt lat="44.2867" lon="5.59491">
        <ele>851.8654785</ele>
        <time>2014-07-27T09:34:57Z</time>
      </trkpt>
      <trkpt lat="44.28676" lon="5.59492">
        <ele>852.3459473</ele>
        <time>2014-07-27T09:35:00Z</time>
      </trkpt>
      <trkpt lat="44.28658" lon="5.59491">
        <ele>853.7880859</ele>
        <time>2014-07-27T09:35:14Z</time>
      </trkpt>
      <trkpt lat="44.28642" lon="5.59497">
        <ele>855.2299805</ele>
        <time>2014-07-27T09:35:25Z</time>
      </trkpt>
      <trkpt lat="44.28634" lon="5.59493">
        <ele>855.7106934</ele>
        <time>2014-07-27T09:35:30Z</time>
      </trkpt>
      <trkpt lat="44.28623" lon="5.59495">
        <ele>856.671875</ele>
        <time>2014-07-27T09:35:37Z</time>
      </trkpt>
      <trkpt lat="44.28621" lon="5.59496">
        <ele>856.671875</ele>
        <time>2014-07-27T09:35:39Z</time>
      </trkpt>
      <trkpt lat="44.28612" lon="5.59495">
        <ele>857.6333008</ele>
        <time>2014-07-27T09:35:45Z</time>
      </trkpt>
      <trkpt lat="44.28606" lon="5.59498">
        <ele>858.5944824</ele>
        <time>2014-07-27T09:35:50Z</time>
      </trkpt>
      <trkpt lat="44.28605" lon="5.59506">
        <ele>858.1140137</ele>
        <time>2014-07-27T09:35:53Z</time>
      </trkpt>
      <trkpt lat="44.28613" lon="5.59523">
        <ele>858.5944824</ele>
        <time>2014-07-27T09:36:02Z</time>
      </trkpt>
      <trkpt lat="44.28647" lon="5.59536">
        <ele>859.0751953</ele>
        <time>2014-07-27T09:36:16Z</time>
      </trkpt>
      <trkpt lat="44.28677" lon="5.59539">
        <ele>859.0751953</ele>
        <time>2014-07-27T09:36:29Z</time>
      </trkpt>
      <trkpt lat="44.28682" lon="5.59543">
        <ele>860.0366211</ele>
        <time>2014-07-27T09:36:31Z</time>
      </trkpt>
      <trkpt lat="44.28707" lon="5.59564">
        <ele>860.517334</ele>
        <time>2014-07-27T09:36:45Z</time>
      </trkpt>
      <trkpt lat="44.28724" lon="5.59579">
        <ele>860.9980469</ele>
        <time>2014-07-27T09:36:56Z</time>
      </trkpt>
      <trkpt lat="44.28728" lon="5.59587">
        <ele>861.9594727</ele>
        <time>2014-07-27T09:37:00Z</time>
      </trkpt>
      <trkpt lat="44.28729" lon="5.59599">
        <ele>861.9594727</ele>
        <time>2014-07-27T09:37:07Z</time>
      </trkpt>
      <trkpt lat="44.28724" lon="5.59614">
        <ele>863.8818359</ele>
        <time>2014-07-27T09:37:15Z</time>
      </trkpt>
      <trkpt lat="44.28714" lon="5.59624">
        <ele>863.4013672</ele>
        <time>2014-07-27T09:37:22Z</time>
      </trkpt>
      <trkpt lat="44.28708" lon="5.59669">
        <ele>864.8432617</ele>
        <time>2014-07-27T09:37:44Z</time>
      </trkpt>
      <trkpt lat="44.2871" lon="5.59674">
        <ele>865.3239746</ele>
        <time>2014-07-27T09:37:46Z</time>
      </trkpt>
      <trkpt lat="44.28712" lon="5.59703">
        <ele>866.2851563</ele>
        <time>2014-07-27T09:38:00Z</time>
      </trkpt>
      <trkpt lat="44.28717" lon="5.59711">
        <ele>866.7658691</ele>
        <time>2014-07-27T09:38:03Z</time>
      </trkpt>
      <trkpt lat="44.28718" lon="5.59715">
        <ele>867.246582</ele>
        <time>2014-07-27T09:38:05Z</time>
      </trkpt>
      <trkpt lat="44.28718" lon="5.59719">
        <ele>866.7658691</ele>
        <time>2014-07-27T09:38:07Z</time>
      </trkpt>
      <trkpt lat="44.28722" lon="5.59733">
        <ele>868.2077637</ele>
        <time>2014-07-27T09:38:15Z</time>
      </trkpt>
      <trkpt lat="44.2871" lon="5.5974">
        <ele>868.6884766</ele>
        <time>2014-07-27T09:38:25Z</time>
      </trkpt>
      <trkpt lat="44.28698" lon="5.5973">
        <ele>869.6499023</ele>
        <time>2014-07-27T09:38:35Z</time>
      </trkpt>
      <trkpt lat="44.28696" lon="5.59727">
        <ele>869.6499023</ele>
        <time>2014-07-27T09:38:38Z</time>
      </trkpt>
      <trkpt lat="44.28665" lon="5.59702">
        <ele>871.0917969</ele>
        <time>2014-07-27T09:38:55Z</time>
      </trkpt>
      <trkpt lat="44.28652" lon="5.59681">
        <ele>872.5336914</ele>
        <time>2014-07-27T09:39:05Z</time>
      </trkpt>
      <trkpt lat="44.28649" lon="5.59678">
        <ele>872.5336914</ele>
        <time>2014-07-27T09:39:07Z</time>
      </trkpt>
      <trkpt lat="44.28626" lon="5.59661">
        <ele>873.4951172</ele>
        <time>2014-07-27T09:39:20Z</time>
      </trkpt>
      <trkpt lat="44.28603" lon="5.59637">
        <ele>875.4174805</ele>
        <time>2014-07-27T09:39:36Z</time>
      </trkpt>
      <trkpt lat="44.2859" lon="5.5962">
        <ele>875.8981934</ele>
        <time>2014-07-27T09:39:45Z</time>
      </trkpt>
      <trkpt lat="44.28574" lon="5.59593">
        <ele>877.3405762</ele>
        <time>2014-07-27T09:39:59Z</time>
      </trkpt>
      <trkpt lat="44.28571" lon="5.5959">
        <ele>877.3405762</ele>
        <time>2014-07-27T09:40:01Z</time>
      </trkpt>
      <trkpt lat="44.2855" lon="5.5958">
        <ele>878.3017578</ele>
        <time>2014-07-27T09:40:16Z</time>
      </trkpt>
      <trkpt lat="44.28536" lon="5.5958">
        <ele>879.7436523</ele>
        <time>2014-07-27T09:40:28Z</time>
      </trkpt>
      <trkpt lat="44.28519" lon="5.59584">
        <ele>881.185791</ele>
        <time>2014-07-27T09:40:42Z</time>
      </trkpt>
      <trkpt lat="44.28517" lon="5.59586">
        <ele>881.185791</ele>
        <time>2014-07-27T09:40:46Z</time>
      </trkpt>
      <trkpt lat="44.28511" lon="5.59585">
        <ele>881.6662598</ele>
        <time>2014-07-27T09:40:51Z</time>
      </trkpt>
      <trkpt lat="44.28497" lon="5.59589">
        <ele>882.6276855</ele>
        <time>2014-07-27T09:41:02Z</time>
      </trkpt>
      <trkpt lat="44.28472" lon="5.59599">
        <ele>884.0695801</ele>
        <time>2014-07-27T09:41:17Z</time>
      </trkpt>
      <trkpt lat="44.28471" lon="5.596">
        <ele>884.550293</ele>
        <time>2014-07-27T09:41:18Z</time>
      </trkpt>
      <trkpt lat="44.28459" lon="5.59604">
        <ele>885.0310059</ele>
        <time>2014-07-27T09:41:26Z</time>
      </trkpt>
      <trkpt lat="44.28432" lon="5.59612">
        <ele>886.4729004</ele>
        <time>2014-07-27T09:41:42Z</time>
      </trkpt>
      <trkpt lat="44.28425" lon="5.59616">
        <ele>886.9533691</ele>
        <time>2014-07-27T09:41:46Z</time>
      </trkpt>
      <trkpt lat="44.28409" lon="5.59618">
        <ele>887.9147949</ele>
        <time>2014-07-27T09:41:55Z</time>
      </trkpt>
      <trkpt lat="44.28382" lon="5.5962">
        <ele>889.3566895</ele>
        <time>2014-07-27T09:42:13Z</time>
      </trkpt>
      <trkpt lat="44.28373" lon="5.5962">
        <ele>889.8374023</ele>
        <time>2014-07-27T09:42:18Z</time>
      </trkpt>
      <trkpt lat="44.28369" lon="5.59622">
        <ele>890.3181152</ele>
        <time>2014-07-27T09:42:20Z</time>
      </trkpt>
      <trkpt lat="44.28351" lon="5.5962">
        <ele>891.7600098</ele>
        <time>2014-07-27T09:42:36Z</time>
      </trkpt>
      <trkpt lat="44.28334" lon="5.59618">
        <ele>892.7216797</ele>
        <time>2014-07-27T09:42:47Z</time>
      </trkpt>
      <trkpt lat="44.28331" lon="5.59618">
        <ele>892.7216797</ele>
        <time>2014-07-27T09:42:49Z</time>
      </trkpt>
      <trkpt lat="44.28318" lon="5.59622">
        <ele>893.6828613</ele>
        <time>2014-07-27T09:42:57Z</time>
      </trkpt>
      <trkpt lat="44.283" lon="5.59645">
        <ele>894.644043</ele>
        <time>2014-07-27T09:43:11Z</time>
      </trkpt>
      <trkpt lat="44.2829" lon="5.59672">
        <ele>896.0861816</ele>
        <time>2014-07-27T09:43:24Z</time>
      </trkpt>
      <trkpt lat="44.28282" lon="5.59699">
        <ele>897.5280762</ele>
        <time>2014-07-27T09:43:35Z</time>
      </trkpt>
      <trkpt lat="44.28264" lon="5.59719">
        <ele>898.0087891</ele>
        <time>2014-07-27T09:43:48Z</time>
      </trkpt>
      <trkpt lat="44.28245" lon="5.5974">
        <ele>899.9313965</ele>
        <time>2014-07-27T09:44:02Z</time>
      </trkpt>
      <trkpt lat="44.2822" lon="5.59768">
        <ele>901.373291</ele>
        <time>2014-07-27T09:44:18Z</time>
      </trkpt>
      <trkpt lat="44.28198" lon="5.59796">
        <ele>903.2958984</ele>
        <time>2014-07-27T09:44:35Z</time>
      </trkpt>
      <trkpt lat="44.28179" lon="5.59818">
        <ele>903.7766113</ele>
        <time>2014-07-27T09:44:48Z</time>
      </trkpt>
      <trkpt lat="44.28152" lon="5.5983">
        <ele>905.2185059</ele>
        <time>2014-07-27T09:45:04Z</time>
      </trkpt>
      <trkpt lat="44.28121" lon="5.59853">
        <ele>906.6604004</ele>
        <time>2014-07-27T09:45:22Z</time>
      </trkpt>
      <trkpt lat="44.281" lon="5.5988">
        <ele>908.583252</ele>
        <time>2014-07-27T09:45:38Z</time>
      </trkpt>
      <trkpt lat="44.28097" lon="5.59884">
        <ele>908.583252</ele>
        <time>2014-07-27T09:45:41Z</time>
      </trkpt>
      <trkpt lat="44.2807" lon="5.59908">
        <ele>910.5058594</ele>
        <time>2014-07-27T09:45:57Z</time>
      </trkpt>
      <trkpt lat="44.28042" lon="5.59914">
        <ele>912.4284668</ele>
        <time>2014-07-27T09:46:13Z</time>
      </trkpt>
      <trkpt lat="44.28028" lon="5.59938">
        <ele>913.8703613</ele>
        <time>2014-07-27T09:46:26Z</time>
      </trkpt>
      <trkpt lat="44.28018" lon="5.5998">
        <ele>915.3125</ele>
        <time>2014-07-27T09:46:42Z</time>
      </trkpt>
      <trkpt lat="44.28015" lon="5.59993">
        <ele>916.2736816</ele>
        <time>2014-07-27T09:46:47Z</time>
      </trkpt>
      <trkpt lat="44.28006" lon="5.60026">
        <ele>917.7155762</ele>
        <time>2014-07-27T09:47:02Z</time>
      </trkpt>
      <trkpt lat="44.27993" lon="5.6005">
        <ele>918.677002</ele>
        <time>2014-07-27T09:47:16Z</time>
      </trkpt>
      <trkpt lat="44.27959" lon="5.60066">
        <ele>920.1188965</ele>
        <time>2014-07-27T09:47:35Z</time>
      </trkpt>
      <trkpt lat="44.27927" lon="5.60086">
        <ele>921.560791</ele>
        <time>2014-07-27T09:47:53Z</time>
      </trkpt>
      <trkpt lat="44.27899" lon="5.60115">
        <ele>923.4836426</ele>
        <time>2014-07-27T09:48:10Z</time>
      </trkpt>
      <trkpt lat="44.27873" lon="5.60138">
        <ele>924.4450684</ele>
        <time>2014-07-27T09:48:27Z</time>
      </trkpt>
      <trkpt lat="44.27868" lon="5.60144">
        <ele>924.9257813</ele>
        <time>2014-07-27T09:48:31Z</time>
      </trkpt>
      <trkpt lat="44.27833" lon="5.60153">
        <ele>926.3676758</ele>
        <time>2014-07-27T09:48:50Z</time>
      </trkpt>
      <trkpt lat="44.27791" lon="5.60149">
        <ele>927.8095703</ele>
        <time>2014-07-27T09:49:10Z</time>
      </trkpt>
      <trkpt lat="44.27774" lon="5.60156">
        <ele>928.7709961</ele>
        <time>2014-07-27T09:49:20Z</time>
      </trkpt>
      <trkpt lat="44.27755" lon="5.60173">
        <ele>930.2128906</ele>
        <time>2014-07-27T09:49:32Z</time>
      </trkpt>
      <trkpt lat="44.2775" lon="5.60178">
        <ele>930.6936035</ele>
        <time>2014-07-27T09:49:36Z</time>
      </trkpt>
      <trkpt lat="44.27747" lon="5.60181">
        <ele>930.6936035</ele>
        <time>2014-07-27T09:49:38Z</time>
      </trkpt>
      <trkpt lat="44.27726" lon="5.60204">
        <ele>932.135498</ele>
        <time>2014-07-27T09:49:53Z</time>
      </trkpt>
      <trkpt lat="44.27721" lon="5.60209">
        <ele>932.135498</ele>
        <time>2014-07-27T09:49:56Z</time>
      </trkpt>
      <trkpt lat="44.27735" lon="5.60244">
        <ele>934.0581055</ele>
        <time>2014-07-27T09:50:12Z</time>
      </trkpt>
      <trkpt lat="44.27765" lon="5.60266">
        <ele>935.0195313</ele>
        <time>2014-07-27T09:50:28Z</time>
      </trkpt>
      <trkpt lat="44.27766" lon="5.60272">
        <ele>935.5</ele>
        <time>2014-07-27T09:50:30Z</time>
      </trkpt>
      <trkpt lat="44.27745" lon="5.60294">
        <ele>937.4226074</ele>
        <time>2014-07-27T09:50:45Z</time>
      </trkpt>
      <trkpt lat="44.27743" lon="5.6032">
        <ele>938.3840332</ele>
        <time>2014-07-27T09:50:56Z</time>
      </trkpt>
      <trkpt lat="44.27743" lon="5.60365">
        <ele>940.3068848</ele>
        <time>2014-07-27T09:51:13Z</time>
      </trkpt>
      <trkpt lat="44.27744" lon="5.60378">
        <ele>941.7487793</ele>
        <time>2014-07-27T09:51:19Z</time>
      </trkpt>
      <trkpt lat="44.27744" lon="5.60419">
        <ele>943.1906738</ele>
        <time>2014-07-27T09:51:34Z</time>
      </trkpt>
      <trkpt lat="44.27739" lon="5.60453">
        <ele>945.5939941</ele>
        <time>2014-07-27T09:51:47Z</time>
      </trkpt>
      <trkpt lat="44.27731" lon="5.60467">
        <ele>946.074707</ele>
        <time>2014-07-27T09:51:55Z</time>
      </trkpt>
      <trkpt lat="44.27724" lon="5.60475">
        <ele>947.0358887</ele>
        <time>2014-07-27T09:52:00Z</time>
      </trkpt>
      <trkpt lat="44.27706" lon="5.60481">
        <ele>947.5166016</ele>
        <time>2014-07-27T09:52:09Z</time>
      </trkpt>
      <trkpt lat="44.27678" lon="5.60489">
        <ele>949.439209</ele>
        <time>2014-07-27T09:52:23Z</time>
      </trkpt>
      <trkpt lat="44.27661" lon="5.60486">
        <ele>950.4006348</ele>
        <time>2014-07-27T09:52:33Z</time>
      </trkpt>
      <trkpt lat="44.27639" lon="5.60484">
        <ele>952.322998</ele>
        <time>2014-07-27T09:52:45Z</time>
      </trkpt>
      <trkpt lat="44.27599" lon="5.60485">
        <ele>954.7263184</ele>
        <time>2014-07-27T09:53:05Z</time>
      </trkpt>
      <trkpt lat="44.27586" lon="5.60481">
        <ele>955.6877441</ele>
        <time>2014-07-27T09:53:12Z</time>
      </trkpt>
      <trkpt lat="44.27574" lon="5.60472">
        <ele>956.168457</ele>
        <time>2014-07-27T09:53:19Z</time>
      </trkpt>
      <trkpt lat="44.27552" lon="5.60458">
        <ele>958.5717773</ele>
        <time>2014-07-27T09:53:33Z</time>
      </trkpt>
      <trkpt lat="44.27544" lon="5.60454">
        <ele>959.0524902</ele>
        <time>2014-07-27T09:53:38Z</time>
      </trkpt>
      <trkpt lat="44.27531" lon="5.60447">
        <ele>959.5332031</ele>
        <time>2014-07-27T09:53:47Z</time>
      </trkpt>
      <trkpt lat="44.27519" lon="5.60456">
        <ele>960.9750977</ele>
        <time>2014-07-27T09:53:57Z</time>
      </trkpt>
      <trkpt lat="44.27523" lon="5.60482">
        <ele>962.4169922</ele>
        <time>2014-07-27T09:54:09Z</time>
      </trkpt>
      <trkpt lat="44.27524" lon="5.60511">
        <ele>963.8588867</ele>
        <time>2014-07-27T09:54:20Z</time>
      </trkpt>
      <trkpt lat="44.27516" lon="5.60534">
        <ele>965.3010254</ele>
        <time>2014-07-27T09:54:31Z</time>
      </trkpt>
      <trkpt lat="44.27514" lon="5.60546">
        <ele>965.7817383</ele>
        <time>2014-07-27T09:54:37Z</time>
      </trkpt>
      <trkpt lat="44.27513" lon="5.60571">
        <ele>967.7041016</ele>
        <time>2014-07-27T09:54:47Z</time>
      </trkpt>
      <trkpt lat="44.27512" lon="5.60578">
        <ele>967.7041016</ele>
        <time>2014-07-27T09:54:51Z</time>
      </trkpt>
      <trkpt lat="44.275" lon="5.60605">
        <ele>968.6655273</ele>
        <time>2014-07-27T09:55:05Z</time>
      </trkpt>
      <trkpt lat="44.27489" lon="5.60608">
        <ele>970.1074219</ele>
        <time>2014-07-27T09:55:12Z</time>
      </trkpt>
      <trkpt lat="44.27471" lon="5.60614">
        <ele>972.0302734</ele>
        <time>2014-07-27T09:55:26Z</time>
      </trkpt>
      <trkpt lat="44.27466" lon="5.60615">
        <ele>972.9916992</ele>
        <time>2014-07-27T09:55:29Z</time>
      </trkpt>
      <trkpt lat="44.27447" lon="5.60633">
        <ele>973.9528809</ele>
        <time>2014-07-27T09:55:42Z</time>
      </trkpt>
      <trkpt lat="44.27446" lon="5.60644">
        <ele>974.4335938</ele>
        <time>2014-07-27T09:55:47Z</time>
      </trkpt>
      <trkpt lat="44.27445" lon="5.60664">
        <ele>974.9143066</ele>
        <time>2014-07-27T09:55:55Z</time>
      </trkpt>
      <trkpt lat="44.27429" lon="5.60689">
        <ele>977.317627</ele>
        <time>2014-07-27T09:56:09Z</time>
      </trkpt>
      <trkpt lat="44.27423" lon="5.60696">
        <ele>978.2788086</ele>
        <time>2014-07-27T09:56:14Z</time>
      </trkpt>
      <trkpt lat="44.27409" lon="5.60703">
        <ele>979.7207031</ele>
        <time>2014-07-27T09:56:25Z</time>
      </trkpt>
      <trkpt lat="44.27378" lon="5.60714">
        <ele>981.6433105</ele>
        <time>2014-07-27T09:56:42Z</time>
      </trkpt>
      <trkpt lat="44.27367" lon="5.60722">
        <ele>982.6047363</ele>
        <time>2014-07-27T09:56:49Z</time>
      </trkpt>
      <trkpt lat="44.27347" lon="5.60743">
        <ele>984.5273438</ele>
        <time>2014-07-27T09:57:01Z</time>
      </trkpt>
      <trkpt lat="44.27341" lon="5.60748">
        <ele>985.0080566</ele>
        <time>2014-07-27T09:57:05Z</time>
      </trkpt>
      <trkpt lat="44.27333" lon="5.60765">
        <ele>985.9692383</ele>
        <time>2014-07-27T09:57:14Z</time>
      </trkpt>
      <trkpt lat="44.2733" lon="5.60767">
        <ele>985.9692383</ele>
        <time>2014-07-27T09:57:16Z</time>
      </trkpt>
      <trkpt lat="44.27326" lon="5.60768">
        <ele>985.9692383</ele>
        <time>2014-07-27T09:57:18Z</time>
      </trkpt>
      <trkpt lat="44.2732" lon="5.60792">
        <ele>988.3728027</ele>
        <time>2014-07-27T09:57:30Z</time>
      </trkpt>
      <trkpt lat="44.27332" lon="5.60806">
        <ele>989.3339844</ele>
        <time>2014-07-27T09:57:37Z</time>
      </trkpt>
      <trkpt lat="44.27334" lon="5.60822">
        <ele>990.2954102</ele>
        <time>2014-07-27T09:57:45Z</time>
      </trkpt>
      <trkpt lat="44.2733" lon="5.60857">
        <ele>992.2180176</ele>
        <time>2014-07-27T09:57:58Z</time>
      </trkpt>
      <trkpt lat="44.27327" lon="5.60864">
        <ele>993.1791992</ele>
        <time>2014-07-27T09:58:02Z</time>
      </trkpt>
      <trkpt lat="44.27324" lon="5.60869">
        <ele>993.6599121</ele>
        <time>2014-07-27T09:58:05Z</time>
      </trkpt>
      <trkpt lat="44.27314" lon="5.60884">
        <ele>994.6210938</ele>
        <time>2014-07-27T09:58:13Z</time>
      </trkpt>
      <trkpt lat="44.27305" lon="5.60896">
        <ele>995.5825195</ele>
        <time>2014-07-27T09:58:20Z</time>
      </trkpt>
      <trkpt lat="44.27305" lon="5.609">
        <ele>996.0632324</ele>
        <time>2014-07-27T09:58:22Z</time>
      </trkpt>
      <trkpt lat="44.27304" lon="5.60906">
        <ele>996.0632324</ele>
        <time>2014-07-27T09:58:25Z</time>
      </trkpt>
      <trkpt lat="44.27293" lon="5.60939">
        <ele>997.9858398</ele>
        <time>2014-07-27T09:58:39Z</time>
      </trkpt>
      <trkpt lat="44.2728" lon="5.60956">
        <ele>999.4277344</ele>
        <time>2014-07-27T09:58:50Z</time>
      </trkpt>
      <trkpt lat="44.27269" lon="5.60962">
        <ele>1000.8696289</ele>
        <time>2014-07-27T09:58:57Z</time>
      </trkpt>
      <trkpt lat="44.27247" lon="5.6097">
        <ele>1002.3115234</ele>
        <time>2014-07-27T09:59:10Z</time>
      </trkpt>
      <trkpt lat="44.27226" lon="5.60977">
        <ele>1004.2346191</ele>
        <time>2014-07-27T09:59:24Z</time>
      </trkpt>
      <trkpt lat="44.27195" lon="5.60992">
        <ele>1005.6765137</ele>
        <time>2014-07-27T09:59:41Z</time>
      </trkpt>
      <trkpt lat="44.27173" lon="5.61005">
        <ele>1007.5991211</ele>
        <time>2014-07-27T09:59:56Z</time>
      </trkpt>
      <trkpt lat="44.27145" lon="5.61023">
        <ele>1010.4829102</ele>
        <time>2014-07-27T10:00:12Z</time>
      </trkpt>
      <trkpt lat="44.27136" lon="5.61029">
        <ele>1010.963623</ele>
        <time>2014-07-27T10:00:18Z</time>
      </trkpt>
      <trkpt lat="44.27126" lon="5.61031">
        <ele>1010.963623</ele>
        <time>2014-07-27T10:00:23Z</time>
      </trkpt>
      <trkpt lat="44.27103" lon="5.61047">
        <ele>1013.8474121</ele>
        <time>2014-07-27T10:00:41Z</time>
      </trkpt>
      <trkpt lat="44.27096" lon="5.61049">
        <ele>1014.8088379</ele>
        <time>2014-07-27T10:00:46Z</time>
      </trkpt>
      <trkpt lat="44.27061" lon="5.61055">
        <ele>1017.2121582</ele>
        <time>2014-07-27T10:01:05Z</time>
      </trkpt>
      <trkpt lat="44.27058" lon="5.61058">
        <ele>1017.2121582</ele>
        <time>2014-07-27T10:01:07Z</time>
      </trkpt>
      <trkpt lat="44.27025" lon="5.61072">
        <ele>1019.6154785</ele>
        <time>2014-07-27T10:01:24Z</time>
      </trkpt>
      <trkpt lat="44.27" lon="5.61092">
        <ele>1022.0187988</ele>
        <time>2014-07-27T10:01:41Z</time>
      </trkpt>
      <trkpt lat="44.2699" lon="5.611">
        <ele>1022.9802246</ele>
        <time>2014-07-27T10:01:47Z</time>
      </trkpt>
      <trkpt lat="44.26966" lon="5.61121">
        <ele>1025.3833008</ele>
        <time>2014-07-27T10:02:04Z</time>
      </trkpt>
      <trkpt lat="44.26932" lon="5.61152">
        <ele>1028.7480469</ele>
        <time>2014-07-27T10:02:25Z</time>
      </trkpt>
      <trkpt lat="44.26911" lon="5.61174">
        <ele>1030.6706543</ele>
        <time>2014-07-27T10:02:38Z</time>
      </trkpt>
      <trkpt lat="44.26896" lon="5.61186">
        <ele>1031.6318359</ele>
        <time>2014-07-27T10:02:48Z</time>
      </trkpt>
      <trkpt lat="44.26889" lon="5.61194">
        <ele>1032.5932617</ele>
        <time>2014-07-27T10:02:53Z</time>
      </trkpt>
      <trkpt lat="44.26863" lon="5.61209">
        <ele>1035.4770508</ele>
        <time>2014-07-27T10:03:09Z</time>
      </trkpt>
      <trkpt lat="44.26835" lon="5.6123">
        <ele>1037.3999023</ele>
        <time>2014-07-27T10:03:24Z</time>
      </trkpt>
      <trkpt lat="44.26821" lon="5.61249">
        <ele>1039.3225098</ele>
        <time>2014-07-27T10:03:36Z</time>
      </trkpt>
      <trkpt lat="44.26814" lon="5.6126">
        <ele>1040.7644043</ele>
        <time>2014-07-27T10:03:42Z</time>
      </trkpt>
      <trkpt lat="44.26813" lon="5.61264">
        <ele>1041.2451172</ele>
        <time>2014-07-27T10:03:44Z</time>
      </trkpt>
      <trkpt lat="44.26796" lon="5.61301">
        <ele>1043.6484375</ele>
        <time>2014-07-27T10:04:03Z</time>
      </trkpt>
      <trkpt lat="44.26788" lon="5.61308">
        <ele>1044.1291504</ele>
        <time>2014-07-27T10:04:09Z</time>
      </trkpt>
      <trkpt lat="44.26772" lon="5.61331">
        <ele>1047.0129395</ele>
        <time>2014-07-27T10:04:24Z</time>
      </trkpt>
      <trkpt lat="44.26767" lon="5.61338">
        <ele>1047.4936523</ele>
        <time>2014-07-27T10:04:29Z</time>
      </trkpt>
      <trkpt lat="44.26756" lon="5.6135">
        <ele>1048.9355469</ele>
        <time>2014-07-27T10:04:37Z</time>
      </trkpt>
      <trkpt lat="44.26753" lon="5.61354">
        <ele>1049.4162598</ele>
        <time>2014-07-27T10:04:40Z</time>
      </trkpt>
      <trkpt lat="44.26748" lon="5.6136">
        <ele>1050.3776855</ele>
        <time>2014-07-27T10:04:44Z</time>
      </trkpt>
      <trkpt lat="44.26722" lon="5.61385">
        <ele>1052.300293</ele>
        <time>2014-07-27T10:05:01Z</time>
      </trkpt>
      <trkpt lat="44.26702" lon="5.61407">
        <ele>1054.2231445</ele>
        <time>2014-07-27T10:05:16Z</time>
      </trkpt>
      <trkpt lat="44.26686" lon="5.61426">
        <ele>1056.6262207</ele>
        <time>2014-07-27T10:05:29Z</time>
      </trkpt>
      <trkpt lat="44.26681" lon="5.61433">
        <ele>1057.1069336</ele>
        <time>2014-07-27T10:05:34Z</time>
      </trkpt>
      <trkpt lat="44.2666" lon="5.6145">
        <ele>1059.029541</ele>
        <time>2014-07-27T10:05:49Z</time>
      </trkpt>
      <trkpt lat="44.26657" lon="5.61452">
        <ele>1059.5102539</ele>
        <time>2014-07-27T10:05:51Z</time>
      </trkpt>
      <trkpt lat="44.26626" lon="5.61463">
        <ele>1062.394043</ele>
        <time>2014-07-27T10:06:09Z</time>
      </trkpt>
      <trkpt lat="44.26618" lon="5.61466">
        <ele>1062.8747559</ele>
        <time>2014-07-27T10:06:14Z</time>
      </trkpt>
      <trkpt lat="44.26601" lon="5.61485">
        <ele>1064.7973633</ele>
        <time>2014-07-27T10:06:27Z</time>
      </trkpt>
      <trkpt lat="44.26599" lon="5.61494">
        <ele>1065.7587891</ele>
        <time>2014-07-27T10:06:32Z</time>
      </trkpt>
      <trkpt lat="44.26593" lon="5.61511">
        <ele>1065.7587891</ele>
        <time>2014-07-27T10:06:39Z</time>
      </trkpt>
      <trkpt lat="44.26591" lon="5.61517">
        <ele>1066.7199707</ele>
        <time>2014-07-27T10:06:42Z</time>
      </trkpt>
      <trkpt lat="44.26576" lon="5.61538">
        <ele>1069.1235352</ele>
        <time>2014-07-27T10:06:54Z</time>
      </trkpt>
      <trkpt lat="44.2657" lon="5.61557">
        <ele>1071.0461426</ele>
        <time>2014-07-27T10:07:03Z</time>
      </trkpt>
      <trkpt lat="44.26563" lon="5.61569">
        <ele>1071.0461426</ele>
        <time>2014-07-27T10:07:09Z</time>
      </trkpt>
      <trkpt lat="44.26559" lon="5.61571">
        <ele>1071.0461426</ele>
        <time>2014-07-27T10:07:11Z</time>
      </trkpt>
      <trkpt lat="44.26558" lon="5.61575">
        <ele>1071.5266113</ele>
        <time>2014-07-27T10:07:13Z</time>
      </trkpt>
      <trkpt lat="44.2655" lon="5.61606">
        <ele>1073.4494629</ele>
        <time>2014-07-27T10:07:27Z</time>
      </trkpt>
      <trkpt lat="44.26547" lon="5.61628">
        <ele>1074.8913574</ele>
        <time>2014-07-27T10:07:36Z</time>
      </trkpt>
      <trkpt lat="44.26534" lon="5.61664">
        <ele>1077.2946777</ele>
        <time>2014-07-27T10:07:53Z</time>
      </trkpt>
      <trkpt lat="44.26537" lon="5.61707">
        <ele>1079.217041</ele>
        <time>2014-07-27T10:08:10Z</time>
      </trkpt>
      <trkpt lat="44.26545" lon="5.61761">
        <ele>1081.6203613</ele>
        <time>2014-07-27T10:08:30Z</time>
      </trkpt>
      <trkpt lat="44.26542" lon="5.61792">
        <ele>1083.5429688</ele>
        <time>2014-07-27T10:08:43Z</time>
      </trkpt>
      <trkpt lat="44.26537" lon="5.61804">
        <ele>1085.4658203</ele>
        <time>2014-07-27T10:08:50Z</time>
      </trkpt>
      <trkpt lat="44.26517" lon="5.61812">
        <ele>1086.9077148</ele>
        <time>2014-07-27T10:09:02Z</time>
      </trkpt>
      <trkpt lat="44.26512" lon="5.61808">
        <ele>1087.3884277</ele>
        <time>2014-07-27T10:09:06Z</time>
      </trkpt>
      <trkpt lat="44.26499" lon="5.6181">
        <ele>1088.3498535</ele>
        <time>2014-07-27T10:09:13Z</time>
      </trkpt>
      <trkpt lat="44.26496" lon="5.6181">
        <ele>1088.8305664</ele>
        <time>2014-07-27T10:09:16Z</time>
      </trkpt>
      <trkpt lat="44.26483" lon="5.61819">
        <ele>1089.3110352</ele>
        <time>2014-07-27T10:09:24Z</time>
      </trkpt>
      <trkpt lat="44.26478" lon="5.61826">
        <ele>1090.2724609</ele>
        <time>2014-07-27T10:09:27Z</time>
      </trkpt>
      <trkpt lat="44.2647" lon="5.61844">
        <ele>1091.2336426</ele>
        <time>2014-07-27T10:09:36Z</time>
      </trkpt>
      <trkpt lat="44.26466" lon="5.6185">
        <ele>1091.7143555</ele>
        <time>2014-07-27T10:09:39Z</time>
      </trkpt>
      <trkpt lat="44.26462" lon="5.61859">
        <ele>1092.6757813</ele>
        <time>2014-07-27T10:09:44Z</time>
      </trkpt>
      <trkpt lat="44.26447" lon="5.61885">
        <ele>1094.5981445</ele>
        <time>2014-07-27T10:09:57Z</time>
      </trkpt>
      <trkpt lat="44.26442" lon="5.61898">
        <ele>1096.0402832</ele>
        <time>2014-07-27T10:10:04Z</time>
      </trkpt>
      <trkpt lat="44.26434" lon="5.61922">
        <ele>1097.9628906</ele>
        <time>2014-07-27T10:10:16Z</time>
      </trkpt>
      <trkpt lat="44.26425" lon="5.61944">
        <ele>1099.4047852</ele>
        <time>2014-07-27T10:10:27Z</time>
      </trkpt>
      <trkpt lat="44.26415" lon="5.61975">
        <ele>1101.8083496</ele>
        <time>2014-07-27T10:10:42Z</time>
      </trkpt>
      <trkpt lat="44.26394" lon="5.62003">
        <ele>1104.6921387</ele>
        <time>2014-07-27T10:10:58Z</time>
      </trkpt>
      <trkpt lat="44.26371" lon="5.62017">
        <ele>1106.1340332</ele>
        <time>2014-07-27T10:11:10Z</time>
      </trkpt>
      <trkpt lat="44.26349" lon="5.62039">
        <ele>1108.5373535</ele>
        <time>2014-07-27T10:11:24Z</time>
      </trkpt>
      <trkpt lat="44.26331" lon="5.62058">
        <ele>1110.9406738</ele>
        <time>2014-07-27T10:11:38Z</time>
      </trkpt>
      <trkpt lat="44.26312" lon="5.62082">
        <ele>1112.8632813</ele>
        <time>2014-07-27T10:11:51Z</time>
      </trkpt>
      <trkpt lat="44.26298" lon="5.62093">
        <ele>1113.8244629</ele>
        <time>2014-07-27T10:12:01Z</time>
      </trkpt>
      <trkpt lat="44.26276" lon="5.62123">
        <ele>1117.1894531</ele>
        <time>2014-07-27T10:12:18Z</time>
      </trkpt>
      <trkpt lat="44.26265" lon="5.62138">
        <ele>1118.6313477</ele>
        <time>2014-07-27T10:12:26Z</time>
      </trkpt>
      <trkpt lat="44.26251" lon="5.62178">
        <ele>1120.5539551</ele>
        <time>2014-07-27T10:12:45Z</time>
      </trkpt>
      <trkpt lat="44.26244" lon="5.62199">
        <ele>1122.9572754</ele>
        <time>2014-07-27T10:13:00Z</time>
      </trkpt>
      <trkpt lat="44.26244" lon="5.622">
        <ele>1168.1391602</ele>
        <time>2014-07-27T10:13:53Z</time>
      </trkpt>
      <trkpt lat="44.26244" lon="5.622">
        <ele>1168.1391602</ele>
        <time>2014-07-27T10:13:54Z</time>
      </trkpt>
      <trkpt lat="44.26244" lon="5.622">
        <ele>1158.0454102</ele>
        <time>2014-07-27T10:13:59Z</time>
      </trkpt>
      <trkpt lat="44.26244" lon="5.622">
        <ele>1158.0454102</ele>
        <time>2014-07-27T10:14:00Z</time>
      </trkpt>
      <trkpt lat="44.26242" lon="5.62198">
        <ele>1157.0839844</ele>
        <time>2014-07-27T10:14:40Z</time>
      </trkpt>
      <trkpt lat="44.26242" lon="5.62198">
        <ele>1157.0839844</ele>
        <time>2014-07-27T10:14:44Z</time>
      </trkpt>
      <trkpt lat="44.26209" lon="5.62182">
        <ele>1155.6420898</ele>
        <time>2014-07-27T10:14:57Z</time>
      </trkpt>
      <trkpt lat="44.26197" lon="5.62174">
        <ele>1155.6420898</ele>
        <time>2014-07-27T10:15:00Z</time>
      </trkpt>
      <trkpt lat="44.26171" lon="5.62156">
        <ele>1153.2387695</ele>
        <time>2014-07-27T10:15:07Z</time>
      </trkpt>
      <trkpt lat="44.26188" lon="5.62149">
        <ele>1152.2773438</ele>
        <time>2014-07-27T10:15:14Z</time>
      </trkpt>
      <trkpt lat="44.26197" lon="5.62152">
        <ele>1151.796875</ele>
        <time>2014-07-27T10:15:16Z</time>
      </trkpt>
      <trkpt lat="44.26216" lon="5.62139">
        <ele>1150.8354492</ele>
        <time>2014-07-27T10:15:21Z</time>
      </trkpt>
      <trkpt lat="44.26223" lon="5.62121">
        <ele>1148.4321289</ele>
        <time>2014-07-27T10:15:24Z</time>
      </trkpt>
      <trkpt lat="44.2623" lon="5.62093">
        <ele>1146.9899902</ele>
        <time>2014-07-27T10:15:29Z</time>
      </trkpt>
      <trkpt lat="44.26232" lon="5.62064">
        <ele>1145.5480957</ele>
        <time>2014-07-27T10:15:40Z</time>
      </trkpt>
      <trkpt lat="44.26234" lon="5.62062">
        <ele>1145.5480957</ele>
        <time>2014-07-27T10:16:01Z</time>
      </trkpt>
      <trkpt lat="44.26227" lon="5.62033">
        <ele>1144.5866699</ele>
        <time>2014-07-27T10:17:26Z</time>
      </trkpt>
      <trkpt lat="44.26218" lon="5.61979">
        <ele>1140.7414551</ele>
        <time>2014-07-27T10:17:34Z</time>
      </trkpt>
      <trkpt lat="44.26216" lon="5.61971">
        <ele>1140.7414551</ele>
        <time>2014-07-27T10:17:35Z</time>
      </trkpt>
      <trkpt lat="44.262" lon="5.6193">
        <ele>1139.7802734</ele>
        <time>2014-07-27T10:17:39Z</time>
      </trkpt>
      <trkpt lat="44.26195" lon="5.61898">
        <ele>1137.857666</ele>
        <time>2014-07-27T10:17:42Z</time>
      </trkpt>
      <trkpt lat="44.26194" lon="5.61876">
        <ele>1136.8962402</ele>
        <time>2014-07-27T10:17:44Z</time>
      </trkpt>
      <trkpt lat="44.2618" lon="5.61826">
        <ele>1133.0510254</ele>
        <time>2014-07-27T10:17:49Z</time>
      </trkpt>
      <trkpt lat="44.26175" lon="5.61817">
        <ele>1132.5705566</ele>
        <time>2014-07-27T10:17:50Z</time>
      </trkpt>
      <trkpt lat="44.26143" lon="5.61768">
        <ele>1129.2055664</ele>
        <time>2014-07-27T10:17:55Z</time>
      </trkpt>
      <trkpt lat="44.26137" lon="5.61759">
        <ele>1129.2055664</ele>
        <time>2014-07-27T10:17:56Z</time>
      </trkpt>
      <trkpt lat="44.2611" lon="5.6173">
        <ele>1125.8410645</ele>
        <time>2014-07-27T10:18:01Z</time>
      </trkpt>
      <trkpt lat="44.26103" lon="5.61725">
        <ele>1124.8798828</ele>
        <time>2014-07-27T10:18:02Z</time>
      </trkpt>
      <trkpt lat="44.26082" lon="5.61717">
        <ele>1123.4379883</ele>
        <time>2014-07-27T10:18:05Z</time>
      </trkpt>
      <trkpt lat="44.26067" lon="5.61713">
        <ele>1122.4765625</ele>
        <time>2014-07-27T10:18:07Z</time>
      </trkpt>
      <trkpt lat="44.26054" lon="5.61706">
        <ele>1121.034668</ele>
        <time>2014-07-27T10:18:09Z</time>
      </trkpt>
      <trkpt lat="44.26043" lon="5.61691">
        <ele>1118.1506348</ele>
        <time>2014-07-27T10:18:11Z</time>
      </trkpt>
      <trkpt lat="44.26027" lon="5.61665">
        <ele>1117.6699219</ele>
        <time>2014-07-27T10:18:14Z</time>
      </trkpt>
      <trkpt lat="44.25992" lon="5.61639">
        <ele>1113.8244629</ele>
        <time>2014-07-27T10:18:19Z</time>
      </trkpt>
      <trkpt lat="44.2597" lon="5.61629">
        <ele>1111.4213867</ele>
        <time>2014-07-27T10:18:22Z</time>
      </trkpt>
      <trkpt lat="44.25924" lon="5.61641">
        <ele>1108.5373535</ele>
        <time>2014-07-27T10:18:29Z</time>
      </trkpt>
      <trkpt lat="44.25918" lon="5.61647">
        <ele>1108.5373535</ele>
        <time>2014-07-27T10:18:30Z</time>
      </trkpt>
      <trkpt lat="44.25878" lon="5.61688">
        <ele>1103.2502441</ele>
        <time>2014-07-27T10:18:36Z</time>
      </trkpt>
      <trkpt lat="44.25872" lon="5.61693">
        <ele>1103.2502441</ele>
        <time>2014-07-27T10:18:37Z</time>
      </trkpt>
      <trkpt lat="44.25851" lon="5.61702">
        <ele>1101.3276367</ele>
        <time>2014-07-27T10:18:40Z</time>
      </trkpt>
      <trkpt lat="44.25836" lon="5.61702">
        <ele>1100.8469238</ele>
        <time>2014-07-27T10:18:42Z</time>
      </trkpt>
      <trkpt lat="44.258" lon="5.61698">
        <ele>1097.4821777</ele>
        <time>2014-07-27T10:18:47Z</time>
      </trkpt>
      <trkpt lat="44.25776" lon="5.61704">
        <ele>1095.5595703</ele>
        <time>2014-07-27T10:18:51Z</time>
      </trkpt>
      <trkpt lat="44.25765" lon="5.61721">
        <ele>1093.6369629</ele>
        <time>2014-07-27T10:18:56Z</time>
      </trkpt>
      <trkpt lat="44.25776" lon="5.61727">
        <ele>1092.1950684</ele>
        <time>2014-07-27T10:18:59Z</time>
      </trkpt>
      <trkpt lat="44.25795" lon="5.61727">
        <ele>1090.2724609</ele>
        <time>2014-07-27T10:19:02Z</time>
      </trkpt>
      <trkpt lat="44.25824" lon="5.61739">
        <ele>1089.3110352</ele>
        <time>2014-07-27T10:19:06Z</time>
      </trkpt>
      <trkpt lat="44.25848" lon="5.61757">
        <ele>1088.3498535</ele>
        <time>2014-07-27T10:19:10Z</time>
      </trkpt>
      <trkpt lat="44.25874" lon="5.61763">
        <ele>1085.9465332</ele>
        <time>2014-07-27T10:19:14Z</time>
      </trkpt>
      <trkpt lat="44.25889" lon="5.61761">
        <ele>1084.5046387</ele>
        <time>2014-07-27T10:19:17Z</time>
      </trkpt>
      <trkpt lat="44.25897" lon="5.61759">
        <ele>1083.5429688</ele>
        <time>2014-07-27T10:19:19Z</time>
      </trkpt>
      <trkpt lat="44.25924" lon="5.61792">
        <ele>1081.6203613</ele>
        <time>2014-07-27T10:19:26Z</time>
      </trkpt>
      <trkpt lat="44.25927" lon="5.61814">
        <ele>1080.1784668</ele>
        <time>2014-07-27T10:19:28Z</time>
      </trkpt>
      <trkpt lat="44.25926" lon="5.61837">
        <ele>1078.2558594</ele>
        <time>2014-07-27T10:19:30Z</time>
      </trkpt>
      <trkpt lat="44.25926" lon="5.6189">
        <ele>1075.8525391</ele>
        <time>2014-07-27T10:19:35Z</time>
      </trkpt>
      <trkpt lat="44.25933" lon="5.61918">
        <ele>1074.4106445</ele>
        <time>2014-07-27T10:19:38Z</time>
      </trkpt>
      <trkpt lat="44.25942" lon="5.61939">
        <ele>1073.4494629</ele>
        <time>2014-07-27T10:19:41Z</time>
      </trkpt>
      <trkpt lat="44.25937" lon="5.61973">
        <ele>1070.5654297</ele>
        <time>2014-07-27T10:19:46Z</time>
      </trkpt>
      <trkpt lat="44.25926" lon="5.61985">
        <ele>1069.1235352</ele>
        <time>2014-07-27T10:19:48Z</time>
      </trkpt>
      <trkpt lat="44.25904" lon="5.62024">
        <ele>1066.7199707</ele>
        <time>2014-07-27T10:19:52Z</time>
      </trkpt>
      <trkpt lat="44.25892" lon="5.62045">
        <ele>1065.2780762</ele>
        <time>2014-07-27T10:19:54Z</time>
      </trkpt>
      <trkpt lat="44.25883" lon="5.62064">
        <ele>1063.8359375</ele>
        <time>2014-07-27T10:19:56Z</time>
      </trkpt>
      <trkpt lat="44.25874" lon="5.62083">
        <ele>1062.394043</ele>
        <time>2014-07-27T10:19:58Z</time>
      </trkpt>
      <trkpt lat="44.25854" lon="5.62114">
        <ele>1059.9907227</ele>
        <time>2014-07-27T10:20:01Z</time>
      </trkpt>
      <trkpt lat="44.25838" lon="5.62132">
        <ele>1058.0683594</ele>
        <time>2014-07-27T10:20:03Z</time>
      </trkpt>
      <trkpt lat="44.25814" lon="5.62156">
        <ele>1054.2231445</ele>
        <time>2014-07-27T10:20:06Z</time>
      </trkpt>
      <trkpt lat="44.25808" lon="5.62162">
        <ele>1053.7424316</ele>
        <time>2014-07-27T10:20:07Z</time>
      </trkpt>
      <trkpt lat="44.25786" lon="5.62176">
        <ele>1052.300293</ele>
        <time>2014-07-27T10:20:10Z</time>
      </trkpt>
      <trkpt lat="44.25773" lon="5.62173">
        <ele>1050.3776855</ele>
        <time>2014-07-27T10:20:12Z</time>
      </trkpt>
      <trkpt lat="44.25757" lon="5.62163">
        <ele>1047.4936523</ele>
        <time>2014-07-27T10:20:14Z</time>
      </trkpt>
      <trkpt lat="44.25742" lon="5.62156">
        <ele>1047.0129395</ele>
        <time>2014-07-27T10:20:16Z</time>
      </trkpt>
      <trkpt lat="44.25724" lon="5.62156">
        <ele>1045.5710449</ele>
        <time>2014-07-27T10:20:19Z</time>
      </trkpt>
      <trkpt lat="44.25703" lon="5.62185">
        <ele>1043.6484375</ele>
        <time>2014-07-27T10:20:24Z</time>
      </trkpt>
      <trkpt lat="44.25698" lon="5.62201">
        <ele>1042.206543</ele>
        <time>2014-07-27T10:20:26Z</time>
      </trkpt>
      <trkpt lat="44.25681" lon="5.62208">
        <ele>1039.3225098</ele>
        <time>2014-07-27T10:20:34Z</time>
      </trkpt>
      <trkpt lat="44.25683" lon="5.62204">
        <ele>1039.3225098</ele>
        <time>2014-07-27T10:20:35Z</time>
      </trkpt>
      <trkpt lat="44.25691" lon="5.62187">
        <ele>1037.8806152</ele>
        <time>2014-07-27T10:20:38Z</time>
      </trkpt>
      <trkpt lat="44.25693" lon="5.62179">
        <ele>1037.3999023</ele>
        <time>2014-07-27T10:20:39Z</time>
      </trkpt>
      <trkpt lat="44.25698" lon="5.62131">
        <ele>1034.996582</ele>
        <time>2014-07-27T10:20:44Z</time>
      </trkpt>
      <trkpt lat="44.25708" lon="5.62089">
        <ele>1032.5932617</ele>
        <time>2014-07-27T10:20:49Z</time>
      </trkpt>
      <trkpt lat="44.25712" lon="5.62073">
        <ele>1030.6706543</ele>
        <time>2014-07-27T10:20:52Z</time>
      </trkpt>
      <trkpt lat="44.25713" lon="5.62057">
        <ele>1029.2285156</ele>
        <time>2014-07-27T10:20:55Z</time>
      </trkpt>
      <trkpt lat="44.25727" lon="5.62021">
        <ele>1027.3061523</ele>
        <time>2014-07-27T10:21:00Z</time>
      </trkpt>
      <trkpt lat="44.25743" lon="5.61994">
        <ele>1024.902832</ele>
        <time>2014-07-27T10:21:04Z</time>
      </trkpt>
      <trkpt lat="44.25736" lon="5.61965">
        <ele>1022.0187988</ele>
        <time>2014-07-27T10:21:11Z</time>
      </trkpt>
      <trkpt lat="44.25719" lon="5.61969">
        <ele>1021.0576172</ele>
        <time>2014-07-27T10:21:14Z</time>
      </trkpt>
      <trkpt lat="44.25675" lon="5.61985">
        <ele>1018.1733398</ele>
        <time>2014-07-27T10:21:22Z</time>
      </trkpt>
      <trkpt lat="44.25637" lon="5.61995">
        <ele>1015.2895508</ele>
        <time>2014-07-27T10:21:29Z</time>
      </trkpt>
      <trkpt lat="44.25596" lon="5.61994">
        <ele>1012.4055176</ele>
        <time>2014-07-27T10:21:34Z</time>
      </trkpt>
      <trkpt lat="44.2558" lon="5.61995">
        <ele>1011.4443359</ele>
        <time>2014-07-27T10:21:36Z</time>
      </trkpt>
      <trkpt lat="44.25553" lon="5.62003">
        <ele>1009.0410156</ele>
        <time>2014-07-27T10:21:40Z</time>
      </trkpt>
      <trkpt lat="44.25535" lon="5.62007">
        <ele>1007.1184082</ele>
        <time>2014-07-27T10:21:43Z</time>
      </trkpt>
      <trkpt lat="44.25523" lon="5.62007">
        <ele>1006.1569824</ele>
        <time>2014-07-27T10:21:45Z</time>
      </trkpt>
      <trkpt lat="44.25494" lon="5.6201">
        <ele>1003.7536621</ele>
        <time>2014-07-27T10:21:52Z</time>
      </trkpt>
      <trkpt lat="44.25499" lon="5.6203">
        <ele>1001.3503418</ele>
        <time>2014-07-27T10:21:58Z</time>
      </trkpt>
      <trkpt lat="44.25515" lon="5.62035">
        <ele>1000.8696289</ele>
        <time>2014-07-27T10:22:03Z</time>
      </trkpt>
      <trkpt lat="44.25527" lon="5.62036">
        <ele>999.4277344</ele>
        <time>2014-07-27T10:22:05Z</time>
      </trkpt>
      <trkpt lat="44.25552" lon="5.62037">
        <ele>997.9858398</ele>
        <time>2014-07-27T10:22:11Z</time>
      </trkpt>
      <trkpt lat="44.25545" lon="5.62051">
        <ele>996.5439453</ele>
        <time>2014-07-27T10:22:17Z</time>
      </trkpt>
      <trkpt lat="44.25527" lon="5.62053">
        <ele>994.6210938</ele>
        <time>2014-07-27T10:22:20Z</time>
      </trkpt>
      <trkpt lat="44.25512" lon="5.62054">
        <ele>993.1791992</ele>
        <time>2014-07-27T10:22:22Z</time>
      </trkpt>
      <trkpt lat="44.25505" lon="5.62054">
        <ele>992.2180176</ele>
        <time>2014-07-27T10:22:23Z</time>
      </trkpt>
      <trkpt lat="44.25481" lon="5.6205">
        <ele>990.2954102</ele>
        <time>2014-07-27T10:22:26Z</time>
      </trkpt>
      <trkpt lat="44.25473" lon="5.62046">
        <ele>989.3339844</ele>
        <time>2014-07-27T10:22:27Z</time>
      </trkpt>
      <trkpt lat="44.25458" lon="5.62036">
        <ele>988.3728027</ele>
        <time>2014-07-27T10:22:29Z</time>
      </trkpt>
      <trkpt lat="44.25431" lon="5.62018">
        <ele>985.9692383</ele>
        <time>2014-07-27T10:22:33Z</time>
      </trkpt>
      <trkpt lat="44.25412" lon="5.62007">
        <ele>984.0466309</ele>
        <time>2014-07-27T10:22:36Z</time>
      </trkpt>
      <trkpt lat="44.25374" lon="5.62011">
        <ele>980.201416</ele>
        <time>2014-07-27T10:22:43Z</time>
      </trkpt>
      <trkpt lat="44.2535" lon="5.62032">
        <ele>976.8369141</ele>
        <time>2014-07-27T10:22:49Z</time>
      </trkpt>
      <trkpt lat="44.25315" lon="5.62044">
        <ele>975.8754883</ele>
        <time>2014-07-27T10:22:54Z</time>
      </trkpt>
      <trkpt lat="44.25292" lon="5.62043">
        <ele>973.9528809</ele>
        <time>2014-07-27T10:22:57Z</time>
      </trkpt>
      <trkpt lat="44.25283" lon="5.62042">
        <ele>973.9528809</ele>
        <time>2014-07-27T10:22:58Z</time>
      </trkpt>
      <trkpt lat="44.25259" lon="5.62049">
        <ele>972.0302734</ele>
        <time>2014-07-27T10:23:01Z</time>
      </trkpt>
      <trkpt lat="44.25247" lon="5.62055">
        <ele>970.5881348</ele>
        <time>2014-07-27T10:23:03Z</time>
      </trkpt>
      <trkpt lat="44.25217" lon="5.62058">
        <ele>968.6655273</ele>
        <time>2014-07-27T10:23:08Z</time>
      </trkpt>
      <trkpt lat="44.25153" lon="5.6205">
        <ele>963.8588867</ele>
        <time>2014-07-27T10:23:16Z</time>
      </trkpt>
      <trkpt lat="44.25109" lon="5.62055">
        <ele>960.4943848</ele>
        <time>2014-07-27T10:23:23Z</time>
      </trkpt>
      <trkpt lat="44.25104" lon="5.62056">
        <ele>960.4943848</ele>
        <time>2014-07-27T10:23:24Z</time>
      </trkpt>
      <trkpt lat="44.25092" lon="5.62055">
        <ele>958.0913086</ele>
        <time>2014-07-27T10:23:27Z</time>
      </trkpt>
      <trkpt lat="44.25071" lon="5.6203">
        <ele>955.6877441</ele>
        <time>2014-07-27T10:23:34Z</time>
      </trkpt>
      <trkpt lat="44.25053" lon="5.61971">
        <ele>952.8037109</ele>
        <time>2014-07-27T10:23:41Z</time>
      </trkpt>
      <trkpt lat="44.25051" lon="5.61937">
        <ele>951.3618164</ele>
        <time>2014-07-27T10:23:45Z</time>
      </trkpt>
      <trkpt lat="44.25052" lon="5.6192">
        <ele>949.439209</ele>
        <time>2014-07-27T10:23:47Z</time>
      </trkpt>
      <trkpt lat="44.2505" lon="5.61883">
        <ele>947.9973145</ele>
        <time>2014-07-27T10:23:51Z</time>
      </trkpt>
      <trkpt lat="44.25054" lon="5.61856">
        <ele>946.5554199</ele>
        <time>2014-07-27T10:23:54Z</time>
      </trkpt>
      <trkpt lat="44.2506" lon="5.6184">
        <ele>945.1132813</ele>
        <time>2014-07-27T10:23:56Z</time>
      </trkpt>
      <trkpt lat="44.25091" lon="5.61797">
        <ele>942.2294922</ele>
        <time>2014-07-27T10:24:03Z</time>
      </trkpt>
      <trkpt lat="44.25095" lon="5.61782">
        <ele>941.2680664</ele>
        <time>2014-07-27T10:24:06Z</time>
      </trkpt>
      <trkpt lat="44.2507" lon="5.61768">
        <ele>940.3068848</ele>
        <time>2014-07-27T10:24:12Z</time>
      </trkpt>
      <trkpt lat="44.2505" lon="5.61767">
        <ele>938.8647461</ele>
        <time>2014-07-27T10:24:15Z</time>
      </trkpt>
      <trkpt lat="44.25035" lon="5.61765">
        <ele>936.9418945</ele>
        <time>2014-07-27T10:24:17Z</time>
      </trkpt>
      <trkpt lat="44.24994" lon="5.6174">
        <ele>932.6162109</ele>
        <time>2014-07-27T10:24:24Z</time>
      </trkpt>
      <trkpt lat="44.24986" lon="5.61727">
        <ele>932.6162109</ele>
        <time>2014-07-27T10:24:26Z</time>
      </trkpt>
      <trkpt lat="44.24969" lon="5.61685">
        <ele>930.2128906</ele>
        <time>2014-07-27T10:24:31Z</time>
      </trkpt>
      <trkpt lat="44.24966" lon="5.61656">
        <ele>928.7709961</ele>
        <time>2014-07-27T10:24:34Z</time>
      </trkpt>
      <trkpt lat="44.24968" lon="5.61617">
        <ele>926.3676758</ele>
        <time>2014-07-27T10:24:38Z</time>
      </trkpt>
      <trkpt lat="44.24974" lon="5.61592">
        <ele>923.9641113</ele>
        <time>2014-07-27T10:24:41Z</time>
      </trkpt>
      <trkpt lat="44.24979" lon="5.61579">
        <ele>923.4836426</ele>
        <time>2014-07-27T10:24:43Z</time>
      </trkpt>
      <trkpt lat="44.2497" lon="5.61555">
        <ele>922.0415039</ele>
        <time>2014-07-27T10:24:48Z</time>
      </trkpt>
      <trkpt lat="44.24965" lon="5.61554">
        <ele>921.0803223</ele>
        <time>2014-07-27T10:24:49Z</time>
      </trkpt>
      <trkpt lat="44.24924" lon="5.6156">
        <ele>918.677002</ele>
        <time>2014-07-27T10:24:55Z</time>
      </trkpt>
      <trkpt lat="44.24909" lon="5.61559">
        <ele>918.1962891</ele>
        <time>2014-07-27T10:24:57Z</time>
      </trkpt>
      <trkpt lat="44.24874" lon="5.61545">
        <ele>914.8317871</ele>
        <time>2014-07-27T10:25:02Z</time>
      </trkpt>
      <trkpt lat="44.24852" lon="5.61523">
        <ele>912.4284668</ele>
        <time>2014-07-27T10:25:06Z</time>
      </trkpt>
      <trkpt lat="44.24847" lon="5.6152">
        <ele>911.947998</ele>
        <time>2014-07-27T10:25:07Z</time>
      </trkpt>
      <trkpt lat="44.24838" lon="5.61511">
        <ele>910.9865723</ele>
        <time>2014-07-27T10:25:09Z</time>
      </trkpt>
      <trkpt lat="44.24824" lon="5.61495">
        <ele>910.0251465</ele>
        <time>2014-07-27T10:25:12Z</time>
      </trkpt>
      <trkpt lat="44.24812" lon="5.61464">
        <ele>908.1027832</ele>
        <time>2014-07-27T10:25:16Z</time>
      </trkpt>
      <trkpt lat="44.24812" lon="5.61455">
        <ele>907.6218262</ele>
        <time>2014-07-27T10:25:17Z</time>
      </trkpt>
      <trkpt lat="44.24811" lon="5.61428">
        <ele>906.1796875</ele>
        <time>2014-07-27T10:25:20Z</time>
      </trkpt>
      <trkpt lat="44.24798" lon="5.61408">
        <ele>904.2573242</ele>
        <time>2014-07-27T10:25:24Z</time>
      </trkpt>
      <trkpt lat="44.24793" lon="5.61405">
        <ele>904.2573242</ele>
        <time>2014-07-27T10:25:25Z</time>
      </trkpt>
      <trkpt lat="44.24771" lon="5.61394">
        <ele>902.8151855</ele>
        <time>2014-07-27T10:25:29Z</time>
      </trkpt>
      <trkpt lat="44.24755" lon="5.61374">
        <ele>900.8925781</ele>
        <time>2014-07-27T10:25:32Z</time>
      </trkpt>
      <trkpt lat="44.24751" lon="5.61365">
        <ele>899.9313965</ele>
        <time>2014-07-27T10:25:33Z</time>
      </trkpt>
      <trkpt lat="44.24736" lon="5.61312">
        <ele>898.0087891</ele>
        <time>2014-07-27T10:25:38Z</time>
      </trkpt>
      <trkpt lat="44.24731" lon="5.61254">
        <ele>895.6054688</ele>
        <time>2014-07-27T10:25:43Z</time>
      </trkpt>
      <trkpt lat="44.24728" lon="5.61223">
        <ele>893.2021484</ele>
        <time>2014-07-27T10:25:46Z</time>
      </trkpt>
      <trkpt lat="44.24723" lon="5.61162">
        <ele>890.3181152</ele>
        <time>2014-07-27T10:25:52Z</time>
      </trkpt>
      <trkpt lat="44.2472" lon="5.61109">
        <ele>887.9147949</ele>
        <time>2014-07-27T10:25:57Z</time>
      </trkpt>
      <trkpt lat="44.24725" lon="5.61061">
        <ele>885.0310059</ele>
        <time>2014-07-27T10:26:03Z</time>
      </trkpt>
      <trkpt lat="44.24723" lon="5.61048">
        <ele>884.550293</ele>
        <time>2014-07-27T10:26:05Z</time>
      </trkpt>
      <trkpt lat="44.24712" lon="5.61067">
        <ele>882.6276855</ele>
        <time>2014-07-27T10:26:12Z</time>
      </trkpt>
      <trkpt lat="44.24711" lon="5.61075">
        <ele>882.6276855</ele>
        <time>2014-07-27T10:26:13Z</time>
      </trkpt>
      <trkpt lat="44.2471" lon="5.61104">
        <ele>881.6662598</ele>
        <time>2014-07-27T10:26:16Z</time>
      </trkpt>
      <trkpt lat="44.24693" lon="5.61176">
        <ele>877.8210449</ele>
        <time>2014-07-27T10:26:22Z</time>
      </trkpt>
      <trkpt lat="44.24692" lon="5.61189">
        <ele>877.8210449</ele>
        <time>2014-07-27T10:26:23Z</time>
      </trkpt>
      <trkpt lat="44.24689" lon="5.61213">
        <ele>876.3791504</ele>
        <time>2014-07-27T10:26:25Z</time>
      </trkpt>
      <trkpt lat="44.24688" lon="5.61224">
        <ele>874.9370117</ele>
        <time>2014-07-27T10:26:26Z</time>
      </trkpt>
      <trkpt lat="44.24684" lon="5.61245">
        <ele>874.9370117</ele>
        <time>2014-07-27T10:26:28Z</time>
      </trkpt>
      <trkpt lat="44.2468" lon="5.61265">
        <ele>873.4951172</ele>
        <time>2014-07-27T10:26:30Z</time>
      </trkpt>
      <trkpt lat="44.2468" lon="5.61274">
        <ele>872.5336914</ele>
        <time>2014-07-27T10:26:31Z</time>
      </trkpt>
      <trkpt lat="44.2469" lon="5.61336">
        <ele>870.1303711</ele>
        <time>2014-07-27T10:26:37Z</time>
      </trkpt>
      <trkpt lat="44.24692" lon="5.6136">
        <ele>869.1691895</ele>
        <time>2014-07-27T10:26:39Z</time>
      </trkpt>
      <trkpt lat="44.24695" lon="5.61383">
        <ele>868.2077637</ele>
        <time>2014-07-27T10:26:41Z</time>
      </trkpt>
      <trkpt lat="44.24696" lon="5.61402">
        <ele>866.7658691</ele>
        <time>2014-07-27T10:26:43Z</time>
      </trkpt>
      <trkpt lat="44.247" lon="5.61428">
        <ele>864.8432617</ele>
        <time>2014-07-27T10:26:46Z</time>
      </trkpt>
      <trkpt lat="44.24711" lon="5.61486">
        <ele>860.9980469</ele>
        <time>2014-07-27T10:26:52Z</time>
      </trkpt>
      <trkpt lat="44.24712" lon="5.61494">
        <ele>860.9980469</ele>
        <time>2014-07-27T10:26:53Z</time>
      </trkpt>
      <trkpt lat="44.24715" lon="5.61513">
        <ele>859.0751953</ele>
        <time>2014-07-27T10:26:56Z</time>
      </trkpt>
      <trkpt lat="44.24716" lon="5.61539">
        <ele>857.6333008</ele>
        <time>2014-07-27T10:27:06Z</time>
      </trkpt>
      <trkpt lat="44.24719" lon="5.61534">
        <ele>858.1140137</ele>
        <time>2014-07-27T10:27:29Z</time>
      </trkpt>
      <trkpt lat="44.2472" lon="5.61536">
        <ele>858.5944824</ele>
        <time>2014-07-27T10:27:57Z</time>
      </trkpt>
      <trkpt lat="44.24717" lon="5.61538">
        <ele>858.5944824</ele>
        <time>2014-07-27T10:28:27Z</time>
      </trkpt>
      <trkpt lat="44.24718" lon="5.61542">
        <ele>858.5944824</ele>
        <time>2014-07-27T10:28:59Z</time>
      </trkpt>
      <trkpt lat="44.24718" lon="5.61546">
        <ele>858.5944824</ele>
        <time>2014-07-27T10:29:35Z</time>
      </trkpt>
      <trkpt lat="44.24713" lon="5.61545">
        <ele>858.1140137</ele>
        <time>2014-07-27T10:29:59Z</time>
      </trkpt>
      <trkpt lat="44.24708" lon="5.61545">
        <ele>857.6333008</ele>
        <time>2014-07-27T10:30:15Z</time>
      </trkpt>
      <trkpt lat="44.24683" lon="5.61559">
        <ele>856.671875</ele>
        <time>2014-07-27T10:30:26Z</time>
      </trkpt>
      <trkpt lat="44.24676" lon="5.61556">
        <ele>856.1911621</ele>
        <time>2014-07-27T10:30:28Z</time>
      </trkpt>
      <trkpt lat="44.24665" lon="5.61543">
        <ele>856.1911621</ele>
        <time>2014-07-27T10:30:32Z</time>
      </trkpt>
      <trkpt lat="44.24631" lon="5.61473">
        <ele>852.8266602</ele>
        <time>2014-07-27T10:30:42Z</time>
      </trkpt>
      <trkpt lat="44.24587" lon="5.61369">
        <ele>848.9814453</ele>
        <time>2014-07-27T10:30:52Z</time>
      </trkpt>
      <trkpt lat="44.24577" lon="5.61345">
        <ele>848.5007324</ele>
        <time>2014-07-27T10:30:54Z</time>
      </trkpt>
      <trkpt lat="44.24567" lon="5.61308">
        <ele>847.0588379</ele>
        <time>2014-07-27T10:30:57Z</time>
      </trkpt>
      <trkpt lat="44.24559" lon="5.61274">
        <ele>845.6169434</ele>
        <time>2014-07-27T10:31:00Z</time>
      </trkpt>
      <trkpt lat="44.24557" lon="5.61262">
        <ele>844.6555176</ele>
        <time>2014-07-27T10:31:01Z</time>
      </trkpt>
      <trkpt lat="44.24559" lon="5.6119">
        <ele>841.7714844</ele>
        <time>2014-07-27T10:31:08Z</time>
      </trkpt>
      <trkpt lat="44.24539" lon="5.61153">
        <ele>838.8876953</ele>
        <time>2014-07-27T10:31:14Z</time>
      </trkpt>
      <trkpt lat="44.24523" lon="5.61145">
        <ele>838.4069824</ele>
        <time>2014-07-27T10:31:16Z</time>
      </trkpt>
      <trkpt lat="44.24493" lon="5.611">
        <ele>835.5229492</ele>
        <time>2014-07-27T10:31:21Z</time>
      </trkpt>
      <trkpt lat="44.24451" lon="5.61043">
        <ele>832.1584473</ele>
        <time>2014-07-27T10:31:27Z</time>
      </trkpt>
      <trkpt lat="44.24443" lon="5.61034">
        <ele>832.1584473</ele>
        <time>2014-07-27T10:31:28Z</time>
      </trkpt>
      <trkpt lat="44.24407" lon="5.61001">
        <ele>829.755127</ele>
        <time>2014-07-27T10:31:32Z</time>
      </trkpt>
      <trkpt lat="44.24382" lon="5.60979">
        <ele>826.3903809</ele>
        <time>2014-07-27T10:31:35Z</time>
      </trkpt>
      <trkpt lat="44.24353" lon="5.60957">
        <ele>825.4289551</ele>
        <time>2014-07-27T10:31:39Z</time>
      </trkpt>
      <trkpt lat="44.24346" lon="5.60951">
        <ele>824.9484863</ele>
        <time>2014-07-27T10:31:40Z</time>
      </trkpt>
      <trkpt lat="44.24286" lon="5.6092">
        <ele>821.1032715</ele>
        <time>2014-07-27T10:31:49Z</time>
      </trkpt>
      <trkpt lat="44.24268" lon="5.60881">
        <ele>819.661377</ele>
        <time>2014-07-27T10:31:57Z</time>
      </trkpt>
      <trkpt lat="44.24269" lon="5.60877">
        <ele>819.661377</ele>
        <time>2014-07-27T10:31:58Z</time>
      </trkpt>
      <trkpt lat="44.24254" lon="5.60844">
        <ele>817.7385254</ele>
        <time>2014-07-27T10:32:06Z</time>
      </trkpt>
      <trkpt lat="44.24218" lon="5.6083">
        <ele>815.8161621</ele>
        <time>2014-07-27T10:32:12Z</time>
      </trkpt>
      <trkpt lat="44.24185" lon="5.60817">
        <ele>814.8547363</ele>
        <time>2014-07-27T10:32:17Z</time>
      </trkpt>
      <trkpt lat="44.24126" lon="5.60813">
        <ele>812.451416</ele>
        <time>2014-07-27T10:32:30Z</time>
      </trkpt>
      <trkpt lat="44.24094" lon="5.60811">
        <ele>811.4899902</ele>
        <time>2014-07-27T10:32:37Z</time>
      </trkpt>
      <trkpt lat="44.24063" lon="5.60808">
        <ele>811.4899902</ele>
        <time>2014-07-27T10:32:44Z</time>
      </trkpt>
      <trkpt lat="44.24042" lon="5.60807">
        <ele>809.5673828</ele>
        <time>2014-07-27T10:32:49Z</time>
      </trkpt>
      <trkpt lat="44.24008" lon="5.60808">
        <ele>809.0866699</ele>
        <time>2014-07-27T10:33:00Z</time>
      </trkpt>
      <trkpt lat="44.24005" lon="5.6081">
        <ele>808.605957</ele>
        <time>2014-07-27T10:33:01Z</time>
      </trkpt>
      <trkpt lat="44.23998" lon="5.60811">
        <ele>809.0866699</ele>
        <time>2014-07-27T10:33:17Z</time>
      </trkpt>
      <trkpt lat="44.23998" lon="5.60811">
        <ele>809.0866699</ele>
        <time>2014-07-27T10:33:35Z</time>
      </trkpt>
      <trkpt lat="44.23998" lon="5.60814">
        <ele>809.5673828</ele>
        <time>2014-07-27T10:33:53Z</time>
      </trkpt>
      <trkpt lat="44.24001" lon="5.6082">
        <ele>810.0478516</ele>
        <time>2014-07-27T10:34:08Z</time>
      </trkpt>
      <trkpt lat="44.24" lon="5.60822">
        <ele>810.0478516</ele>
        <time>2014-07-27T10:34:32Z</time>
      </trkpt>
      <trkpt lat="44.23987" lon="5.60821">
        <ele>809.0866699</ele>
        <time>2014-07-27T10:34:38Z</time>
      </trkpt>
      <trkpt lat="44.23952" lon="5.60787">
        <ele>807.1640625</ele>
        <time>2014-07-27T10:34:51Z</time>
      </trkpt>
      <trkpt lat="44.23917" lon="5.60761">
        <ele>806.6833496</ele>
        <time>2014-07-27T10:35:01Z</time>
      </trkpt>
      <trkpt lat="44.23894" lon="5.60742">
        <ele>807.1640625</ele>
        <time>2014-07-27T10:35:05Z</time>
      </trkpt>
      <trkpt lat="44.23817" lon="5.60704">
        <ele>804.2802734</ele>
        <time>2014-07-27T10:35:19Z</time>
      </trkpt>
      <trkpt lat="44.23793" lon="5.6069">
        <ele>803.3188477</ele>
        <time>2014-07-27T10:35:23Z</time>
      </trkpt>
      <trkpt lat="44.23776" lon="5.60685">
        <ele>803.3188477</ele>
        <time>2014-07-27T10:35:26Z</time>
      </trkpt>
      <trkpt lat="44.23685" lon="5.60689">
        <ele>799.4736328</ele>
        <time>2014-07-27T10:35:38Z</time>
      </trkpt>
      <trkpt lat="44.23666" lon="5.60696">
        <ele>799.4736328</ele>
        <time>2014-07-27T10:35:40Z</time>
      </trkpt>
      <trkpt lat="44.23597" lon="5.60724">
        <ele>797.0703125</ele>
        <time>2014-07-27T10:35:48Z</time>
      </trkpt>
      <trkpt lat="44.23536" lon="5.60786">
        <ele>796.5898438</ele>
        <time>2014-07-27T10:35:57Z</time>
      </trkpt>
      <trkpt lat="44.2351" lon="5.60818">
        <ele>795.1474609</ele>
        <time>2014-07-27T10:36:01Z</time>
      </trkpt>
      <trkpt lat="44.2346" lon="5.60889">
        <ele>794.666748</ele>
        <time>2014-07-27T10:36:10Z</time>
      </trkpt>
      <trkpt lat="44.2345" lon="5.60906">
        <ele>793.2248535</ele>
        <time>2014-07-27T10:36:12Z</time>
      </trkpt>
      <trkpt lat="44.23427" lon="5.60948">
        <ele>792.7443848</ele>
        <time>2014-07-27T10:36:17Z</time>
      </trkpt>
      <trkpt lat="44.2339" lon="5.6097">
        <ele>791.782959</ele>
        <time>2014-07-27T10:36:22Z</time>
      </trkpt>
      <trkpt lat="44.23346" lon="5.60984">
        <ele>790.3410645</ele>
        <time>2014-07-27T10:36:27Z</time>
      </trkpt>
      <trkpt lat="44.23318" lon="5.61007">
        <ele>789.3796387</ele>
        <time>2014-07-27T10:36:31Z</time>
      </trkpt>
      <trkpt lat="44.23313" lon="5.61015">
        <ele>788.8991699</ele>
        <time>2014-07-27T10:36:32Z</time>
      </trkpt>
      <trkpt lat="44.23284" lon="5.61044">
        <ele>787.9377441</ele>
        <time>2014-07-27T10:36:36Z</time>
      </trkpt>
      <trkpt lat="44.23268" lon="5.61053">
        <ele>787.9377441</ele>
        <time>2014-07-27T10:36:38Z</time>
      </trkpt>
      <trkpt lat="44.2321" lon="5.61061">
        <ele>786.4958496</ele>
        <time>2014-07-27T10:36:45Z</time>
      </trkpt>
      <trkpt lat="44.23191" lon="5.6106">
        <ele>785.0539551</ele>
        <time>2014-07-27T10:36:47Z</time>
      </trkpt>
      <trkpt lat="44.23172" lon="5.61062">
        <ele>784.5732422</ele>
        <time>2014-07-27T10:36:49Z</time>
      </trkpt>
      <trkpt lat="44.23139" lon="5.61077">
        <ele>784.0925293</ele>
        <time>2014-07-27T10:36:53Z</time>
      </trkpt>
      <trkpt lat="44.23097" lon="5.61072">
        <ele>782.1699219</ele>
        <time>2014-07-27T10:36:58Z</time>
      </trkpt>
      <trkpt lat="44.22979" lon="5.61014">
        <ele>781.689209</ele>
        <time>2014-07-27T10:37:14Z</time>
      </trkpt>
      <trkpt lat="44.22929" lon="5.60995">
        <ele>780.2473145</ele>
        <time>2014-07-27T10:37:21Z</time>
      </trkpt>
      <trkpt lat="44.22863" lon="5.60997">
        <ele>778.3244629</ele>
        <time>2014-07-27T10:37:29Z</time>
      </trkpt>
      <trkpt lat="44.22779" lon="5.60994">
        <ele>775.9211426</ele>
        <time>2014-07-27T10:37:38Z</time>
      </trkpt>
      <trkpt lat="44.2276" lon="5.60998">
        <ele>774.479248</ele>
        <time>2014-07-27T10:37:40Z</time>
      </trkpt>
      <trkpt lat="44.22752" lon="5.60998">
        <ele>775.4404297</ele>
        <time>2014-07-27T10:37:41Z</time>
      </trkpt>
      <trkpt lat="44.22685" lon="5.60975">
        <ele>773.5180664</ele>
        <time>2014-07-27T10:37:49Z</time>
      </trkpt>
      <trkpt lat="44.2263" lon="5.60976">
        <ele>773.9985352</ele>
        <time>2014-07-27T10:37:56Z</time>
      </trkpt>
      <trkpt lat="44.22601" lon="5.60973">
        <ele>773.5180664</ele>
        <time>2014-07-27T10:38:00Z</time>
      </trkpt>
      <trkpt lat="44.22568" lon="5.60961">
        <ele>773.0373535</ele>
        <time>2014-07-27T10:38:05Z</time>
      </trkpt>
      <trkpt lat="44.22527" lon="5.60956">
        <ele>773.5180664</ele>
        <time>2014-07-27T10:38:11Z</time>
      </trkpt>
      <trkpt lat="44.225" lon="5.60948">
        <ele>773.5180664</ele>
        <time>2014-07-27T10:38:15Z</time>
      </trkpt>
      <trkpt lat="44.2249" lon="5.60941">
        <ele>773.9985352</ele>
        <time>2014-07-27T10:38:17Z</time>
      </trkpt>
      <trkpt lat="44.22446" lon="5.60884">
        <ele>773.5180664</ele>
        <time>2014-07-27T10:38:27Z</time>
      </trkpt>
      <trkpt lat="44.22421" lon="5.60861">
        <ele>773.0373535</ele>
        <time>2014-07-27T10:38:32Z</time>
      </trkpt>
      <trkpt lat="44.22389" lon="5.60872">
        <ele>772.0759277</ele>
        <time>2014-07-27T10:38:38Z</time>
      </trkpt>
      <trkpt lat="44.22385" lon="5.60887">
        <ele>771.5952148</ele>
        <time>2014-07-27T10:38:40Z</time>
      </trkpt>
      <trkpt lat="44.22348" lon="5.6092">
        <ele>769.1921387</ele>
        <time>2014-07-27T10:38:47Z</time>
      </trkpt>
      <trkpt lat="44.22327" lon="5.60918">
        <ele>768.2307129</ele>
        <time>2014-07-27T10:38:50Z</time>
      </trkpt>
      <trkpt lat="44.2222" lon="5.60866">
        <ele>765.3469238</ele>
        <time>2014-07-27T10:39:05Z</time>
      </trkpt>
      <trkpt lat="44.22201" lon="5.60863">
        <ele>764.385498</ele>
        <time>2014-07-27T10:39:08Z</time>
      </trkpt>
      <trkpt lat="44.22147" lon="5.60877">
        <ele>761.9821777</ele>
        <time>2014-07-27T10:39:19Z</time>
      </trkpt>
      <trkpt lat="44.22144" lon="5.6088">
        <ele>761.9821777</ele>
        <time>2014-07-27T10:39:20Z</time>
      </trkpt>
      <trkpt lat="44.2214" lon="5.60908">
        <ele>761.9821777</ele>
        <time>2014-07-27T10:39:25Z</time>
      </trkpt>
      <trkpt lat="44.22157" lon="5.60997">
        <ele>761.5014648</ele>
        <time>2014-07-27T10:39:38Z</time>
      </trkpt>
      <trkpt lat="44.22173" lon="5.61116">
        <ele>761.9821777</ele>
        <time>2014-07-27T10:39:56Z</time>
      </trkpt>
      <trkpt lat="44.22193" lon="5.61218">
        <ele>760.5400391</ele>
        <time>2014-07-27T10:40:11Z</time>
      </trkpt>
      <trkpt lat="44.22237" lon="5.61393">
        <ele>758.1369629</ele>
        <time>2014-07-27T10:40:32Z</time>
      </trkpt>
      <trkpt lat="44.22244" lon="5.61426">
        <ele>760.0593262</ele>
        <time>2014-07-27T10:40:36Z</time>
      </trkpt>
      <trkpt lat="44.22249" lon="5.6145">
        <ele>759.0981445</ele>
        <time>2014-07-27T10:40:39Z</time>
      </trkpt>
      <trkpt lat="44.22296" lon="5.61591">
        <ele>758.6174316</ele>
        <time>2014-07-27T10:40:58Z</time>
      </trkpt>
      <trkpt lat="44.22345" lon="5.61712">
        <ele>757.65625</ele>
        <time>2014-07-27T10:41:14Z</time>
      </trkpt>
      <trkpt lat="44.22395" lon="5.61842">
        <ele>754.7722168</ele>
        <time>2014-07-27T10:41:30Z</time>
      </trkpt>
      <trkpt lat="44.22413" lon="5.61913">
        <ele>756.6948242</ele>
        <time>2014-07-27T10:41:39Z</time>
      </trkpt>
      <trkpt lat="44.22467" lon="5.62027">
        <ele>755.7336426</ele>
        <time>2014-07-27T10:41:55Z</time>
      </trkpt>
      <trkpt lat="44.22474" lon="5.62042">
        <ele>755.2529297</ele>
        <time>2014-07-27T10:41:57Z</time>
      </trkpt>
      <trkpt lat="44.22517" lon="5.62149">
        <ele>755.7336426</ele>
        <time>2014-07-27T10:42:12Z</time>
      </trkpt>
      <trkpt lat="44.22533" lon="5.6227">
        <ele>756.6948242</ele>
        <time>2014-07-27T10:42:27Z</time>
      </trkpt>
      <trkpt lat="44.22534" lon="5.62278">
        <ele>756.6948242</ele>
        <time>2014-07-27T10:42:28Z</time>
      </trkpt>
      <trkpt lat="44.22545" lon="5.62341">
        <ele>755.2529297</ele>
        <time>2014-07-27T10:42:36Z</time>
      </trkpt>
      <trkpt lat="44.22585" lon="5.62447">
        <ele>756.2141113</ele>
        <time>2014-07-27T10:42:52Z</time>
      </trkpt>
      <trkpt lat="44.226" lon="5.62477">
        <ele>756.2141113</ele>
        <time>2014-07-27T10:42:57Z</time>
      </trkpt>
      <trkpt lat="44.22664" lon="5.62584">
        <ele>755.7336426</ele>
        <time>2014-07-27T10:43:14Z</time>
      </trkpt>
      <trkpt lat="44.2274" lon="5.62713">
        <ele>756.2141113</ele>
        <time>2014-07-27T10:43:34Z</time>
      </trkpt>
      <trkpt lat="44.22811" lon="5.62793">
        <ele>754.7722168</ele>
        <time>2014-07-27T10:43:49Z</time>
      </trkpt>
      <trkpt lat="44.22894" lon="5.62889">
        <ele>752.8496094</ele>
        <time>2014-07-27T10:44:05Z</time>
      </trkpt>
      <trkpt lat="44.22919" lon="5.62915">
        <ele>751.4077148</ele>
        <time>2014-07-27T10:44:09Z</time>
      </trkpt>
      <trkpt lat="44.22977" lon="5.62964">
        <ele>748.0432129</ele>
        <time>2014-07-27T10:44:17Z</time>
      </trkpt>
      <trkpt lat="44.22984" lon="5.62971">
        <ele>748.0432129</ele>
        <time>2014-07-27T10:44:18Z</time>
      </trkpt>
      <trkpt lat="44.23007" lon="5.6299">
        <ele>746.6010742</ele>
        <time>2014-07-27T10:44:21Z</time>
      </trkpt>
      <trkpt lat="44.2302" lon="5.63005">
        <ele>747.5622559</ele>
        <time>2014-07-27T10:44:23Z</time>
      </trkpt>
      <trkpt lat="44.23038" lon="5.6303">
        <ele>745.6396484</ele>
        <time>2014-07-27T10:44:26Z</time>
      </trkpt>
      <trkpt lat="44.23059" lon="5.63051">
        <ele>743.717041</ele>
        <time>2014-07-27T10:44:29Z</time>
      </trkpt>
      <trkpt lat="44.23084" lon="5.63065">
        <ele>743.2363281</ele>
        <time>2014-07-27T10:44:32Z</time>
      </trkpt>
      <trkpt lat="44.23188" lon="5.63093">
        <ele>741.3137207</ele>
        <time>2014-07-27T10:44:44Z</time>
      </trkpt>
      <trkpt lat="44.23293" lon="5.63117">
        <ele>740.3525391</ele>
        <time>2014-07-27T10:44:59Z</time>
      </trkpt>
      <trkpt lat="44.23395" lon="5.63139">
        <ele>738.9106445</ele>
        <time>2014-07-27T10:45:15Z</time>
      </trkpt>
      <trkpt lat="44.23455" lon="5.63155">
        <ele>738.4299316</ele>
        <time>2014-07-27T10:45:26Z</time>
      </trkpt>
      <trkpt lat="44.23475" lon="5.63161">
        <ele>738.4299316</ele>
        <time>2014-07-27T10:45:30Z</time>
      </trkpt>
      <trkpt lat="44.23544" lon="5.6318">
        <ele>740.3525391</ele>
        <time>2014-07-27T10:45:45Z</time>
      </trkpt>
      <trkpt lat="44.23568" lon="5.63185">
        <ele>739.8718262</ele>
        <time>2014-07-27T10:45:49Z</time>
      </trkpt>
      <trkpt lat="44.23585" lon="5.63189">
        <ele>738.9106445</ele>
        <time>2014-07-27T10:45:52Z</time>
      </trkpt>
      <trkpt lat="44.23679" lon="5.6321">
        <ele>738.4299316</ele>
        <time>2014-07-27T10:46:09Z</time>
      </trkpt>
      <trkpt lat="44.23692" lon="5.63213">
        <ele>739.8718262</ele>
        <time>2014-07-27T10:46:12Z</time>
      </trkpt>
      <trkpt lat="44.23717" lon="5.63221">
        <ele>738.4299316</ele>
        <time>2014-07-27T10:46:17Z</time>
      </trkpt>
      <trkpt lat="44.2373" lon="5.63228">
        <ele>741.7944336</ele>
        <time>2014-07-27T10:46:20Z</time>
      </trkpt>
      <trkpt lat="44.23735" lon="5.63231">
        <ele>741.7944336</ele>
        <time>2014-07-27T10:46:21Z</time>
      </trkpt>
      <trkpt lat="44.23745" lon="5.63235">
        <ele>738.4299316</ele>
        <time>2014-07-27T10:46:23Z</time>
      </trkpt>
      <trkpt lat="44.23749" lon="5.63238">
        <ele>738.4299316</ele>
        <time>2014-07-27T10:46:24Z</time>
      </trkpt>
      <trkpt lat="44.2382" lon="5.63297">
        <ele>736.5073242</ele>
        <time>2014-07-27T10:46:38Z</time>
      </trkpt>
      <trkpt lat="44.23907" lon="5.63386">
        <ele>735.5458984</ele>
        <time>2014-07-27T10:46:57Z</time>
      </trkpt>
      <trkpt lat="44.23947" lon="5.63428">
        <ele>735.5458984</ele>
        <time>2014-07-27T10:47:06Z</time>
      </trkpt>
      <trkpt lat="44.24009" lon="5.63494">
        <ele>736.0266113</ele>
        <time>2014-07-27T10:47:20Z</time>
      </trkpt>
      <trkpt lat="44.24075" lon="5.63559">
        <ele>734.5847168</ele>
        <time>2014-07-27T10:47:35Z</time>
      </trkpt>
      <trkpt lat="44.24078" lon="5.63562">
        <ele>735.5458984</ele>
        <time>2014-07-27T10:47:36Z</time>
      </trkpt>
      <trkpt lat="44.24097" lon="5.63582">
        <ele>736.0266113</ele>
        <time>2014-07-27T10:47:41Z</time>
      </trkpt>
      <trkpt lat="44.24136" lon="5.63642">
        <ele>736.987793</ele>
        <time>2014-07-27T10:47:54Z</time>
      </trkpt>
      <trkpt lat="44.24146" lon="5.63663">
        <ele>736.987793</ele>
        <time>2014-07-27T10:47:58Z</time>
      </trkpt>
      <trkpt lat="44.24184" lon="5.63768">
        <ele>736.987793</ele>
        <time>2014-07-27T10:48:13Z</time>
      </trkpt>
      <trkpt lat="44.24194" lon="5.63796">
        <ele>735.5458984</ele>
        <time>2014-07-27T10:48:17Z</time>
      </trkpt>
      <trkpt lat="44.24201" lon="5.63827">
        <ele>736.5073242</ele>
        <time>2014-07-27T10:48:21Z</time>
      </trkpt>
      <trkpt lat="44.24203" lon="5.6386">
        <ele>736.5073242</ele>
        <time>2014-07-27T10:48:25Z</time>
      </trkpt>
      <trkpt lat="44.24189" lon="5.63896">
        <ele>735.5458984</ele>
        <time>2014-07-27T10:48:30Z</time>
      </trkpt>
      <trkpt lat="44.24131" lon="5.63984">
        <ele>735.5458984</ele>
        <time>2014-07-27T10:48:44Z</time>
      </trkpt>
      <trkpt lat="44.24084" lon="5.64106">
        <ele>734.5847168</ele>
        <time>2014-07-27T10:49:01Z</time>
      </trkpt>
      <trkpt lat="44.24075" lon="5.64126">
        <ele>734.1040039</ele>
        <time>2014-07-27T10:49:04Z</time>
      </trkpt>
      <trkpt lat="44.24052" lon="5.64166">
        <ele>735.0654297</ele>
        <time>2014-07-27T10:49:11Z</time>
      </trkpt>
      <trkpt lat="44.24032" lon="5.6421">
        <ele>735.0654297</ele>
        <time>2014-07-27T10:49:18Z</time>
      </trkpt>
      <trkpt lat="44.24027" lon="5.6423">
        <ele>735.0654297</ele>
        <time>2014-07-27T10:49:21Z</time>
      </trkpt>
      <trkpt lat="44.24023" lon="5.64259">
        <ele>734.5847168</ele>
        <time>2014-07-27T10:49:25Z</time>
      </trkpt>
      <trkpt lat="44.24051" lon="5.64373">
        <ele>734.5847168</ele>
        <time>2014-07-27T10:49:40Z</time>
      </trkpt>
      <trkpt lat="44.2406" lon="5.64394">
        <ele>734.5847168</ele>
        <time>2014-07-27T10:49:43Z</time>
      </trkpt>
      <trkpt lat="44.24087" lon="5.64439">
        <ele>734.1040039</ele>
        <time>2014-07-27T10:49:50Z</time>
      </trkpt>
      <trkpt lat="44.24163" lon="5.64522">
        <ele>733.623291</ele>
        <time>2014-07-27T10:50:06Z</time>
      </trkpt>
      <trkpt lat="44.24199" lon="5.64576">
        <ele>732.6621094</ele>
        <time>2014-07-27T10:50:15Z</time>
      </trkpt>
      <trkpt lat="44.24241" lon="5.6468">
        <ele>732.6621094</ele>
        <time>2014-07-27T10:50:30Z</time>
      </trkpt>
      <trkpt lat="44.24244" lon="5.64697">
        <ele>733.1425781</ele>
        <time>2014-07-27T10:50:32Z</time>
      </trkpt>
      <trkpt lat="44.24247" lon="5.6473">
        <ele>732.6621094</ele>
        <time>2014-07-27T10:50:36Z</time>
      </trkpt>
      <trkpt lat="44.24255" lon="5.64771">
        <ele>732.6621094</ele>
        <time>2014-07-27T10:50:41Z</time>
      </trkpt>
      <trkpt lat="44.24261" lon="5.64806">
        <ele>732.1813965</ele>
        <time>2014-07-27T10:50:45Z</time>
      </trkpt>
      <trkpt lat="44.24293" lon="5.64866">
        <ele>731.7004395</ele>
        <time>2014-07-27T10:50:54Z</time>
      </trkpt>
      <trkpt lat="44.24312" lon="5.64912">
        <ele>731.7004395</ele>
        <time>2014-07-27T10:51:00Z</time>
      </trkpt>
      <trkpt lat="44.24332" lon="5.64967">
        <ele>730.7392578</ele>
        <time>2014-07-27T10:51:07Z</time>
      </trkpt>
      <trkpt lat="44.24341" lon="5.64988">
        <ele>731.2199707</ele>
        <time>2014-07-27T10:51:10Z</time>
      </trkpt>
      <trkpt lat="44.24346" lon="5.65011">
        <ele>731.2199707</ele>
        <time>2014-07-27T10:51:13Z</time>
      </trkpt>
      <trkpt lat="44.24359" lon="5.6508">
        <ele>731.7004395</ele>
        <time>2014-07-27T10:51:22Z</time>
      </trkpt>
      <trkpt lat="44.24359" lon="5.65133">
        <ele>731.7004395</ele>
        <time>2014-07-27T10:51:29Z</time>
      </trkpt>
      <trkpt lat="44.24354" lon="5.65183">
        <ele>730.7392578</ele>
        <time>2014-07-27T10:51:36Z</time>
      </trkpt>
      <trkpt lat="44.24338" lon="5.6524">
        <ele>730.7392578</ele>
        <time>2014-07-27T10:51:43Z</time>
      </trkpt>
      <trkpt lat="44.24335" lon="5.65263">
        <ele>730.7392578</ele>
        <time>2014-07-27T10:51:46Z</time>
      </trkpt>
      <trkpt lat="44.24331" lon="5.65318">
        <ele>730.2585449</ele>
        <time>2014-07-27T10:51:53Z</time>
      </trkpt>
      <trkpt lat="44.24334" lon="5.65335">
        <ele>729.2971191</ele>
        <time>2014-07-27T10:51:55Z</time>
      </trkpt>
      <trkpt lat="44.24338" lon="5.6535">
        <ele>728.8166504</ele>
        <time>2014-07-27T10:51:57Z</time>
      </trkpt>
      <trkpt lat="44.24352" lon="5.65387">
        <ele>727.8552246</ele>
        <time>2014-07-27T10:52:02Z</time>
      </trkpt>
      <trkpt lat="44.24398" lon="5.65482">
        <ele>726.894043</ele>
        <time>2014-07-27T10:52:15Z</time>
      </trkpt>
      <trkpt lat="44.24426" lon="5.65536">
        <ele>726.4133301</ele>
        <time>2014-07-27T10:52:22Z</time>
      </trkpt>
      <trkpt lat="44.24471" lon="5.65636">
        <ele>725.9326172</ele>
        <time>2014-07-27T10:52:35Z</time>
      </trkpt>
      <trkpt lat="44.24494" lon="5.65714">
        <ele>724.4907227</ele>
        <time>2014-07-27T10:52:44Z</time>
      </trkpt>
      <trkpt lat="44.24479" lon="5.65764">
        <ele>724.4907227</ele>
        <time>2014-07-27T10:52:50Z</time>
      </trkpt>
      <trkpt lat="44.24434" lon="5.6582">
        <ele>723.0488281</ele>
        <time>2014-07-27T10:52:59Z</time>
      </trkpt>
      <trkpt lat="44.24412" lon="5.65839">
        <ele>722.0874023</ele>
        <time>2014-07-27T10:53:03Z</time>
      </trkpt>
      <trkpt lat="44.2439" lon="5.65862">
        <ele>721.6066895</ele>
        <time>2014-07-27T10:53:07Z</time>
      </trkpt>
      <trkpt lat="44.24373" lon="5.65933">
        <ele>719.2036133</ele>
        <time>2014-07-27T10:53:15Z</time>
      </trkpt>
      <trkpt lat="44.24372" lon="5.65952">
        <ele>718.7229004</ele>
        <time>2014-07-27T10:53:17Z</time>
      </trkpt>
      <trkpt lat="44.24409" lon="5.66042">
        <ele>717.7614746</ele>
        <time>2014-07-27T10:53:26Z</time>
      </trkpt>
      <trkpt lat="44.24419" lon="5.66085">
        <ele>716.3195801</ele>
        <time>2014-07-27T10:53:30Z</time>
      </trkpt>
      <trkpt lat="44.24419" lon="5.66137">
        <ele>715.8388672</ele>
        <time>2014-07-27T10:53:35Z</time>
      </trkpt>
      <trkpt lat="44.24438" lon="5.66201">
        <ele>715.3581543</ele>
        <time>2014-07-27T10:53:42Z</time>
      </trkpt>
      <trkpt lat="44.2451" lon="5.66326">
        <ele>713.9160156</ele>
        <time>2014-07-27T10:53:59Z</time>
      </trkpt>
      <trkpt lat="44.24514" lon="5.66333">
        <ele>713.9160156</ele>
        <time>2014-07-27T10:54:00Z</time>
      </trkpt>
      <trkpt lat="44.2454" lon="5.66358">
        <ele>714.3967285</ele>
        <time>2014-07-27T10:54:05Z</time>
      </trkpt>
      <trkpt lat="44.24568" lon="5.66374">
        <ele>713.9160156</ele>
        <time>2014-07-27T10:54:10Z</time>
      </trkpt>
      <trkpt lat="44.24649" lon="5.66373">
        <ele>712.4741211</ele>
        <time>2014-07-27T10:54:22Z</time>
      </trkpt>
      <trkpt lat="44.24662" lon="5.66373">
        <ele>711.5129395</ele>
        <time>2014-07-27T10:54:24Z</time>
      </trkpt>
      <trkpt lat="44.2468" lon="5.6638">
        <ele>712.4741211</ele>
        <time>2014-07-27T10:54:27Z</time>
      </trkpt>
      <trkpt lat="44.24707" lon="5.66435">
        <ele>711.5129395</ele>
        <time>2014-07-27T10:54:35Z</time>
      </trkpt>
      <trkpt lat="44.24711" lon="5.66461">
        <ele>711.5129395</ele>
        <time>2014-07-27T10:54:38Z</time>
      </trkpt>
      <trkpt lat="44.24711" lon="5.66478">
        <ele>711.0322266</ele>
        <time>2014-07-27T10:54:40Z</time>
      </trkpt>
      <trkpt lat="44.24677" lon="5.66557">
        <ele>711.0322266</ele>
        <time>2014-07-27T10:54:50Z</time>
      </trkpt>
      <trkpt lat="44.24647" lon="5.66603">
        <ele>710.0708008</ele>
        <time>2014-07-27T10:54:57Z</time>
      </trkpt>
      <trkpt lat="44.24647" lon="5.66654">
        <ele>709.1096191</ele>
        <time>2014-07-27T10:55:04Z</time>
      </trkpt>
      <trkpt lat="44.24664" lon="5.66669">
        <ele>709.1096191</ele>
        <time>2014-07-27T10:55:07Z</time>
      </trkpt>
      <trkpt lat="44.24734" lon="5.66688">
        <ele>709.1096191</ele>
        <time>2014-07-27T10:55:19Z</time>
      </trkpt>
      <trkpt lat="44.2475" lon="5.66693">
        <ele>709.1096191</ele>
        <time>2014-07-27T10:55:21Z</time>
      </trkpt>
      <trkpt lat="44.24786" lon="5.66747">
        <ele>709.1096191</ele>
        <time>2014-07-27T10:55:29Z</time>
      </trkpt>
      <trkpt lat="44.2479" lon="5.66766">
        <ele>708.6289063</ele>
        <time>2014-07-27T10:55:31Z</time>
      </trkpt>
      <trkpt lat="44.24792" lon="5.66786">
        <ele>708.1484375</ele>
        <time>2014-07-27T10:55:33Z</time>
      </trkpt>
      <trkpt lat="44.24788" lon="5.66824">
        <ele>708.1484375</ele>
        <time>2014-07-27T10:55:37Z</time>
      </trkpt>
      <trkpt lat="44.24775" lon="5.66867">
        <ele>707.1870117</ele>
        <time>2014-07-27T10:55:42Z</time>
      </trkpt>
      <trkpt lat="44.24745" lon="5.66934">
        <ele>706.2255859</ele>
        <time>2014-07-27T10:55:50Z</time>
      </trkpt>
      <trkpt lat="44.24727" lon="5.66986">
        <ele>705.2644043</ele>
        <time>2014-07-27T10:55:56Z</time>
      </trkpt>
      <trkpt lat="44.24716" lon="5.6703">
        <ele>705.2644043</ele>
        <time>2014-07-27T10:56:01Z</time>
      </trkpt>
      <trkpt lat="44.24705" lon="5.6714">
        <ele>704.7836914</ele>
        <time>2014-07-27T10:56:13Z</time>
      </trkpt>
      <trkpt lat="44.24693" lon="5.67175">
        <ele>704.3032227</ele>
        <time>2014-07-27T10:56:17Z</time>
      </trkpt>
      <trkpt lat="44.24661" lon="5.67232">
        <ele>703.8225098</ele>
        <time>2014-07-27T10:56:25Z</time>
      </trkpt>
      <trkpt lat="44.24652" lon="5.67255">
        <ele>703.8225098</ele>
        <time>2014-07-27T10:56:28Z</time>
      </trkpt>
      <trkpt lat="44.24627" lon="5.67376">
        <ele>702.861084</ele>
        <time>2014-07-27T10:56:42Z</time>
      </trkpt>
      <trkpt lat="44.24574" lon="5.67465">
        <ele>703.3417969</ele>
        <time>2014-07-27T10:56:55Z</time>
      </trkpt>
      <trkpt lat="44.2455" lon="5.67508">
        <ele>703.3417969</ele>
        <time>2014-07-27T10:57:02Z</time>
      </trkpt>
      <trkpt lat="44.24543" lon="5.67536">
        <ele>703.3417969</ele>
        <time>2014-07-27T10:57:06Z</time>
      </trkpt>
      <trkpt lat="44.24548" lon="5.67617">
        <ele>702.3803711</ele>
        <time>2014-07-27T10:57:15Z</time>
      </trkpt>
      <trkpt lat="44.24549" lon="5.67627">
        <ele>702.3803711</ele>
        <time>2014-07-27T10:57:16Z</time>
      </trkpt>
      <trkpt lat="44.24543" lon="5.67664">
        <ele>701.8999023</ele>
        <time>2014-07-27T10:57:20Z</time>
      </trkpt>
      <trkpt lat="44.24525" lon="5.67775">
        <ele>701.8999023</ele>
        <time>2014-07-27T10:57:34Z</time>
      </trkpt>
      <trkpt lat="44.24522" lon="5.67854">
        <ele>700.9384766</ele>
        <time>2014-07-27T10:57:43Z</time>
      </trkpt>
      <trkpt lat="44.24525" lon="5.67982">
        <ele>699.4963379</ele>
        <time>2014-07-27T10:57:56Z</time>
      </trkpt>
      <trkpt lat="44.24526" lon="5.68073">
        <ele>699.015625</ele>
        <time>2014-07-27T10:58:05Z</time>
      </trkpt>
      <trkpt lat="44.24554" lon="5.68174">
        <ele>698.5349121</ele>
        <time>2014-07-27T10:58:16Z</time>
      </trkpt>
      <trkpt lat="44.24561" lon="5.68213">
        <ele>698.5349121</ele>
        <time>2014-07-27T10:58:20Z</time>
      </trkpt>
      <trkpt lat="44.24569" lon="5.6824">
        <ele>697.5737305</ele>
        <time>2014-07-27T10:58:23Z</time>
      </trkpt>
      <trkpt lat="44.24578" lon="5.68287">
        <ele>697.5737305</ele>
        <time>2014-07-27T10:58:28Z</time>
      </trkpt>
      <trkpt lat="44.24586" lon="5.68325">
        <ele>697.5737305</ele>
        <time>2014-07-27T10:58:32Z</time>
      </trkpt>
      <trkpt lat="44.24595" lon="5.68358">
        <ele>697.0930176</ele>
        <time>2014-07-27T10:58:36Z</time>
      </trkpt>
      <trkpt lat="44.24601" lon="5.68393">
        <ele>696.6125488</ele>
        <time>2014-07-27T10:58:40Z</time>
      </trkpt>
      <trkpt lat="44.24603" lon="5.68417">
        <ele>696.6125488</ele>
        <time>2014-07-27T10:58:43Z</time>
      </trkpt>
      <trkpt lat="44.24618" lon="5.68528">
        <ele>695.651123</ele>
        <time>2014-07-27T10:58:56Z</time>
      </trkpt>
      <trkpt lat="44.2462" lon="5.68618">
        <ele>695.1704102</ele>
        <time>2014-07-27T10:59:06Z</time>
      </trkpt>
      <trkpt lat="44.24631" lon="5.68731">
        <ele>693.2478027</ele>
        <time>2014-07-27T10:59:18Z</time>
      </trkpt>
      <trkpt lat="44.24639" lon="5.68803">
        <ele>692.767334</ele>
        <time>2014-07-27T10:59:26Z</time>
      </trkpt>
      <trkpt lat="44.24641" lon="5.68829">
        <ele>692.767334</ele>
        <time>2014-07-27T10:59:29Z</time>
      </trkpt>
      <trkpt lat="44.24644" lon="5.68864">
        <ele>694.6896973</ele>
        <time>2014-07-27T10:59:33Z</time>
      </trkpt>
      <trkpt lat="44.24646" lon="5.6888">
        <ele>693.7285156</ele>
        <time>2014-07-27T10:59:35Z</time>
      </trkpt>
      <trkpt lat="44.2465" lon="5.68913">
        <ele>692.767334</ele>
        <time>2014-07-27T10:59:39Z</time>
      </trkpt>
      <trkpt lat="44.24652" lon="5.68941">
        <ele>695.1704102</ele>
        <time>2014-07-27T10:59:42Z</time>
      </trkpt>
      <trkpt lat="44.2466" lon="5.69004">
        <ele>692.2866211</ele>
        <time>2014-07-27T10:59:50Z</time>
      </trkpt>
      <trkpt lat="44.24664" lon="5.69035">
        <ele>692.767334</ele>
        <time>2014-07-27T10:59:54Z</time>
      </trkpt>
      <trkpt lat="44.24668" lon="5.69065">
        <ele>692.2866211</ele>
        <time>2014-07-27T10:59:58Z</time>
      </trkpt>
      <trkpt lat="44.24673" lon="5.69089">
        <ele>691.8059082</ele>
        <time>2014-07-27T11:00:01Z</time>
      </trkpt>
      <trkpt lat="44.24684" lon="5.69152">
        <ele>691.8059082</ele>
        <time>2014-07-27T11:00:10Z</time>
      </trkpt>
      <trkpt lat="44.24695" lon="5.69173">
        <ele>690.8444824</ele>
        <time>2014-07-27T11:00:13Z</time>
      </trkpt>
      <trkpt lat="44.24708" lon="5.692">
        <ele>691.3251953</ele>
        <time>2014-07-27T11:00:17Z</time>
      </trkpt>
      <trkpt lat="44.24759" lon="5.69324">
        <ele>691.3251953</ele>
        <time>2014-07-27T11:00:34Z</time>
      </trkpt>
      <trkpt lat="44.24784" lon="5.69382">
        <ele>691.3251953</ele>
        <time>2014-07-27T11:00:42Z</time>
      </trkpt>
      <trkpt lat="44.24797" lon="5.69434">
        <ele>691.8059082</ele>
        <time>2014-07-27T11:00:49Z</time>
      </trkpt>
      <trkpt lat="44.248" lon="5.69465">
        <ele>692.767334</ele>
        <time>2014-07-27T11:00:53Z</time>
      </trkpt>
      <trkpt lat="44.248" lon="5.69488">
        <ele>692.2866211</ele>
        <time>2014-07-27T11:00:56Z</time>
      </trkpt>
      <trkpt lat="44.24777" lon="5.69606">
        <ele>690.8444824</ele>
        <time>2014-07-27T11:01:10Z</time>
      </trkpt>
      <trkpt lat="44.24772" lon="5.69622">
        <ele>690.3640137</ele>
        <time>2014-07-27T11:01:12Z</time>
      </trkpt>
      <trkpt lat="44.24756" lon="5.6967">
        <ele>689.8833008</ele>
        <time>2014-07-27T11:01:18Z</time>
      </trkpt>
      <trkpt lat="44.24745" lon="5.697">
        <ele>690.3640137</ele>
        <time>2014-07-27T11:01:22Z</time>
      </trkpt>
      <trkpt lat="44.2474" lon="5.69732">
        <ele>689.8833008</ele>
        <time>2014-07-27T11:01:26Z</time>
      </trkpt>
      <trkpt lat="44.24734" lon="5.69754">
        <ele>690.3640137</ele>
        <time>2014-07-27T11:01:29Z</time>
      </trkpt>
      <trkpt lat="44.24717" lon="5.6985">
        <ele>689.8833008</ele>
        <time>2014-07-27T11:01:41Z</time>
      </trkpt>
      <trkpt lat="44.24717" lon="5.69882">
        <ele>689.8833008</ele>
        <time>2014-07-27T11:01:45Z</time>
      </trkpt>
      <trkpt lat="44.24744" lon="5.69958">
        <ele>689.4025879</ele>
        <time>2014-07-27T11:01:55Z</time>
      </trkpt>
      <trkpt lat="44.24767" lon="5.70013">
        <ele>689.4025879</ele>
        <time>2014-07-27T11:02:02Z</time>
      </trkpt>
      <trkpt lat="44.24814" lon="5.70071">
        <ele>688.4414063</ele>
        <time>2014-07-27T11:02:12Z</time>
      </trkpt>
      <trkpt lat="44.24832" lon="5.70093">
        <ele>688.4414063</ele>
        <time>2014-07-27T11:02:16Z</time>
      </trkpt>
      <trkpt lat="44.24839" lon="5.70107">
        <ele>687.9606934</ele>
        <time>2014-07-27T11:02:18Z</time>
      </trkpt>
      <trkpt lat="44.24847" lon="5.70131">
        <ele>687.9606934</ele>
        <time>2014-07-27T11:02:21Z</time>
      </trkpt>
      <trkpt lat="44.24853" lon="5.70215">
        <ele>687.4799805</ele>
        <time>2014-07-27T11:02:31Z</time>
      </trkpt>
      <trkpt lat="44.24845" lon="5.70265">
        <ele>687.4799805</ele>
        <time>2014-07-27T11:02:37Z</time>
      </trkpt>
      <trkpt lat="44.24841" lon="5.70279">
        <ele>686.9992676</ele>
        <time>2014-07-27T11:02:39Z</time>
      </trkpt>
      <trkpt lat="44.24794" lon="5.70363">
        <ele>687.4799805</ele>
        <time>2014-07-27T11:02:52Z</time>
      </trkpt>
      <trkpt lat="44.24791" lon="5.70368">
        <ele>687.4799805</ele>
        <time>2014-07-27T11:02:53Z</time>
      </trkpt>
      <trkpt lat="44.24787" lon="5.7038">
        <ele>687.4799805</ele>
        <time>2014-07-27T11:02:55Z</time>
      </trkpt>
      <trkpt lat="44.24784" lon="5.70413">
        <ele>687.4799805</ele>
        <time>2014-07-27T11:03:00Z</time>
      </trkpt>
      <trkpt lat="44.24776" lon="5.70438">
        <ele>687.4799805</ele>
        <time>2014-07-27T11:03:04Z</time>
      </trkpt>
      <trkpt lat="44.24764" lon="5.70459">
        <ele>687.9606934</ele>
        <time>2014-07-27T11:03:08Z</time>
      </trkpt>
      <trkpt lat="44.24745" lon="5.70479">
        <ele>688.4414063</ele>
        <time>2014-07-27T11:03:13Z</time>
      </trkpt>
      <trkpt lat="44.24693" lon="5.70543">
        <ele>690.8444824</ele>
        <time>2014-07-27T11:03:30Z</time>
      </trkpt>
      <trkpt lat="44.24684" lon="5.70568">
        <ele>691.3251953</ele>
        <time>2014-07-27T11:03:35Z</time>
      </trkpt>
      <trkpt lat="44.24711" lon="5.70601">
        <ele>692.2866211</ele>
        <time>2014-07-27T11:03:44Z</time>
      </trkpt>
      <trkpt lat="44.24741" lon="5.70629">
        <ele>693.2478027</ele>
        <time>2014-07-27T11:03:54Z</time>
      </trkpt>
      <trkpt lat="44.24748" lon="5.70669">
        <ele>694.2092285</ele>
        <time>2014-07-27T11:04:03Z</time>
      </trkpt>
      <trkpt lat="44.24739" lon="5.70681">
        <ele>694.6896973</ele>
        <time>2014-07-27T11:04:07Z</time>
      </trkpt>
      <trkpt lat="44.24732" lon="5.70682">
        <ele>695.651123</ele>
        <time>2014-07-27T11:04:11Z</time>
      </trkpt>
      <trkpt lat="44.24728" lon="5.70681">
        <ele>696.1318359</ele>
        <time>2014-07-27T11:04:13Z</time>
      </trkpt>
      <trkpt lat="44.24691" lon="5.70685">
        <ele>698.0544434</ele>
        <time>2014-07-27T11:04:27Z</time>
      </trkpt>
      <trkpt lat="44.24648" lon="5.70692">
        <ele>700.4580078</ele>
        <time>2014-07-27T11:04:42Z</time>
      </trkpt>
      <trkpt lat="44.24626" lon="5.70698">
        <ele>702.3803711</ele>
        <time>2014-07-27T11:04:52Z</time>
      </trkpt>
      <trkpt lat="44.24624" lon="5.70722">
        <ele>703.8225098</ele>
        <time>2014-07-27T11:05:00Z</time>
      </trkpt>
      <trkpt lat="44.24644" lon="5.7076">
        <ele>705.2644043</ele>
        <time>2014-07-27T11:05:13Z</time>
      </trkpt>
      <trkpt lat="44.24656" lon="5.70789">
        <ele>706.7062988</ele>
        <time>2014-07-27T11:05:21Z</time>
      </trkpt>
      <trkpt lat="44.24672" lon="5.70815">
        <ele>705.7451172</ele>
        <time>2014-07-27T11:05:27Z</time>
      </trkpt>
      <trkpt lat="44.24694" lon="5.70833">
        <ele>705.7451172</ele>
        <time>2014-07-27T11:05:32Z</time>
      </trkpt>
      <trkpt lat="44.24712" lon="5.70842">
        <ele>704.3032227</ele>
        <time>2014-07-27T11:05:35Z</time>
      </trkpt>
      <trkpt lat="44.24737" lon="5.70858">
        <ele>702.861084</ele>
        <time>2014-07-27T11:05:39Z</time>
      </trkpt>
      <trkpt lat="44.24755" lon="5.70872">
        <ele>702.861084</ele>
        <time>2014-07-27T11:05:42Z</time>
      </trkpt>
      <trkpt lat="44.24785" lon="5.70895">
        <ele>702.3803711</ele>
        <time>2014-07-27T11:05:47Z</time>
      </trkpt>
      <trkpt lat="44.2482" lon="5.70934">
        <ele>702.861084</ele>
        <time>2014-07-27T11:05:54Z</time>
      </trkpt>
      <trkpt lat="44.24832" lon="5.70951">
        <ele>702.861084</ele>
        <time>2014-07-27T11:05:57Z</time>
      </trkpt>
      <trkpt lat="44.24917" lon="5.71053">
        <ele>699.9770508</ele>
        <time>2014-07-27T11:06:15Z</time>
      </trkpt>
      <trkpt lat="44.2492" lon="5.7106">
        <ele>699.9770508</ele>
        <time>2014-07-27T11:06:16Z</time>
      </trkpt>
      <trkpt lat="44.24968" lon="5.71125">
        <ele>697.5737305</ele>
        <time>2014-07-27T11:06:25Z</time>
      </trkpt>
      <trkpt lat="44.25015" lon="5.71189">
        <ele>694.6896973</ele>
        <time>2014-07-27T11:06:33Z</time>
      </trkpt>
      <trkpt lat="44.2505" lon="5.71249">
        <ele>692.767334</ele>
        <time>2014-07-27T11:06:39Z</time>
      </trkpt>
      <trkpt lat="44.25074" lon="5.71306">
        <ele>690.8444824</ele>
        <time>2014-07-27T11:06:44Z</time>
      </trkpt>
      <trkpt lat="44.25114" lon="5.71406">
        <ele>689.4025879</ele>
        <time>2014-07-27T11:06:53Z</time>
      </trkpt>
      <trkpt lat="44.25126" lon="5.7143">
        <ele>691.3251953</ele>
        <time>2014-07-27T11:06:56Z</time>
      </trkpt>
      <trkpt lat="44.25155" lon="5.71467">
        <ele>690.8444824</ele>
        <time>2014-07-27T11:07:02Z</time>
      </trkpt>
      <trkpt lat="44.25174" lon="5.71487">
        <ele>690.3640137</ele>
        <time>2014-07-27T11:07:06Z</time>
      </trkpt>
      <trkpt lat="44.25203" lon="5.71517">
        <ele>690.8444824</ele>
        <time>2014-07-27T11:07:12Z</time>
      </trkpt>
      <trkpt lat="44.25233" lon="5.71546">
        <ele>690.8444824</ele>
        <time>2014-07-27T11:07:18Z</time>
      </trkpt>
      <trkpt lat="44.25321" lon="5.71639">
        <ele>689.4025879</ele>
        <time>2014-07-27T11:07:35Z</time>
      </trkpt>
      <trkpt lat="44.25357" lon="5.71684">
        <ele>688.9221191</ele>
        <time>2014-07-27T11:07:43Z</time>
      </trkpt>
      <trkpt lat="44.2538" lon="5.71704">
        <ele>689.4025879</ele>
        <time>2014-07-27T11:07:48Z</time>
      </trkpt>
      <trkpt lat="44.25413" lon="5.71719">
        <ele>688.4414063</ele>
        <time>2014-07-27T11:07:54Z</time>
      </trkpt>
      <trkpt lat="44.25467" lon="5.71759">
        <ele>688.4414063</ele>
        <time>2014-07-27T11:08:05Z</time>
      </trkpt>
      <trkpt lat="44.25489" lon="5.71772">
        <ele>688.9221191</ele>
        <time>2014-07-27T11:08:09Z</time>
      </trkpt>
      <trkpt lat="44.25507" lon="5.71779">
        <ele>688.4414063</ele>
        <time>2014-07-27T11:08:12Z</time>
      </trkpt>
      <trkpt lat="44.25529" lon="5.71792">
        <ele>688.4414063</ele>
        <time>2014-07-27T11:08:16Z</time>
      </trkpt>
      <trkpt lat="44.25555" lon="5.71814">
        <ele>687.9606934</ele>
        <time>2014-07-27T11:08:21Z</time>
      </trkpt>
      <trkpt lat="44.25649" lon="5.71899">
        <ele>686.9992676</ele>
        <time>2014-07-27T11:08:39Z</time>
      </trkpt>
      <trkpt lat="44.25703" lon="5.71924">
        <ele>686.9992676</ele>
        <time>2014-07-27T11:08:48Z</time>
      </trkpt>
      <trkpt lat="44.25742" lon="5.7196">
        <ele>685.557373</ele>
        <time>2014-07-27T11:08:56Z</time>
      </trkpt>
      <trkpt lat="44.25761" lon="5.71975">
        <ele>685.0769043</ele>
        <time>2014-07-27T11:09:00Z</time>
      </trkpt>
      <trkpt lat="44.25799" lon="5.72002">
        <ele>684.5961914</ele>
        <time>2014-07-27T11:09:08Z</time>
      </trkpt>
      <trkpt lat="44.2588" lon="5.72058">
        <ele>685.0769043</ele>
        <time>2014-07-27T11:09:25Z</time>
      </trkpt>
      <trkpt lat="44.25894" lon="5.72069">
        <ele>685.0769043</ele>
        <time>2014-07-27T11:09:28Z</time>
      </trkpt>
      <trkpt lat="44.25925" lon="5.72111">
        <ele>684.5961914</ele>
        <time>2014-07-27T11:09:36Z</time>
      </trkpt>
      <trkpt lat="44.2594" lon="5.72132">
        <ele>684.5961914</ele>
        <time>2014-07-27T11:09:40Z</time>
      </trkpt>
      <trkpt lat="44.25951" lon="5.7215">
        <ele>684.5961914</ele>
        <time>2014-07-27T11:09:43Z</time>
      </trkpt>
      <trkpt lat="44.2596" lon="5.72167">
        <ele>685.557373</ele>
        <time>2014-07-27T11:09:46Z</time>
      </trkpt>
      <trkpt lat="44.25973" lon="5.72195">
        <ele>686.9992676</ele>
        <time>2014-07-27T11:09:51Z</time>
      </trkpt>
      <trkpt lat="44.25981" lon="5.7221">
        <ele>686.5187988</ele>
        <time>2014-07-27T11:09:54Z</time>
      </trkpt>
      <trkpt lat="44.25992" lon="5.72235">
        <ele>686.9992676</ele>
        <time>2014-07-27T11:09:58Z</time>
      </trkpt>
      <trkpt lat="44.26001" lon="5.72252">
        <ele>686.9992676</ele>
        <time>2014-07-27T11:10:01Z</time>
      </trkpt>
      <trkpt lat="44.26007" lon="5.72264">
        <ele>686.0380859</ele>
        <time>2014-07-27T11:10:03Z</time>
      </trkpt>
      <trkpt lat="44.26053" lon="5.72358">
        <ele>685.0769043</ele>
        <time>2014-07-27T11:10:19Z</time>
      </trkpt>
      <trkpt lat="44.26074" lon="5.72404">
        <ele>685.0769043</ele>
        <time>2014-07-27T11:10:27Z</time>
      </trkpt>
      <trkpt lat="44.26082" lon="5.72429">
        <ele>685.557373</ele>
        <time>2014-07-27T11:10:31Z</time>
      </trkpt>
      <trkpt lat="44.26095" lon="5.72489">
        <ele>685.0769043</ele>
        <time>2014-07-27T11:10:41Z</time>
      </trkpt>
      <trkpt lat="44.26115" lon="5.72572">
        <ele>686.0380859</ele>
        <time>2014-07-27T11:10:56Z</time>
      </trkpt>
      <trkpt lat="44.26131" lon="5.72632">
        <ele>686.5187988</ele>
        <time>2014-07-27T11:11:09Z</time>
      </trkpt>
      <trkpt lat="44.26135" lon="5.72653">
        <ele>685.557373</ele>
        <time>2014-07-27T11:11:13Z</time>
      </trkpt>
      <trkpt lat="44.26161" lon="5.72764">
        <ele>683.6345215</ele>
        <time>2014-07-27T11:11:28Z</time>
      </trkpt>
      <trkpt lat="44.26163" lon="5.72802">
        <ele>682.6733398</ele>
        <time>2014-07-27T11:11:32Z</time>
      </trkpt>
      <trkpt lat="44.26159" lon="5.72927">
        <ele>678.828125</ele>
        <time>2014-07-27T11:11:44Z</time>
      </trkpt>
      <trkpt lat="44.26159" lon="5.72938">
        <ele>678.828125</ele>
        <time>2014-07-27T11:11:45Z</time>
      </trkpt>
      <trkpt lat="44.26157" lon="5.73031">
        <ele>675.4633789</ele>
        <time>2014-07-27T11:11:53Z</time>
      </trkpt>
      <trkpt lat="44.26157" lon="5.73042">
        <ele>675.4633789</ele>
        <time>2014-07-27T11:11:54Z</time>
      </trkpt>
      <trkpt lat="44.26157" lon="5.73087">
        <ele>674.0214844</ele>
        <time>2014-07-27T11:11:58Z</time>
      </trkpt>
      <trkpt lat="44.26172" lon="5.7314">
        <ele>673.0603027</ele>
        <time>2014-07-27T11:12:03Z</time>
      </trkpt>
      <trkpt lat="44.26201" lon="5.73233">
        <ele>672.5795898</ele>
        <time>2014-07-27T11:12:14Z</time>
      </trkpt>
      <trkpt lat="44.26212" lon="5.73262">
        <ele>672.098877</ele>
        <time>2014-07-27T11:12:18Z</time>
      </trkpt>
      <trkpt lat="44.26218" lon="5.73284">
        <ele>671.6181641</ele>
        <time>2014-07-27T11:12:21Z</time>
      </trkpt>
      <trkpt lat="44.26247" lon="5.73372">
        <ele>670.6569824</ele>
        <time>2014-07-27T11:12:34Z</time>
      </trkpt>
      <trkpt lat="44.26255" lon="5.73395">
        <ele>671.6181641</ele>
        <time>2014-07-27T11:12:38Z</time>
      </trkpt>
      <trkpt lat="44.2626" lon="5.73415">
        <ele>669.6958008</ele>
        <time>2014-07-27T11:12:41Z</time>
      </trkpt>
      <trkpt lat="44.26272" lon="5.73483">
        <ele>669.6958008</ele>
        <time>2014-07-27T11:12:50Z</time>
      </trkpt>
      <trkpt lat="44.26281" lon="5.73539">
        <ele>668.734375</ele>
        <time>2014-07-27T11:12:57Z</time>
      </trkpt>
      <trkpt lat="44.2629" lon="5.73607">
        <ele>668.2536621</ele>
        <time>2014-07-27T11:13:06Z</time>
      </trkpt>
      <trkpt lat="44.26309" lon="5.73757">
        <ele>667.2922363</ele>
        <time>2014-07-27T11:13:25Z</time>
      </trkpt>
      <trkpt lat="44.2631" lon="5.73774">
        <ele>667.7727051</ele>
        <time>2014-07-27T11:13:27Z</time>
      </trkpt>
      <trkpt lat="44.26321" lon="5.73907">
        <ele>669.2150879</ele>
        <time>2014-07-27T11:13:45Z</time>
      </trkpt>
      <trkpt lat="44.26328" lon="5.74013">
        <ele>670.1762695</ele>
        <time>2014-07-27T11:14:00Z</time>
      </trkpt>
      <trkpt lat="44.26337" lon="5.74155">
        <ele>669.2150879</ele>
        <time>2014-07-27T11:14:18Z</time>
      </trkpt>
      <trkpt lat="44.26344" lon="5.74275">
        <ele>668.2536621</ele>
        <time>2014-07-27T11:14:33Z</time>
      </trkpt>
      <trkpt lat="44.26349" lon="5.74348">
        <ele>667.2922363</ele>
        <time>2014-07-27T11:14:42Z</time>
      </trkpt>
      <trkpt lat="44.2636" lon="5.74392">
        <ele>665.8503418</ele>
        <time>2014-07-27T11:14:47Z</time>
      </trkpt>
      <trkpt lat="44.2635" lon="5.74466">
        <ele>663.4470215</ele>
        <time>2014-07-27T11:14:54Z</time>
      </trkpt>
      <trkpt lat="44.26339" lon="5.74483">
        <ele>663.4470215</ele>
        <time>2014-07-27T11:14:56Z</time>
      </trkpt>
      <trkpt lat="44.26318" lon="5.74529">
        <ele>662.005127</ele>
        <time>2014-07-27T11:15:01Z</time>
      </trkpt>
      <trkpt lat="44.26289" lon="5.74598">
        <ele>661.0437012</ele>
        <time>2014-07-27T11:15:09Z</time>
      </trkpt>
      <trkpt lat="44.26291" lon="5.74666">
        <ele>660.0822754</ele>
        <time>2014-07-27T11:15:16Z</time>
      </trkpt>
      <trkpt lat="44.26322" lon="5.74742">
        <ele>657.1984863</ele>
        <time>2014-07-27T11:15:24Z</time>
      </trkpt>
      <trkpt lat="44.26333" lon="5.74773">
        <ele>657.1984863</ele>
        <time>2014-07-27T11:15:27Z</time>
      </trkpt>
      <trkpt lat="44.26342" lon="5.74792">
        <ele>656.2370605</ele>
        <time>2014-07-27T11:15:29Z</time>
      </trkpt>
      <trkpt lat="44.26379" lon="5.74854">
        <ele>653.8339844</ele>
        <time>2014-07-27T11:15:36Z</time>
      </trkpt>
      <trkpt lat="44.26383" lon="5.74864">
        <ele>654.3146973</ele>
        <time>2014-07-27T11:15:37Z</time>
      </trkpt>
      <trkpt lat="44.26395" lon="5.74909">
        <ele>651.4304199</ele>
        <time>2014-07-27T11:15:41Z</time>
      </trkpt>
      <trkpt lat="44.2642" lon="5.74977">
        <ele>649.9885254</ele>
        <time>2014-07-27T11:15:47Z</time>
      </trkpt>
      <trkpt lat="44.26483" lon="5.75095">
        <ele>648.065918</ele>
        <time>2014-07-27T11:16:00Z</time>
      </trkpt>
      <trkpt lat="44.26538" lon="5.75177">
        <ele>648.065918</ele>
        <time>2014-07-27T11:16:12Z</time>
      </trkpt>
      <trkpt lat="44.26575" lon="5.75242">
        <ele>647.1044922</ele>
        <time>2014-07-27T11:16:20Z</time>
      </trkpt>
      <trkpt lat="44.26628" lon="5.75375">
        <ele>645.1818848</ele>
        <time>2014-07-27T11:16:35Z</time>
      </trkpt>
      <trkpt lat="44.26668" lon="5.75455">
        <ele>644.7011719</ele>
        <time>2014-07-27T11:16:45Z</time>
      </trkpt>
      <trkpt lat="44.26675" lon="5.7549">
        <ele>644.2207031</ele>
        <time>2014-07-27T11:16:49Z</time>
      </trkpt>
      <trkpt lat="44.26686" lon="5.75588">
        <ele>645.1818848</ele>
        <time>2014-07-27T11:17:02Z</time>
      </trkpt>
      <trkpt lat="44.26691" lon="5.75613">
        <ele>645.6625977</ele>
        <time>2014-07-27T11:17:06Z</time>
      </trkpt>
      <trkpt lat="44.2672" lon="5.7565">
        <ele>646.6240234</ele>
        <time>2014-07-27T11:17:15Z</time>
      </trkpt>
      <trkpt lat="44.2672" lon="5.75687">
        <ele>645.6625977</ele>
        <time>2014-07-27T11:17:22Z</time>
      </trkpt>
      <trkpt lat="44.26703" lon="5.75713">
        <ele>644.7011719</ele>
        <time>2014-07-27T11:17:27Z</time>
      </trkpt>
      <trkpt lat="44.26695" lon="5.75752">
        <ele>643.7399902</ele>
        <time>2014-07-27T11:17:32Z</time>
      </trkpt>
      <trkpt lat="44.26694" lon="5.75776">
        <ele>643.2592773</ele>
        <time>2014-07-27T11:17:35Z</time>
      </trkpt>
      <trkpt lat="44.26715" lon="5.75896">
        <ele>643.2592773</ele>
        <time>2014-07-27T11:17:51Z</time>
      </trkpt>
      <trkpt lat="44.26756" lon="5.75983">
        <ele>643.2592773</ele>
        <time>2014-07-27T11:18:05Z</time>
      </trkpt>
      <trkpt lat="44.26823" lon="5.76065">
        <ele>643.2592773</ele>
        <time>2014-07-27T11:18:21Z</time>
      </trkpt>
      <trkpt lat="44.26847" lon="5.761">
        <ele>643.7399902</ele>
        <time>2014-07-27T11:18:27Z</time>
      </trkpt>
      <trkpt lat="44.26865" lon="5.7615">
        <ele>643.7399902</ele>
        <time>2014-07-27T11:18:34Z</time>
      </trkpt>
      <trkpt lat="44.26868" lon="5.76166">
        <ele>643.7399902</ele>
        <time>2014-07-27T11:18:36Z</time>
      </trkpt>
      <trkpt lat="44.26869" lon="5.76205">
        <ele>643.7399902</ele>
        <time>2014-07-27T11:18:41Z</time>
      </trkpt>
      <trkpt lat="44.26866" lon="5.76228">
        <ele>643.7399902</ele>
        <time>2014-07-27T11:18:44Z</time>
      </trkpt>
      <trkpt lat="44.26838" lon="5.76275">
        <ele>643.2592773</ele>
        <time>2014-07-27T11:18:52Z</time>
      </trkpt>
      <trkpt lat="44.26809" lon="5.76291">
        <ele>643.2592773</ele>
        <time>2014-07-27T11:18:58Z</time>
      </trkpt>
      <trkpt lat="44.26738" lon="5.76313">
        <ele>642.7788086</ele>
        <time>2014-07-27T11:19:11Z</time>
      </trkpt>
      <trkpt lat="44.2667" lon="5.76346">
        <ele>642.7788086</ele>
        <time>2014-07-27T11:19:24Z</time>
      </trkpt>
      <trkpt lat="44.26599" lon="5.76369">
        <ele>642.7788086</ele>
        <time>2014-07-27T11:19:37Z</time>
      </trkpt>
      <trkpt lat="44.26584" lon="5.76375">
        <ele>642.2980957</ele>
        <time>2014-07-27T11:19:39Z</time>
      </trkpt>
      <trkpt lat="44.26541" lon="5.76431">
        <ele>642.7788086</ele>
        <time>2014-07-27T11:19:48Z</time>
      </trkpt>
      <trkpt lat="44.26539" lon="5.76453">
        <ele>642.7788086</ele>
        <time>2014-07-27T11:19:51Z</time>
      </trkpt>
      <trkpt lat="44.2656" lon="5.76482">
        <ele>642.2980957</ele>
        <time>2014-07-27T11:19:56Z</time>
      </trkpt>
      <trkpt lat="44.26582" lon="5.76496">
        <ele>641.8173828</ele>
        <time>2014-07-27T11:20:00Z</time>
      </trkpt>
      <trkpt lat="44.26594" lon="5.76506">
        <ele>641.8173828</ele>
        <time>2014-07-27T11:20:02Z</time>
      </trkpt>
      <trkpt lat="44.26604" lon="5.76519">
        <ele>640.3754883</ele>
        <time>2014-07-27T11:20:04Z</time>
      </trkpt>
      <trkpt lat="44.26619" lon="5.76561">
        <ele>640.3754883</ele>
        <time>2014-07-27T11:20:09Z</time>
      </trkpt>
      <trkpt lat="44.26635" lon="5.76591">
        <ele>639.4140625</ele>
        <time>2014-07-27T11:20:14Z</time>
      </trkpt>
      <trkpt lat="44.26625" lon="5.7662">
        <ele>638.9335938</ele>
        <time>2014-07-27T11:20:18Z</time>
      </trkpt>
      <trkpt lat="44.26625" lon="5.76667">
        <ele>637.4914551</ele>
        <time>2014-07-27T11:20:27Z</time>
      </trkpt>
      <trkpt lat="44.26591" lon="5.76702">
        <ele>635.0881348</ele>
        <time>2014-07-27T11:20:34Z</time>
      </trkpt>
      <trkpt lat="44.26573" lon="5.76725">
        <ele>634.6074219</ele>
        <time>2014-07-27T11:20:37Z</time>
      </trkpt>
      <trkpt lat="44.26554" lon="5.76763">
        <ele>634.126709</ele>
        <time>2014-07-27T11:20:41Z</time>
      </trkpt>
      <trkpt lat="44.26546" lon="5.76781">
        <ele>633.6459961</ele>
        <time>2014-07-27T11:20:43Z</time>
      </trkpt>
      <trkpt lat="44.2651" lon="5.76831">
        <ele>630.762207</ele>
        <time>2014-07-27T11:20:50Z</time>
      </trkpt>
      <trkpt lat="44.26497" lon="5.76852">
        <ele>629.3200684</ele>
        <time>2014-07-27T11:20:57Z</time>
      </trkpt>
      <trkpt lat="44.26492" lon="5.76848">
        <ele>629.3200684</ele>
        <time>2014-07-27T11:21:39Z</time>
      </trkpt>
      <trkpt lat="44.26471" lon="5.76869">
        <ele>628.3588867</ele>
        <time>2014-07-27T11:22:16Z</time>
      </trkpt>
      <trkpt lat="44.26468" lon="5.76884">
        <ele>627.8781738</ele>
        <time>2014-07-27T11:22:18Z</time>
      </trkpt>
      <trkpt lat="44.26489" lon="5.76927">
        <ele>625.9555664</ele>
        <time>2014-07-27T11:22:25Z</time>
      </trkpt>
      <trkpt lat="44.26547" lon="5.7694">
        <ele>624.5136719</ele>
        <time>2014-07-27T11:22:31Z</time>
      </trkpt>
      <trkpt lat="44.26592" lon="5.76952">
        <ele>623.5524902</ele>
        <time>2014-07-27T11:22:37Z</time>
      </trkpt>
      <trkpt lat="44.26612" lon="5.76924">
        <ele>622.1103516</ele>
        <time>2014-07-27T11:22:40Z</time>
      </trkpt>
      <trkpt lat="44.26633" lon="5.76939">
        <ele>622.5910645</ele>
        <time>2014-07-27T11:22:44Z</time>
      </trkpt>
      <trkpt lat="44.26681" lon="5.76944">
        <ele>622.5910645</ele>
        <time>2014-07-27T11:22:50Z</time>
      </trkpt>
      <trkpt lat="44.26691" lon="5.76954">
        <ele>622.5910645</ele>
        <time>2014-07-27T11:22:52Z</time>
      </trkpt>
      <trkpt lat="44.26704" lon="5.76976">
        <ele>622.1103516</ele>
        <time>2014-07-27T11:22:56Z</time>
      </trkpt>
      <trkpt lat="44.26695" lon="5.7703">
        <ele>622.5910645</ele>
        <time>2014-07-27T11:23:02Z</time>
      </trkpt>
      <trkpt lat="44.26665" lon="5.77092">
        <ele>622.5910645</ele>
        <time>2014-07-27T11:23:09Z</time>
      </trkpt>
      <trkpt lat="44.26664" lon="5.77129">
        <ele>622.5910645</ele>
        <time>2014-07-27T11:23:19Z</time>
      </trkpt>
      <trkpt lat="44.26633" lon="5.77171">
        <ele>624.032959</ele>
        <time>2014-07-27T11:23:31Z</time>
      </trkpt>
      <trkpt lat="44.2663" lon="5.77174">
        <ele>624.032959</ele>
        <time>2014-07-27T11:23:32Z</time>
      </trkpt>
      <trkpt lat="44.26617" lon="5.77188">
        <ele>623.0717773</ele>
        <time>2014-07-27T11:23:36Z</time>
      </trkpt>
      <trkpt lat="44.26595" lon="5.77222">
        <ele>622.5910645</ele>
        <time>2014-07-27T11:23:42Z</time>
      </trkpt>
      <trkpt lat="44.266" lon="5.77259">
        <ele>622.5910645</ele>
        <time>2014-07-27T11:23:47Z</time>
      </trkpt>
      <trkpt lat="44.26616" lon="5.77282">
        <ele>622.5910645</ele>
        <time>2014-07-27T11:23:51Z</time>
      </trkpt>
      <trkpt lat="44.26652" lon="5.77314">
        <ele>623.0717773</ele>
        <time>2014-07-27T11:23:58Z</time>
      </trkpt>
      <trkpt lat="44.26667" lon="5.7734">
        <ele>622.5910645</ele>
        <time>2014-07-27T11:24:02Z</time>
      </trkpt>
      <trkpt lat="44.26701" lon="5.77442">
        <ele>622.5910645</ele>
        <time>2014-07-27T11:24:16Z</time>
      </trkpt>
      <trkpt lat="44.26755" lon="5.77542">
        <ele>622.5910645</ele>
        <time>2014-07-27T11:24:32Z</time>
      </trkpt>
      <trkpt lat="44.26763" lon="5.77553">
        <ele>622.5910645</ele>
        <time>2014-07-27T11:24:34Z</time>
      </trkpt>
      <trkpt lat="44.26777" lon="5.77565">
        <ele>622.1103516</ele>
        <time>2014-07-27T11:24:37Z</time>
      </trkpt>
      <trkpt lat="44.268" lon="5.77563">
        <ele>622.1103516</ele>
        <time>2014-07-27T11:24:41Z</time>
      </trkpt>
      <trkpt lat="44.26849" lon="5.77527">
        <ele>622.1103516</ele>
        <time>2014-07-27T11:24:50Z</time>
      </trkpt>
      <trkpt lat="44.26917" lon="5.77463">
        <ele>621.6296387</ele>
        <time>2014-07-27T11:25:05Z</time>
      </trkpt>
      <trkpt lat="44.26924" lon="5.7746">
        <ele>621.6296387</ele>
        <time>2014-07-27T11:25:06Z</time>
      </trkpt>
      <trkpt lat="44.2694" lon="5.77453">
        <ele>621.1491699</ele>
        <time>2014-07-27T11:25:09Z</time>
      </trkpt>
      <trkpt lat="44.26974" lon="5.77434">
        <ele>621.1491699</ele>
        <time>2014-07-27T11:25:16Z</time>
      </trkpt>
      <trkpt lat="44.26984" lon="5.77433">
        <ele>621.1491699</ele>
        <time>2014-07-27T11:25:18Z</time>
      </trkpt>
      <trkpt lat="44.26993" lon="5.77436">
        <ele>621.1491699</ele>
        <time>2014-07-27T11:25:20Z</time>
      </trkpt>
      <trkpt lat="44.27034" lon="5.77472">
        <ele>620.668457</ele>
        <time>2014-07-27T11:25:32Z</time>
      </trkpt>
      <trkpt lat="44.27054" lon="5.77477">
        <ele>620.668457</ele>
        <time>2014-07-27T11:25:36Z</time>
      </trkpt>
      <trkpt lat="44.27066" lon="5.7748">
        <ele>621.1491699</ele>
        <time>2014-07-27T11:25:38Z</time>
      </trkpt>
      <trkpt lat="44.27075" lon="5.77496">
        <ele>619.7070313</ele>
        <time>2014-07-27T11:25:40Z</time>
      </trkpt>
      <trkpt lat="44.27102" lon="5.7756">
        <ele>619.2263184</ele>
        <time>2014-07-27T11:25:47Z</time>
      </trkpt>
      <trkpt lat="44.2712" lon="5.77622">
        <ele>618.2648926</ele>
        <time>2014-07-27T11:25:54Z</time>
      </trkpt>
      <trkpt lat="44.27128" lon="5.77667">
        <ele>617.3037109</ele>
        <time>2014-07-27T11:25:59Z</time>
      </trkpt>
      <trkpt lat="44.27148" lon="5.77702">
        <ele>616.3422852</ele>
        <time>2014-07-27T11:26:04Z</time>
      </trkpt>
      <trkpt lat="44.2722" lon="5.77746">
        <ele>614.9003906</ele>
        <time>2014-07-27T11:26:14Z</time>
      </trkpt>
      <trkpt lat="44.27242" lon="5.77747">
        <ele>613.9389648</ele>
        <time>2014-07-27T11:26:17Z</time>
      </trkpt>
      <trkpt lat="44.2725" lon="5.77745">
        <ele>613.4584961</ele>
        <time>2014-07-27T11:26:18Z</time>
      </trkpt>
      <trkpt lat="44.27286" lon="5.77736">
        <ele>612.4970703</ele>
        <time>2014-07-27T11:26:23Z</time>
      </trkpt>
      <trkpt lat="44.27298" lon="5.77772">
        <ele>612.0166016</ele>
        <time>2014-07-27T11:26:29Z</time>
      </trkpt>
      <trkpt lat="44.27298" lon="5.77785">
        <ele>612.0166016</ele>
        <time>2014-07-27T11:26:31Z</time>
      </trkpt>
      <trkpt lat="44.27336" lon="5.77834">
        <ele>611.5358887</ele>
        <time>2014-07-27T11:26:39Z</time>
      </trkpt>
      <trkpt lat="44.27407" lon="5.77938">
        <ele>610.09375</ele>
        <time>2014-07-27T11:26:55Z</time>
      </trkpt>
      <trkpt lat="44.27409" lon="5.77945">
        <ele>610.09375</ele>
        <time>2014-07-27T11:26:56Z</time>
      </trkpt>
      <trkpt lat="44.27412" lon="5.77978">
        <ele>609.6132813</ele>
        <time>2014-07-27T11:27:00Z</time>
      </trkpt>
      <trkpt lat="44.2741" lon="5.77994">
        <ele>609.6132813</ele>
        <time>2014-07-27T11:27:02Z</time>
      </trkpt>
      <trkpt lat="44.27418" lon="5.78025">
        <ele>608.6518555</ele>
        <time>2014-07-27T11:27:06Z</time>
      </trkpt>
      <trkpt lat="44.27473" lon="5.78099">
        <ele>608.1713867</ele>
        <time>2014-07-27T11:27:18Z</time>
      </trkpt>
      <trkpt lat="44.27533" lon="5.7817">
        <ele>606.729248</ele>
        <time>2014-07-27T11:27:30Z</time>
      </trkpt>
      <trkpt lat="44.2755" lon="5.78256">
        <ele>606.2485352</ele>
        <time>2014-07-27T11:27:41Z</time>
      </trkpt>
      <trkpt lat="44.27539" lon="5.7828">
        <ele>605.7680664</ele>
        <time>2014-07-27T11:27:45Z</time>
      </trkpt>
      <trkpt lat="44.27504" lon="5.78304">
        <ele>605.7680664</ele>
        <time>2014-07-27T11:27:52Z</time>
      </trkpt>
      <trkpt lat="44.27479" lon="5.78329">
        <ele>605.2873535</ele>
        <time>2014-07-27T11:27:58Z</time>
      </trkpt>
      <trkpt lat="44.27469" lon="5.78344">
        <ele>604.8066406</ele>
        <time>2014-07-27T11:28:01Z</time>
      </trkpt>
      <trkpt lat="44.2748" lon="5.78383">
        <ele>605.2873535</ele>
        <time>2014-07-27T11:28:08Z</time>
      </trkpt>
      <trkpt lat="44.27488" lon="5.78392">
        <ele>602.8837891</ele>
        <time>2014-07-27T11:28:10Z</time>
      </trkpt>
      <trkpt lat="44.27492" lon="5.78396">
        <ele>603.364502</ele>
        <time>2014-07-27T11:28:11Z</time>
      </trkpt>
      <trkpt lat="44.27505" lon="5.78407">
        <ele>602.8837891</ele>
        <time>2014-07-27T11:28:14Z</time>
      </trkpt>
      <trkpt lat="44.27532" lon="5.78418">
        <ele>602.4030762</ele>
        <time>2014-07-27T11:28:19Z</time>
      </trkpt>
      <trkpt lat="44.27548" lon="5.7842">
        <ele>601.9226074</ele>
        <time>2014-07-27T11:28:22Z</time>
      </trkpt>
      <trkpt lat="44.27569" lon="5.78414">
        <ele>600.9611816</ele>
        <time>2014-07-27T11:28:26Z</time>
      </trkpt>
      <trkpt lat="44.27607" lon="5.78388">
        <ele>600</ele>
        <time>2014-07-27T11:28:33Z</time>
      </trkpt>
      <trkpt lat="44.27652" lon="5.78352">
        <ele>599.0385742</ele>
        <time>2014-07-27T11:28:41Z</time>
      </trkpt>
      <trkpt lat="44.27691" lon="5.78323">
        <ele>598.5578613</ele>
        <time>2014-07-27T11:28:47Z</time>
      </trkpt>
      <trkpt lat="44.2774" lon="5.78266">
        <ele>597.1159668</ele>
        <time>2014-07-27T11:28:55Z</time>
      </trkpt>
      <trkpt lat="44.27761" lon="5.78249">
        <ele>596.635498</ele>
        <time>2014-07-27T11:28:58Z</time>
      </trkpt>
      <trkpt lat="44.27794" lon="5.78215">
        <ele>595.6740723</ele>
        <time>2014-07-27T11:29:03Z</time>
      </trkpt>
      <trkpt lat="44.27816" lon="5.78199">
        <ele>594.2321777</ele>
        <time>2014-07-27T11:29:06Z</time>
      </trkpt>
      <trkpt lat="44.27833" lon="5.7819">
        <ele>594.7126465</ele>
        <time>2014-07-27T11:29:08Z</time>
      </trkpt>
      <trkpt lat="44.27883" lon="5.78203">
        <ele>594.2321777</ele>
        <time>2014-07-27T11:29:15Z</time>
      </trkpt>
      <trkpt lat="44.2789" lon="5.78219">
        <ele>592.7902832</ele>
        <time>2014-07-27T11:29:17Z</time>
      </trkpt>
      <trkpt lat="44.27911" lon="5.78252">
        <ele>593.270752</ele>
        <time>2014-07-27T11:29:21Z</time>
      </trkpt>
      <trkpt lat="44.27942" lon="5.7835">
        <ele>591.3481445</ele>
        <time>2014-07-27T11:29:32Z</time>
      </trkpt>
      <trkpt lat="44.2795" lon="5.78393">
        <ele>591.8288574</ele>
        <time>2014-07-27T11:29:37Z</time>
      </trkpt>
      <trkpt lat="44.27966" lon="5.7852">
        <ele>590.3869629</ele>
        <time>2014-07-27T11:29:51Z</time>
      </trkpt>
      <trkpt lat="44.27963" lon="5.78565">
        <ele>589.4255371</ele>
        <time>2014-07-27T11:29:56Z</time>
      </trkpt>
      <trkpt lat="44.27958" lon="5.78581">
        <ele>588.9450684</ele>
        <time>2014-07-27T11:29:58Z</time>
      </trkpt>
      <trkpt lat="44.27957" lon="5.78607">
        <ele>589.4255371</ele>
        <time>2014-07-27T11:30:01Z</time>
      </trkpt>
      <trkpt lat="44.27943" lon="5.78636">
        <ele>589.4255371</ele>
        <time>2014-07-27T11:30:05Z</time>
      </trkpt>
      <trkpt lat="44.2794" lon="5.78648">
        <ele>589.4255371</ele>
        <time>2014-07-27T11:30:07Z</time>
      </trkpt>
      <trkpt lat="44.27929" lon="5.78673">
        <ele>589.4255371</ele>
        <time>2014-07-27T11:30:11Z</time>
      </trkpt>
      <trkpt lat="44.27926" lon="5.78704">
        <ele>589.90625</ele>
        <time>2014-07-27T11:30:15Z</time>
      </trkpt>
      <trkpt lat="44.27922" lon="5.78733">
        <ele>590.3869629</ele>
        <time>2014-07-27T11:30:19Z</time>
      </trkpt>
      <trkpt lat="44.27928" lon="5.78752">
        <ele>590.3869629</ele>
        <time>2014-07-27T11:30:22Z</time>
      </trkpt>
      <trkpt lat="44.27959" lon="5.78832">
        <ele>590.8674316</ele>
        <time>2014-07-27T11:30:34Z</time>
      </trkpt>
      <trkpt lat="44.27962" lon="5.7886">
        <ele>590.8674316</ele>
        <time>2014-07-27T11:30:38Z</time>
      </trkpt>
      <trkpt lat="44.27963" lon="5.7888">
        <ele>591.3481445</ele>
        <time>2014-07-27T11:30:41Z</time>
      </trkpt>
      <trkpt lat="44.2796" lon="5.78906">
        <ele>591.3481445</ele>
        <time>2014-07-27T11:30:45Z</time>
      </trkpt>
      <trkpt lat="44.2796" lon="5.78925">
        <ele>591.3481445</ele>
        <time>2014-07-27T11:30:48Z</time>
      </trkpt>
      <trkpt lat="44.27959" lon="5.78953">
        <ele>591.3481445</ele>
        <time>2014-07-27T11:30:52Z</time>
      </trkpt>
      <trkpt lat="44.27943" lon="5.78979">
        <ele>591.8288574</ele>
        <time>2014-07-27T11:30:58Z</time>
      </trkpt>
      <trkpt lat="44.27909" lon="5.79004">
        <ele>592.3095703</ele>
        <time>2014-07-27T11:31:08Z</time>
      </trkpt>
      <trkpt lat="44.27867" lon="5.79006">
        <ele>592.3095703</ele>
        <time>2014-07-27T11:31:17Z</time>
      </trkpt>
      <trkpt lat="44.27842" lon="5.79003">
        <ele>593.270752</ele>
        <time>2014-07-27T11:31:22Z</time>
      </trkpt>
      <trkpt lat="44.27817" lon="5.78995">
        <ele>593.270752</ele>
        <time>2014-07-27T11:31:31Z</time>
      </trkpt>
      <trkpt lat="44.27813" lon="5.7902">
        <ele>593.270752</ele>
        <time>2014-07-27T11:31:33Z</time>
      </trkpt>
      <trkpt lat="44.27819" lon="5.79052">
        <ele>592.7902832</ele>
        <time>2014-07-27T11:31:38Z</time>
      </trkpt>
      <trkpt lat="44.27839" lon="5.7908">
        <ele>592.3095703</ele>
        <time>2014-07-27T11:31:44Z</time>
      </trkpt>
      <trkpt lat="44.27846" lon="5.7911">
        <ele>591.8288574</ele>
        <time>2014-07-27T11:31:48Z</time>
      </trkpt>
      <trkpt lat="44.2785" lon="5.79124">
        <ele>590.8674316</ele>
        <time>2014-07-27T11:31:50Z</time>
      </trkpt>
      <trkpt lat="44.27863" lon="5.79149">
        <ele>590.3869629</ele>
        <time>2014-07-27T11:31:54Z</time>
      </trkpt>
      <trkpt lat="44.27863" lon="5.79189">
        <ele>588.9450684</ele>
        <time>2014-07-27T11:31:59Z</time>
      </trkpt>
      <trkpt lat="44.27857" lon="5.79225">
        <ele>588.4643555</ele>
        <time>2014-07-27T11:32:05Z</time>
      </trkpt>
      <trkpt lat="44.27846" lon="5.79258">
        <ele>587.9833984</ele>
        <time>2014-07-27T11:32:10Z</time>
      </trkpt>
      <trkpt lat="44.27835" lon="5.79293">
        <ele>586.5415039</ele>
        <time>2014-07-27T11:32:15Z</time>
      </trkpt>
      <trkpt lat="44.2783" lon="5.79308">
        <ele>586.060791</ele>
        <time>2014-07-27T11:32:17Z</time>
      </trkpt>
      <trkpt lat="44.27792" lon="5.79336">
        <ele>584.1381836</ele>
        <time>2014-07-27T11:32:24Z</time>
      </trkpt>
      <trkpt lat="44.27771" lon="5.7933">
        <ele>584.1381836</ele>
        <time>2014-07-27T11:32:35Z</time>
      </trkpt>
      <trkpt lat="44.27749" lon="5.79355">
        <ele>583.1767578</ele>
        <time>2014-07-27T11:32:53Z</time>
      </trkpt>
      <trkpt lat="44.27729" lon="5.79383">
        <ele>582.2155762</ele>
        <time>2014-07-27T11:32:58Z</time>
      </trkpt>
      <trkpt lat="44.27709" lon="5.79427">
        <ele>581.2543945</ele>
        <time>2014-07-27T11:33:04Z</time>
      </trkpt>
      <trkpt lat="44.27688" lon="5.79489">
        <ele>579.8122559</ele>
        <time>2014-07-27T11:33:11Z</time>
      </trkpt>
      <trkpt lat="44.27684" lon="5.7959">
        <ele>577.4091797</ele>
        <time>2014-07-27T11:33:25Z</time>
      </trkpt>
      <trkpt lat="44.27684" lon="5.79663">
        <ele>575.967041</ele>
        <time>2014-07-27T11:33:32Z</time>
      </trkpt>
      <trkpt lat="44.27681" lon="5.79683">
        <ele>575.0058594</ele>
        <time>2014-07-27T11:33:34Z</time>
      </trkpt>
      <trkpt lat="44.2768" lon="5.7972">
        <ele>575.0058594</ele>
        <time>2014-07-27T11:33:38Z</time>
      </trkpt>
      <trkpt lat="44.27684" lon="5.79731">
        <ele>574.5251465</ele>
        <time>2014-07-27T11:33:40Z</time>
      </trkpt>
      <trkpt lat="44.27664" lon="5.7978">
        <ele>574.0444336</ele>
        <time>2014-07-27T11:33:46Z</time>
      </trkpt>
      <trkpt lat="44.27644" lon="5.79889">
        <ele>573.5639648</ele>
        <time>2014-07-27T11:33:59Z</time>
      </trkpt>
      <trkpt lat="44.27629" lon="5.79935">
        <ele>573.5639648</ele>
        <time>2014-07-27T11:34:05Z</time>
      </trkpt>
      <trkpt lat="44.2757" lon="5.80036">
        <ele>572.6025391</ele>
        <time>2014-07-27T11:34:20Z</time>
      </trkpt>
      <trkpt lat="44.27537" lon="5.80158">
        <ele>571.1604004</ele>
        <time>2014-07-27T11:34:32Z</time>
      </trkpt>
      <trkpt lat="44.27489" lon="5.80233">
        <ele>570.1989746</ele>
        <time>2014-07-27T11:34:42Z</time>
      </trkpt>
      <trkpt lat="44.27451" lon="5.80327">
        <ele>566.3537598</ele>
        <time>2014-07-27T11:34:52Z</time>
      </trkpt>
      <trkpt lat="44.27404" lon="5.80464">
        <ele>564.4311523</ele>
        <time>2014-07-27T11:35:06Z</time>
      </trkpt>
      <trkpt lat="44.27351" lon="5.80568">
        <ele>563.9504395</ele>
        <time>2014-07-27T11:35:20Z</time>
      </trkpt>
      <trkpt lat="44.27342" lon="5.80582">
        <ele>563.4699707</ele>
        <time>2014-07-27T11:35:22Z</time>
      </trkpt>
      <trkpt lat="44.27335" lon="5.80617">
        <ele>562.5085449</ele>
        <time>2014-07-27T11:35:26Z</time>
      </trkpt>
      <trkpt lat="44.27335" lon="5.80656">
        <ele>562.0280762</ele>
        <time>2014-07-27T11:35:30Z</time>
      </trkpt>
      <trkpt lat="44.27324" lon="5.80704">
        <ele>561.5473633</ele>
        <time>2014-07-27T11:35:35Z</time>
      </trkpt>
      <trkpt lat="44.27313" lon="5.80721">
        <ele>560.5859375</ele>
        <time>2014-07-27T11:35:37Z</time>
      </trkpt>
      <trkpt lat="44.273" lon="5.80752">
        <ele>559.144043</ele>
        <time>2014-07-27T11:35:40Z</time>
      </trkpt>
      <trkpt lat="44.27265" lon="5.80869">
        <ele>557.2214355</ele>
        <time>2014-07-27T11:35:51Z</time>
      </trkpt>
      <trkpt lat="44.27231" lon="5.81021">
        <ele>555.7792969</ele>
        <time>2014-07-27T11:36:06Z</time>
      </trkpt>
      <trkpt lat="44.27223" lon="5.81081">
        <ele>555.298584</ele>
        <time>2014-07-27T11:36:13Z</time>
      </trkpt>
      <trkpt lat="44.27226" lon="5.81121">
        <ele>555.7792969</ele>
        <time>2014-07-27T11:36:18Z</time>
      </trkpt>
      <trkpt lat="44.27224" lon="5.81142">
        <ele>555.298584</ele>
        <time>2014-07-27T11:36:21Z</time>
      </trkpt>
      <trkpt lat="44.27239" lon="5.81172">
        <ele>557.2214355</ele>
        <time>2014-07-27T11:36:27Z</time>
      </trkpt>
      <trkpt lat="44.27256" lon="5.81186">
        <ele>556.7407227</ele>
        <time>2014-07-27T11:36:31Z</time>
      </trkpt>
      <trkpt lat="44.27274" lon="5.81205">
        <ele>556.7407227</ele>
        <time>2014-07-27T11:36:36Z</time>
      </trkpt>
      <trkpt lat="44.27327" lon="5.81267">
        <ele>556.2600098</ele>
        <time>2014-07-27T11:36:49Z</time>
      </trkpt>
      <trkpt lat="44.27339" lon="5.81284">
        <ele>556.2600098</ele>
        <time>2014-07-27T11:36:52Z</time>
      </trkpt>
      <trkpt lat="44.27349" lon="5.81299">
        <ele>555.7792969</ele>
        <time>2014-07-27T11:36:55Z</time>
      </trkpt>
      <trkpt lat="44.27418" lon="5.81351">
        <ele>554.3374023</ele>
        <time>2014-07-27T11:37:10Z</time>
      </trkpt>
      <trkpt lat="44.27476" lon="5.81386">
        <ele>555.7792969</ele>
        <time>2014-07-27T11:37:20Z</time>
      </trkpt>
      <trkpt lat="44.27497" lon="5.81405">
        <ele>553.8566895</ele>
        <time>2014-07-27T11:37:24Z</time>
      </trkpt>
      <trkpt lat="44.27579" lon="5.81501">
        <ele>554.8178711</ele>
        <time>2014-07-27T11:37:43Z</time>
      </trkpt>
      <trkpt lat="44.27605" lon="5.81538">
        <ele>556.2600098</ele>
        <time>2014-07-27T11:37:51Z</time>
      </trkpt>
      <trkpt lat="44.2761" lon="5.81551">
        <ele>555.7792969</ele>
        <time>2014-07-27T11:37:53Z</time>
      </trkpt>
      <trkpt lat="44.27631" lon="5.81576">
        <ele>556.2600098</ele>
        <time>2014-07-27T11:37:59Z</time>
      </trkpt>
      <trkpt lat="44.27645" lon="5.8159">
        <ele>556.7407227</ele>
        <time>2014-07-27T11:38:03Z</time>
      </trkpt>
      <trkpt lat="44.27656" lon="5.81602">
        <ele>557.2214355</ele>
        <time>2014-07-27T11:38:06Z</time>
      </trkpt>
      <trkpt lat="44.27668" lon="5.8162">
        <ele>556.7407227</ele>
        <time>2014-07-27T11:38:10Z</time>
      </trkpt>
      <trkpt lat="44.27714" lon="5.81669">
        <ele>555.7792969</ele>
        <time>2014-07-27T11:38:21Z</time>
      </trkpt>
      <trkpt lat="44.27727" lon="5.81688">
        <ele>556.2600098</ele>
        <time>2014-07-27T11:38:25Z</time>
      </trkpt>
      <trkpt lat="44.27767" lon="5.81717">
        <ele>556.7407227</ele>
        <time>2014-07-27T11:38:34Z</time>
      </trkpt>
      <trkpt lat="44.27844" lon="5.81767">
        <ele>559.144043</ele>
        <time>2014-07-27T11:38:53Z</time>
      </trkpt>
      <trkpt lat="44.27884" lon="5.81794">
        <ele>559.6247559</ele>
        <time>2014-07-27T11:39:04Z</time>
      </trkpt>
      <trkpt lat="44.27895" lon="5.81804">
        <ele>560.1052246</ele>
        <time>2014-07-27T11:39:07Z</time>
      </trkpt>
      <trkpt lat="44.27952" lon="5.8184">
        <ele>560.1052246</ele>
        <time>2014-07-27T11:39:21Z</time>
      </trkpt>
      <trkpt lat="44.27975" lon="5.81853">
        <ele>560.5859375</ele>
        <time>2014-07-27T11:39:26Z</time>
      </trkpt>
      <trkpt lat="44.28046" lon="5.819">
        <ele>560.5859375</ele>
        <time>2014-07-27T11:39:42Z</time>
      </trkpt>
      <trkpt lat="44.28114" lon="5.81941">
        <ele>561.0666504</ele>
        <time>2014-07-27T11:39:58Z</time>
      </trkpt>
      <trkpt lat="44.28137" lon="5.81957">
        <ele>561.0666504</ele>
        <time>2014-07-27T11:40:04Z</time>
      </trkpt>
      <trkpt lat="44.2816" lon="5.81973">
        <ele>561.5473633</ele>
        <time>2014-07-27T11:40:10Z</time>
      </trkpt>
      <trkpt lat="44.28173" lon="5.81983">
        <ele>561.0666504</ele>
        <time>2014-07-27T11:40:13Z</time>
      </trkpt>
      <trkpt lat="44.28232" lon="5.82013">
        <ele>561.0666504</ele>
        <time>2014-07-27T11:40:27Z</time>
      </trkpt>
      <trkpt lat="44.28264" lon="5.82023">
        <ele>562.0280762</ele>
        <time>2014-07-27T11:40:35Z</time>
      </trkpt>
      <trkpt lat="44.28283" lon="5.82032">
        <ele>562.5085449</ele>
        <time>2014-07-27T11:40:41Z</time>
      </trkpt>
      <trkpt lat="44.28294" lon="5.82036">
        <ele>562.5085449</ele>
        <time>2014-07-27T11:40:44Z</time>
      </trkpt>
      <trkpt lat="44.28334" lon="5.82031">
        <ele>562.9892578</ele>
        <time>2014-07-27T11:40:52Z</time>
      </trkpt>
      <trkpt lat="44.28347" lon="5.82032">
        <ele>562.9892578</ele>
        <time>2014-07-27T11:40:55Z</time>
      </trkpt>
      <trkpt lat="44.28368" lon="5.8203">
        <ele>562.9892578</ele>
        <time>2014-07-27T11:40:59Z</time>
      </trkpt>
      <trkpt lat="44.28438" lon="5.82042">
        <ele>563.9504395</ele>
        <time>2014-07-27T11:41:14Z</time>
      </trkpt>
      <trkpt lat="44.28449" lon="5.82047">
        <ele>563.9504395</ele>
        <time>2014-07-27T11:41:17Z</time>
      </trkpt>
      <trkpt lat="44.28507" lon="5.82073">
        <ele>565.3925781</ele>
        <time>2014-07-27T11:41:32Z</time>
      </trkpt>
      <trkpt lat="44.28562" lon="5.82102">
        <ele>566.8344727</ele>
        <time>2014-07-27T11:41:48Z</time>
      </trkpt>
      <trkpt lat="44.28605" lon="5.82119">
        <ele>568.7570801</ele>
        <time>2014-07-27T11:42:01Z</time>
      </trkpt>
      <trkpt lat="44.28649" lon="5.82133">
        <ele>570.6796875</ele>
        <time>2014-07-27T11:42:15Z</time>
      </trkpt>
      <trkpt lat="44.28681" lon="5.82144">
        <ele>572.6025391</ele>
        <time>2014-07-27T11:42:26Z</time>
      </trkpt>
      <trkpt lat="44.28722" lon="5.82159">
        <ele>573.5639648</ele>
        <time>2014-07-27T11:42:41Z</time>
      </trkpt>
      <trkpt lat="44.2876" lon="5.82175">
        <ele>575.4863281</ele>
        <time>2014-07-27T11:42:55Z</time>
      </trkpt>
      <trkpt lat="44.28806" lon="5.82208">
        <ele>577.4091797</ele>
        <time>2014-07-27T11:43:12Z</time>
      </trkpt>
      <trkpt lat="44.28842" lon="5.82237">
        <ele>577.8896484</ele>
        <time>2014-07-27T11:43:25Z</time>
      </trkpt>
      <trkpt lat="44.28883" lon="5.82274">
        <ele>578.3703613</ele>
        <time>2014-07-27T11:43:38Z</time>
      </trkpt>
      <trkpt lat="44.2895" lon="5.82291">
        <ele>577.8896484</ele>
        <time>2014-07-27T11:43:53Z</time>
      </trkpt>
      <trkpt lat="44.29037" lon="5.82283">
        <ele>574.5251465</ele>
        <time>2014-07-27T11:44:07Z</time>
      </trkpt>
      <trkpt lat="44.29115" lon="5.82276">
        <ele>572.6025391</ele>
        <time>2014-07-27T11:44:18Z</time>
      </trkpt>
      <trkpt lat="44.29179" lon="5.8227">
        <ele>571.6408691</ele>
        <time>2014-07-27T11:44:29Z</time>
      </trkpt>
      <trkpt lat="44.29252" lon="5.82258">
        <ele>572.1218262</ele>
        <time>2014-07-27T11:44:43Z</time>
      </trkpt>
      <trkpt lat="44.29328" lon="5.8223">
        <ele>574.0444336</ele>
        <time>2014-07-27T11:45:01Z</time>
      </trkpt>
      <trkpt lat="44.29376" lon="5.82203">
        <ele>574.5251465</ele>
        <time>2014-07-27T11:45:12Z</time>
      </trkpt>
      <trkpt lat="44.2943" lon="5.82142">
        <ele>572.6025391</ele>
        <time>2014-07-27T11:45:25Z</time>
      </trkpt>
      <trkpt lat="44.29492" lon="5.82102">
        <ele>572.1218262</ele>
        <time>2014-07-27T11:45:36Z</time>
      </trkpt>
      <trkpt lat="44.29525" lon="5.82107">
        <ele>572.1218262</ele>
        <time>2014-07-27T11:45:43Z</time>
      </trkpt>
      <trkpt lat="44.29577" lon="5.82117">
        <ele>570.6796875</ele>
        <time>2014-07-27T11:45:52Z</time>
      </trkpt>
      <trkpt lat="44.29608" lon="5.8213">
        <ele>570.6796875</ele>
        <time>2014-07-27T11:45:57Z</time>
      </trkpt>
      <trkpt lat="44.29626" lon="5.82141">
        <ele>572.6025391</ele>
        <time>2014-07-27T11:46:00Z</time>
      </trkpt>
      <trkpt lat="44.29632" lon="5.82146">
        <ele>569.237793</ele>
        <time>2014-07-27T11:46:01Z</time>
      </trkpt>
      <trkpt lat="44.29638" lon="5.82151">
        <ele>569.237793</ele>
        <time>2014-07-27T11:46:02Z</time>
      </trkpt>
      <trkpt lat="44.29732" lon="5.82231">
        <ele>569.237793</ele>
        <time>2014-07-27T11:46:19Z</time>
      </trkpt>
      <trkpt lat="44.29768" lon="5.82247">
        <ele>569.7185059</ele>
        <time>2014-07-27T11:46:25Z</time>
      </trkpt>
      <trkpt lat="44.29794" lon="5.82251">
        <ele>568.7570801</ele>
        <time>2014-07-27T11:46:29Z</time>
      </trkpt>
      <trkpt lat="44.29814" lon="5.82254">
        <ele>569.237793</ele>
        <time>2014-07-27T11:46:32Z</time>
      </trkpt>
      <trkpt lat="44.29849" lon="5.82261">
        <ele>568.2763672</ele>
        <time>2014-07-27T11:46:37Z</time>
      </trkpt>
      <trkpt lat="44.29932" lon="5.82308">
        <ele>568.7570801</ele>
        <time>2014-07-27T11:46:51Z</time>
      </trkpt>
      <trkpt lat="44.3003" lon="5.82343">
        <ele>569.237793</ele>
        <time>2014-07-27T11:47:09Z</time>
      </trkpt>
      <trkpt lat="44.3013" lon="5.82353">
        <ele>569.237793</ele>
        <time>2014-07-27T11:47:26Z</time>
      </trkpt>
      <trkpt lat="44.30193" lon="5.82357">
        <ele>568.7570801</ele>
        <time>2014-07-27T11:47:37Z</time>
      </trkpt>
      <trkpt lat="44.30243" lon="5.82357">
        <ele>569.7185059</ele>
        <time>2014-07-27T11:47:47Z</time>
      </trkpt>
      <trkpt lat="44.30271" lon="5.82355">
        <ele>569.7185059</ele>
        <time>2014-07-27T11:47:53Z</time>
      </trkpt>
      <trkpt lat="44.30359" lon="5.82332">
        <ele>569.7185059</ele>
        <time>2014-07-27T11:48:10Z</time>
      </trkpt>
      <trkpt lat="44.3037" lon="5.8233">
        <ele>570.6796875</ele>
        <time>2014-07-27T11:48:12Z</time>
      </trkpt>
      <trkpt lat="44.30488" lon="5.82323">
        <ele>569.7185059</ele>
        <time>2014-07-27T11:48:33Z</time>
      </trkpt>
      <trkpt lat="44.30527" lon="5.82321">
        <ele>568.7570801</ele>
        <time>2014-07-27T11:48:40Z</time>
      </trkpt>
      <trkpt lat="44.30584" lon="5.82312">
        <ele>568.2763672</ele>
        <time>2014-07-27T11:48:51Z</time>
      </trkpt>
      <trkpt lat="44.30624" lon="5.82305">
        <ele>568.7570801</ele>
        <time>2014-07-27T11:48:59Z</time>
      </trkpt>
      <trkpt lat="44.3066" lon="5.82284">
        <ele>569.7185059</ele>
        <time>2014-07-27T11:49:07Z</time>
      </trkpt>
      <trkpt lat="44.30718" lon="5.82205">
        <ele>570.1989746</ele>
        <time>2014-07-27T11:49:24Z</time>
      </trkpt>
      <trkpt lat="44.30728" lon="5.82179">
        <ele>569.7185059</ele>
        <time>2014-07-27T11:49:28Z</time>
      </trkpt>
      <trkpt lat="44.30733" lon="5.82156">
        <ele>568.7570801</ele>
        <time>2014-07-27T11:49:31Z</time>
      </trkpt>
      <trkpt lat="44.3074" lon="5.82133">
        <ele>568.7570801</ele>
        <time>2014-07-27T11:49:34Z</time>
      </trkpt>
      <trkpt lat="44.30766" lon="5.82094">
        <ele>567.7956543</ele>
        <time>2014-07-27T11:49:41Z</time>
      </trkpt>
      <trkpt lat="44.30786" lon="5.82082">
        <ele>567.7956543</ele>
        <time>2014-07-27T11:49:45Z</time>
      </trkpt>
      <trkpt lat="44.30858" lon="5.82065">
        <ele>567.3151855</ele>
        <time>2014-07-27T11:49:59Z</time>
      </trkpt>
      <trkpt lat="44.30904" lon="5.82046">
        <ele>565.873291</ele>
        <time>2014-07-27T11:50:07Z</time>
      </trkpt>
      <trkpt lat="44.30936" lon="5.82044">
        <ele>564.9118652</ele>
        <time>2014-07-27T11:50:12Z</time>
      </trkpt>
      <trkpt lat="44.30975" lon="5.82056">
        <ele>563.4699707</ele>
        <time>2014-07-27T11:50:18Z</time>
      </trkpt>
      <trkpt lat="44.31017" lon="5.82098">
        <ele>564.4311523</ele>
        <time>2014-07-27T11:50:27Z</time>
      </trkpt>
      <trkpt lat="44.31057" lon="5.82154">
        <ele>563.4699707</ele>
        <time>2014-07-27T11:50:39Z</time>
      </trkpt>
      <trkpt lat="44.311" lon="5.822">
        <ele>563.9504395</ele>
        <time>2014-07-27T11:50:49Z</time>
      </trkpt>
      <trkpt lat="44.31117" lon="5.82225">
        <ele>563.9504395</ele>
        <time>2014-07-27T11:50:55Z</time>
      </trkpt>
      <trkpt lat="44.31155" lon="5.8227">
        <ele>565.873291</ele>
        <time>2014-07-27T11:51:07Z</time>
      </trkpt>
      <trkpt lat="44.31184" lon="5.82276">
        <ele>565.3925781</ele>
        <time>2014-07-27T11:51:16Z</time>
      </trkpt>
      <trkpt lat="44.3123" lon="5.82276">
        <ele>566.8344727</ele>
        <time>2014-07-27T11:51:28Z</time>
      </trkpt>
      <trkpt lat="44.3126" lon="5.82271">
        <ele>567.7956543</ele>
        <time>2014-07-27T11:51:38Z</time>
      </trkpt>
      <trkpt lat="44.3129" lon="5.82267">
        <ele>569.237793</ele>
        <time>2014-07-27T11:51:48Z</time>
      </trkpt>
      <trkpt lat="44.31295" lon="5.8226">
        <ele>569.7185059</ele>
        <time>2014-07-27T11:51:51Z</time>
      </trkpt>
      <trkpt lat="44.31308" lon="5.82268">
        <ele>570.6796875</ele>
        <time>2014-07-27T11:51:58Z</time>
      </trkpt>
      <trkpt lat="44.31329" lon="5.82254">
        <ele>572.6025391</ele>
        <time>2014-07-27T11:52:05Z</time>
      </trkpt>
      <trkpt lat="44.31357" lon="5.82276">
        <ele>574.5251465</ele>
        <time>2014-07-27T11:52:14Z</time>
      </trkpt>
      <trkpt lat="44.31366" lon="5.82284">
        <ele>574.5251465</ele>
        <time>2014-07-27T11:52:20Z</time>
      </trkpt>
      <trkpt lat="44.3136" lon="5.82285">
        <ele>575.0058594</ele>
        <time>2014-07-27T11:52:28Z</time>
      </trkpt>
      <trkpt lat="44.31375" lon="5.82286">
        <ele>575.0058594</ele>
        <time>2014-07-27T11:52:33Z</time>
      </trkpt>
      <trkpt lat="44.31404" lon="5.82314">
        <ele>575.0058594</ele>
        <time>2014-07-27T11:52:45Z</time>
      </trkpt>
      <trkpt lat="44.31427" lon="5.82317">
        <ele>575.0058594</ele>
        <time>2014-07-27T11:52:58Z</time>
      </trkpt>
      <trkpt lat="44.31441" lon="5.82344">
        <ele>574.5251465</ele>
        <time>2014-07-27T11:53:13Z</time>
      </trkpt>
      <trkpt lat="44.31443" lon="5.82346">
        <ele>574.0444336</ele>
        <time>2014-07-27T11:53:14Z</time>
      </trkpt>
      <trkpt lat="44.31441" lon="5.82336">
        <ele>575.0058594</ele>
        <time>2014-07-27T11:53:21Z</time>
      </trkpt>
      <trkpt lat="44.31442" lon="5.82339">
        <ele>575.4863281</ele>
        <time>2014-07-27T11:53:25Z</time>
      </trkpt>
      <trkpt lat="44.31454" lon="5.82327">
        <ele>576.4477539</ele>
        <time>2014-07-27T11:53:29Z</time>
      </trkpt>
      <trkpt lat="44.31466" lon="5.82318">
        <ele>576.4477539</ele>
        <time>2014-07-27T11:53:33Z</time>
      </trkpt>
      <trkpt lat="44.31492" lon="5.82299">
        <ele>576.4477539</ele>
        <time>2014-07-27T11:53:38Z</time>
      </trkpt>
      <trkpt lat="44.31521" lon="5.82326">
        <ele>576.4477539</ele>
        <time>2014-07-27T11:53:48Z</time>
      </trkpt>
      <trkpt lat="44.31557" lon="5.82359">
        <ele>576.9284668</ele>
        <time>2014-07-27T11:54:03Z</time>
      </trkpt>
      <trkpt lat="44.31557" lon="5.82357">
        <ele>576.4477539</ele>
        <time>2014-07-27T11:54:31Z</time>
      </trkpt>
      <trkpt lat="44.31557" lon="5.82357">
        <ele>577.8896484</ele>
        <time>2014-07-27T11:54:40Z</time>
      </trkpt>
    </trkseg>
  </trk>
</gpx>